GEFSSGP_prec_meanprecacc_120.txt.gz
Total_Precipitation_Accumulation
0.13 0.15 0.19 0.25 0.20 0.13 0.06 0.02 0.01 0.01 0.01 0.01 0.02 0.02 0.02 0.02 0.02 0.05 0.02 0.01 0.01 0.01 0.04 0.09 0.11 0.15 0.14 0.11 0.08 0.05 0.04 0.06 0.08 0.11 0.12 0.14 0.13 0.13 0.14 0.16 0.19 0.20 0.21 0.23 0.28 0.28 0.26 0.22 0.18
0.16 0.23 0.36 0.38 0.24 0.15 0.05 0.01 0.01 0.00 0.01 0.01 0.01 0.02 0.03 0.04 0.03 0.03 0.03 0.02 0.01 0.01 0.03 0.06 0.09 0.12 0.13 0.10 0.07 0.05 0.05 0.07 0.09 0.11 0.13 0.16 0.15 0.14 0.16 0.17 0.16 0.16 0.16 0.18 0.19 0.15 0.11 0.08 0.07
0.26 0.38 0.52 0.44 0.27 0.14 0.04 0.01 0.00 0.01 0.01 0.02 0.02 0.02 0.03 0.06 0.04 0.04 0.03 0.02 0.03 0.03 0.03 0.07 0.08 0.11 0.12 0.10 0.08 0.06 0.06 0.08 0.09 0.10 0.12 0.17 0.18 0.17 0.16 0.14 0.11 0.09 0.09 0.09 0.08 0.05 0.03 0.02 0.02
0.44 0.59 0.59 0.46 0.28 0.10 0.03 0.01 0.01 0.01 0.02 0.02 0.03 0.05 0.06 0.07 0.06 0.05 0.05 0.05 0.04 0.04 0.04 0.08 0.09 0.10 0.10 0.09 0.07 0.07 0.07 0.08 0.08 0.08 0.10 0.15 0.20 0.20 0.15 0.10 0.06 0.04 0.04 0.05 0.04 0.02 0.01 0.01 0.01
0.68 0.78 0.64 0.49 0.28 0.09 0.03 0.02 0.02 0.02 0.02 0.03 0.04 0.08 0.09 0.10 0.08 0.07 0.08 0.08 0.07 0.07 0.07 0.10 0.11 0.11 0.10 0.09 0.09 0.07 0.08 0.08 0.08 0.07 0.08 0.13 0.19 0.20 0.13 0.06 0.03 0.02 0.03 0.03 0.02 0.01 0.01 0.01 0.01
0.89 0.91 0.70 0.45 0.24 0.10 0.03 0.03 0.03 0.03 0.04 0.05 0.08 0.12 0.17 0.15 0.14 0.13 0.12 0.12 0.11 0.11 0.13 0.14 0.14 0.12 0.10 0.10 0.09 0.08 0.08 0.09 0.08 0.07 0.09 0.12 0.14 0.16 0.11 0.05 0.03 0.03 0.03 0.03 0.02 0.01 0.01 0.01 0.01
0.89 0.91 0.69 0.33 0.18 0.12 0.05 0.04 0.05 0.05 0.04 0.06 0.10 0.17 0.26 0.26 0.31 0.27 0.25 0.24 0.24 0.21 0.21 0.20 0.17 0.15 0.14 0.11 0.10 0.09 0.08 0.09 0.08 0.09 0.10 0.10 0.10 0.10 0.08 0.04 0.04 0.04 0.03 0.03 0.02 0.02 0.02 0.02 0.01
0.87 0.96 0.67 0.32 0.15 0.12 0.08 0.07 0.07 0.08 0.07 0.06 0.12 0.20 0.27 0.30 0.40 0.45 0.45 0.43 0.42 0.37 0.31 0.25 0.21 0.17 0.15 0.13 0.10 0.08 0.07 0.08 0.09 0.09 0.07 0.05 0.06 0.06 0.04 0.03 0.03 0.03 0.03 0.02 0.02 0.02 0.03 0.02 0.02
0.89 0.97 0.64 0.33 0.17 0.12 0.12 0.13 0.10 0.09 0.12 0.13 0.16 0.20 0.25 0.33 0.49 0.63 0.66 0.64 0.63 0.58 0.46 0.35 0.28 0.20 0.15 0.12 0.09 0.08 0.07 0.07 0.08 0.07 0.05 0.04 0.05 0.04 0.03 0.02 0.02 0.02 0.02 0.01 0.01 0.02 0.02 0.01 0.01
0.89 0.80 0.48 0.28 0.21 0.20 0.18 0.18 0.15 0.15 0.19 0.23 0.28 0.31 0.39 0.49 0.68 0.77 0.75 0.71 0.66 0.63 0.54 0.42 0.32 0.24 0.18 0.13 0.11 0.11 0.09 0.08 0.07 0.06 0.05 0.04 0.04 0.03 0.02 0.02 0.01 0.01 0.01 0.01 0.01 0.01 0.01 0.00 0.00
0.60 0.54 0.40 0.32 0.27 0.27 0.27 0.23 0.21 0.21 0.21 0.21 0.25 0.35 0.52 0.63 0.81 0.88 0.93 0.90 0.81 0.74 0.62 0.47 0.37 0.31 0.23 0.15 0.12 0.11 0.09 0.08 0.07 0.05 0.04 0.03 0.04 0.03 0.02 0.02 0.02 0.01 0.00 0.01 0.01 0.00 0.00 0.00 0.00
0.39 0.37 0.38 0.38 0.32 0.31 0.31 0.30 0.27 0.20 0.17 0.17 0.23 0.35 0.52 0.63 0.77 0.83 0.92 0.96 1.03 0.97 0.82 0.58 0.48 0.38 0.30 0.19 0.12 0.09 0.07 0.06 0.06 0.04 0.03 0.03 0.02 0.02 0.02 0.01 0.01 0.01 0.00 0.01 0.00 0.00 0.00 0.00 0.00
0.32 0.29 0.32 0.39 0.38 0.33 0.30 0.30 0.31 0.20 0.16 0.19 0.28 0.42 0.53 0.66 0.85 1.00 1.07 1.10 1.17 1.17 1.04 0.83 0.66 0.51 0.38 0.27 0.17 0.10 0.07 0.05 0.04 0.04 0.02 0.02 0.01 0.01 0.01 0.01 0.01 0.01 0.00 0.00 0.00 0.00 0.00 0.00 0.00
0.27 0.27 0.34 0.40 0.40 0.34 0.32 0.31 0.30 0.23 0.21 0.28 0.37 0.45 0.53 0.71 0.90 1.07 1.19 1.28 1.24 1.33 1.30 1.10 0.85 0.69 0.52 0.36 0.23 0.14 0.09 0.07 0.06 0.05 0.02 0.01 0.01 0.01 0.01 0.01 0.01 0.01 0.00 0.00 0.00 0.00 0.00 0.00 0.00
0.30 0.38 0.43 0.44 0.45 0.36 0.36 0.41 0.30 0.24 0.22 0.28 0.34 0.42 0.48 0.67 0.86 1.01 1.12 1.22 1.34 1.41 1.48 1.34 1.11 0.90 0.67 0.50 0.35 0.25 0.16 0.11 0.08 0.07 0.04 0.02 0.01 0.01 0.01 0.01 0.01 0.01 0.00 0.00 0.00 0.00 0.00 0.00 0.00
0.48 0.59 0.56 0.40 0.44 0.40 0.42 0.43 0.26 0.23 0.24 0.25 0.27 0.34 0.42 0.53 0.72 0.89 1.10 1.22 1.37 1.50 1.51 1.49 1.30 1.10 0.87 0.67 0.49 0.39 0.31 0.21 0.16 0.14 0.10 0.06 0.03 0.02 0.02 0.01 0.01 0.01 0.01 0.01 0.01 0.01 0.01 0.01 0.02
0.69 0.53 0.44 0.35 0.35 0.41 0.37 0.33 0.25 0.21 0.22 0.20 0.19 0.26 0.36 0.44 0.61 0.72 0.93 1.12 1.23 1.42 1.54 1.62 1.42 1.26 1.10 0.93 0.76 0.63 0.51 0.38 0.29 0.23 0.16 0.13 0.09 0.07 0.05 0.03 0.02 0.03 0.03 0.02 0.02 0.02 0.02 0.02 0.01
0.49 0.30 0.28 0.31 0.29 0.34 0.31 0.24 0.23 0.20 0.19 0.17 0.16 0.19 0.27 0.35 0.44 0.58 0.76 1.02 1.11 1.29 1.48 1.61 1.64 1.53 1.46 1.41 1.19 0.93 0.72 0.55 0.46 0.37 0.30 0.25 0.19 0.16 0.14 0.10 0.08 0.07 0.06 0.04 0.03 0.02 0.02 0.02 0.02
0.37 0.28 0.22 0.18 0.23 0.29 0.26 0.18 0.20 0.19 0.16 0.15 0.15 0.15 0.19 0.26 0.35 0.49 0.66 0.90 1.06 1.19 1.36 1.47 1.53 1.62 1.55 1.40 1.21 0.94 0.75 0.69 0.68 0.61 0.54 0.45 0.37 0.31 0.25 0.20 0.17 0.13 0.10 0.08 0.07 0.07 0.06 0.04 0.04
0.49 0.43 0.28 0.18 0.17 0.24 0.23 0.16 0.16 0.15 0.15 0.12 0.11 0.11 0.13 0.18 0.27 0.38 0.55 0.73 0.89 1.05 1.13 1.30 1.33 1.46 1.44 1.29 1.26 1.17 1.11 1.01 0.96 0.89 0.72 0.60 0.53 0.46 0.38 0.30 0.28 0.25 0.19 0.15 0.15 0.15 0.11 0.09 0.09
0.53 0.43 0.34 0.26 0.21 0.23 0.26 0.19 0.13 0.11 0.12 0.10 0.09 0.08 0.08 0.12 0.17 0.25 0.39 0.57 0.69 0.86 1.01 1.08 1.12 1.22 1.36 1.44 1.54 1.56 1.47 1.18 0.96 0.86 0.80 0.74 0.70 0.64 0.56 0.48 0.43 0.39 0.34 0.28 0.28 0.27 0.25 0.25 0.24
0.54 0.32 0.35 0.36 0.41 0.37 0.27 0.26 0.12 0.08 0.09 0.08 0.07 0.06 0.06 0.09 0.13 0.17 0.25 0.38 0.48 0.61 0.83 1.02 1.08 1.09 1.20 1.48 1.53 1.50 1.32 1.07 0.86 0.89 0.95 0.94 0.86 0.80 0.72 0.66 0.62 0.57 0.50 0.45 0.46 0.47 0.48 0.47 0.41
0.50 0.33 0.37 0.44 0.52 0.48 0.28 0.22 0.12 0.06 0.07 0.06 0.06 0.05 0.06 0.09 0.11 0.12 0.18 0.27 0.35 0.43 0.62 0.80 0.99 1.08 1.11 1.18 1.28 1.39 1.32 1.18 1.14 1.06 0.95 0.88 0.83 0.79 0.77 0.75 0.73 0.71 0.69 0.69 0.70 0.67 0.66 0.64 0.59
0.58 0.58 0.62 0.65 0.80 0.75 0.27 0.19 0.12 0.05 0.07 0.07 0.05 0.07 0.08 0.10 0.09 0.09 0.14 0.23 0.29 0.33 0.45 0.58 0.73 0.87 0.93 0.97 1.05 1.11 1.17 1.24 1.20 1.08 0.98 0.93 0.91 0.86 0.81 0.83 0.83 0.85 0.82 0.80 0.81 0.82 0.83 0.84 0.81
0.86 1.17 1.50 1.41 1.15 0.55 0.15 0.15 0.10 0.04 0.06 0.07 0.05 0.08 0.10 0.10 0.08 0.08 0.11 0.17 0.23 0.27 0.33 0.40 0.47 0.56 0.69 0.78 0.81 0.86 0.99 1.12 1.10 1.00 0.94 0.90 0.86 0.77 0.76 0.82 0.86 0.89 0.90 0.91 0.91 0.89 0.88 0.93 0.96
0.82 1.00 1.17 0.93 0.53 0.22 0.11 0.11 0.07 0.05 0.07 0.08 0.07 0.06 0.08 0.09 0.08 0.08 0.08 0.11 0.18 0.23 0.26 0.30 0.34 0.37 0.48 0.56 0.62 0.68 0.78 0.93 0.93 0.94 0.86 0.80 0.77 0.77 0.80 0.82 0.81 0.81 0.82 0.84 0.84 0.83 0.81 0.84 0.86
0.76 0.75 0.65 0.79 0.51 0.27 0.13 0.07 0.03 0.02 0.04 0.05 0.05 0.04 0.05 0.06 0.07 0.07 0.07 0.07 0.14 0.19 0.22 0.24 0.28 0.31 0.35 0.43 0.52 0.55 0.58 0.65 0.73 0.82 0.84 0.76 0.70 0.70 0.71 0.72 0.71 0.68 0.67 0.68 0.69 0.68 0.67 0.68 0.69
0.66 0.60 0.77 1.07 0.83 0.44 0.16 0.06 0.05 0.03 0.03 0.05 0.06 0.05 0.05 0.05 0.06 0.06 0.06 0.07 0.11 0.14 0.18 0.21 0.24 0.28 0.29 0.32 0.40 0.43 0.46 0.51 0.56 0.62 0.67 0.64 0.60 0.60 0.60 0.59 0.57 0.55 0.54 0.53 0.53 0.51 0.50 0.51 0.51
0.60 0.74 0.86 0.87 0.63 0.53 0.33 0.15 0.08 0.06 0.05 0.05 0.06 0.07 0.06 0.05 0.05 0.05 0.05 0.06 0.08 0.10 0.14 0.19 0.20 0.23 0.26 0.28 0.32 0.37 0.37 0.41 0.45 0.48 0.52 0.56 0.56 0.52 0.51 0.51 0.49 0.45 0.42 0.39 0.38 0.35 0.36 0.37 0.38
0.48 0.47 0.64 0.92 0.67 0.47 0.39 0.25 0.11 0.08 0.06 0.05 0.05 0.06 0.05 0.04 0.04 0.03 0.03 0.04 0.05 0.07 0.10 0.15 0.15 0.15 0.19 0.22 0.25 0.30 0.33 0.35 0.38 0.38 0.43 0.48 0.51 0.48 0.45 0.45 0.43 0.40 0.37 0.34 0.32 0.32 0.31 0.31 0.31

GEFSSGP_prec_meanprecacc_126.txt.gz
Total_Precipitation_Accumulation
0.13 0.15 0.21 0.29 0.25 0.16 0.07 0.02 0.01 0.01 0.01 0.01 0.02 0.03 0.03 0.03 0.03 0.07 0.04 0.03 0.03 0.02 0.04 0.09 0.12 0.15 0.15 0.11 0.08 0.05 0.05 0.06 0.09 0.12 0.12 0.14 0.13 0.14 0.15 0.17 0.20 0.21 0.22 0.24 0.29 0.29 0.26 0.22 0.19
0.16 0.24 0.40 0.44 0.29 0.19 0.07 0.01 0.01 0.00 0.01 0.02 0.02 0.03 0.03 0.05 0.04 0.05 0.06 0.04 0.04 0.04 0.05 0.07 0.10 0.13 0.14 0.11 0.08 0.06 0.06 0.07 0.10 0.13 0.14 0.17 0.16 0.16 0.17 0.19 0.18 0.17 0.17 0.18 0.19 0.15 0.11 0.08 0.07
0.27 0.39 0.55 0.49 0.34 0.18 0.07 0.01 0.00 0.01 0.01 0.03 0.03 0.03 0.04 0.08 0.07 0.06 0.07 0.06 0.06 0.07 0.07 0.10 0.11 0.13 0.13 0.11 0.08 0.07 0.07 0.09 0.10 0.11 0.13 0.18 0.20 0.19 0.18 0.16 0.13 0.10 0.09 0.10 0.09 0.06 0.03 0.02 0.02
0.46 0.62 0.64 0.52 0.34 0.15 0.06 0.02 0.01 0.02 0.03 0.02 0.04 0.07 0.08 0.10 0.11 0.10 0.10 0.11 0.10 0.11 0.09 0.12 0.14 0.14 0.12 0.10 0.09 0.09 0.09 0.09 0.10 0.09 0.11 0.17 0.22 0.22 0.16 0.12 0.07 0.05 0.04 0.05 0.04 0.02 0.01 0.01 0.01
0.70 0.81 0.68 0.54 0.32 0.13 0.06 0.04 0.03 0.03 0.03 0.04 0.05 0.10 0.12 0.13 0.15 0.19 0.21 0.19 0.17 0.15 0.14 0.15 0.17 0.16 0.13 0.11 0.11 0.09 0.10 0.10 0.10 0.08 0.10 0.15 0.21 0.22 0.15 0.08 0.04 0.03 0.03 0.03 0.03 0.01 0.01 0.01 0.01
0.91 0.94 0.75 0.50 0.27 0.12 0.05 0.05 0.05 0.04 0.05 0.06 0.09 0.14 0.20 0.19 0.22 0.24 0.31 0.30 0.26 0.22 0.21 0.22 0.23 0.20 0.17 0.14 0.12 0.10 0.10 0.11 0.11 0.10 0.11 0.15 0.17 0.19 0.13 0.07 0.04 0.03 0.03 0.03 0.02 0.02 0.01 0.01 0.01
0.91 0.94 0.73 0.37 0.21 0.14 0.07 0.07 0.08 0.06 0.06 0.08 0.12 0.21 0.30 0.33 0.39 0.38 0.41 0.45 0.43 0.36 0.31 0.31 0.28 0.26 0.25 0.20 0.14 0.12 0.12 0.12 0.12 0.12 0.13 0.13 0.13 0.14 0.09 0.06 0.05 0.04 0.03 0.03 0.02 0.02 0.02 0.02 0.02
0.89 1.00 0.72 0.36 0.18 0.15 0.10 0.10 0.11 0.10 0.09 0.08 0.15 0.25 0.34 0.38 0.50 0.56 0.59 0.63 0.62 0.56 0.44 0.37 0.33 0.31 0.30 0.26 0.19 0.13 0.11 0.11 0.12 0.12 0.10 0.09 0.10 0.11 0.07 0.04 0.05 0.04 0.03 0.02 0.02 0.02 0.03 0.02 0.02
0.91 1.01 0.68 0.36 0.20 0.15 0.14 0.16 0.15 0.12 0.15 0.16 0.20 0.26 0.33 0.43 0.61 0.76 0.81 0.83 0.86 0.82 0.65 0.48 0.40 0.35 0.32 0.28 0.22 0.16 0.13 0.12 0.12 0.11 0.08 0.07 0.09 0.09 0.05 0.03 0.03 0.03 0.02 0.01 0.01 0.02 0.02 0.01 0.01
0.91 0.82 0.50 0.30 0.24 0.24 0.22 0.22 0.21 0.19 0.23 0.28 0.35 0.40 0.49 0.64 0.86 0.92 0.88 0.87 0.88 0.90 0.78 0.58 0.47 0.39 0.35 0.31 0.27 0.23 0.16 0.14 0.12 0.10 0.08 0.07 0.07 0.06 0.04 0.03 0.02 0.02 0.01 0.01 0.01 0.01 0.01 0.00 0.00
0.61 0.55 0.42 0.34 0.30 0.31 0.31 0.27 0.24 0.26 0.26 0.27 0.33 0.46 0.66 0.85 1.06 1.10 1.09 1.06 1.04 1.03 0.93 0.71 0.56 0.51 0.43 0.35 0.29 0.25 0.18 0.15 0.13 0.09 0.08 0.07 0.07 0.05 0.05 0.04 0.04 0.02 0.01 0.01 0.01 0.00 0.00 0.00 0.00
0.40 0.37 0.39 0.40 0.34 0.34 0.35 0.34 0.30 0.23 0.21 0.21 0.29 0.45 0.67 0.86 1.03 1.08 1.12 1.14 1.25 1.27 1.22 0.96 0.73 0.60 0.54 0.41 0.30 0.24 0.18 0.14 0.12 0.10 0.08 0.07 0.06 0.04 0.03 0.02 0.02 0.01 0.01 0.01 0.00 0.00 0.00 0.00 0.00
0.32 0.30 0.33 0.41 0.40 0.35 0.33 0.33 0.34 0.23 0.19 0.24 0.34 0.52 0.68 0.93 1.15 1.27 1.30 1.29 1.38 1.45 1.46 1.35 1.03 0.76 0.63 0.52 0.38 0.26 0.19 0.13 0.10 0.09 0.08 0.06 0.05 0.03 0.02 0.02 0.02 0.01 0.00 0.00 0.00 0.00 0.00 0.00 0.00
0.27 0.28 0.35 0.42 0.44 0.36 0.35 0.33 0.33 0.26 0.25 0.34 0.44 0.56 0.66 0.95 1.28 1.43 1.48 1.48 1.43 1.58 1.68 1.66 1.36 1.02 0.77 0.63 0.47 0.32 0.21 0.16 0.12 0.10 0.08 0.07 0.05 0.04 0.03 0.02 0.02 0.01 0.01 0.00 0.00 0.00 0.00 0.00 0.00
0.30 0.39 0.44 0.46 0.48 0.39 0.39 0.44 0.33 0.26 0.26 0.35 0.42 0.51 0.60 0.86 1.22 1.42 1.45 1.45 1.53 1.62 1.78 1.81 1.66 1.35 0.97 0.77 0.61 0.45 0.34 0.23 0.17 0.14 0.10 0.09 0.06 0.04 0.03 0.02 0.02 0.01 0.01 0.00 0.00 0.00 0.00 0.00 0.00
0.51 0.63 0.60 0.44 0.47 0.43 0.46 0.48 0.31 0.26 0.27 0.30 0.35 0.43 0.53 0.69 1.00 1.27 1.48 1.52 1.60 1.71 1.76 1.84 1.77 1.58 1.26 0.96 0.75 0.60 0.50 0.40 0.30 0.26 0.22 0.17 0.12 0.08 0.06 0.03 0.02 0.02 0.01 0.01 0.01 0.01 0.01 0.02 0.02
0.72 0.58 0.48 0.38 0.37 0.44 0.40 0.38 0.29 0.24 0.24 0.24 0.25 0.33 0.47 0.59 0.81 1.01 1.30 1.48 1.49 1.65 1.78 1.91 1.81 1.67 1.51 1.31 1.08 0.87 0.70 0.57 0.48 0.37 0.29 0.28 0.23 0.17 0.11 0.06 0.04 0.04 0.03 0.02 0.02 0.02 0.02 0.02 0.01
0.50 0.33 0.31 0.33 0.33 0.37 0.33 0.26 0.26 0.23 0.22 0.21 0.22 0.26 0.36 0.47 0.58 0.75 0.97 1.30 1.40 1.55 1.75 1.86 1.98 1.87 1.83 1.81 1.59 1.23 0.97 0.76 0.65 0.54 0.44 0.38 0.34 0.30 0.25 0.17 0.12 0.10 0.08 0.05 0.04 0.03 0.02 0.02 0.02
0.37 0.30 0.24 0.20 0.25 0.32 0.28 0.21 0.23 0.22 0.21 0.19 0.20 0.22 0.26 0.34 0.45 0.59 0.79 1.08 1.32 1.44 1.63 1.72 1.82 1.93 1.88 1.77 1.60 1.30 1.03 0.93 0.88 0.78 0.70 0.59 0.49 0.44 0.38 0.30 0.23 0.17 0.13 0.10 0.09 0.08 0.06 0.05 0.04
0.51 0.44 0.29 0.19 0.19 0.28 0.26 0.20 0.21 0.21 0.21 0.17 0.17 0.17 0.20 0.23 0.33 0.45 0.63 0.84 1.05 1.26 1.36 1.54 1.59 1.75 1.72 1.58 1.57 1.47 1.40 1.28 1.18 1.08 0.88 0.76 0.67 0.59 0.50 0.41 0.35 0.29 0.22 0.17 0.16 0.16 0.12 0.10 0.10
0.54 0.44 0.35 0.27 0.23 0.27 0.32 0.27 0.21 0.18 0.19 0.16 0.15 0.14 0.15 0.19 0.23 0.31 0.46 0.65 0.79 1.01 1.23 1.29 1.35 1.52 1.67 1.71 1.81 1.83 1.76 1.49 1.23 1.08 0.99 0.90 0.85 0.77 0.67 0.58 0.51 0.44 0.37 0.30 0.30 0.29 0.26 0.26 0.26
0.55 0.32 0.37 0.39 0.45 0.42 0.32 0.35 0.22 0.17 0.17 0.15 0.14 0.12 0.11 0.16 0.20 0.24 0.31 0.44 0.55 0.71 1.00 1.24 1.31 1.38 1.54 1.83 1.84 1.76 1.58 1.35 1.10 1.09 1.14 1.11 1.02 0.94 0.84 0.76 0.71 0.63 0.55 0.49 0.50 0.51 0.51 0.49 0.44
0.51 0.34 0.41 0.49 0.56 0.52 0.32 0.28 0.22 0.15 0.15 0.14 0.15 0.11 0.13 0.18 0.21 0.20 0.25 0.33 0.42 0.52 0.74 1.00 1.25 1.36 1.41 1.53 1.63 1.69 1.55 1.41 1.37 1.27 1.17 1.07 1.00 0.97 0.91 0.86 0.83 0.79 0.75 0.75 0.76 0.73 0.71 0.68 0.63
0.58 0.59 0.64 0.68 0.84 0.78 0.31 0.26 0.23 0.17 0.16 0.15 0.14 0.14 0.16 0.19 0.20 0.17 0.21 0.30 0.39 0.43 0.56 0.74 0.97 1.13 1.22 1.29 1.38 1.45 1.45 1.48 1.45 1.31 1.21 1.14 1.09 1.04 0.98 0.96 0.94 0.94 0.90 0.88 0.88 0.88 0.89 0.89 0.85
0.87 1.19 1.53 1.45 1.20 0.61 0.20 0.21 0.20 0.15 0.16 0.17 0.15 0.18 0.20 0.17 0.17 0.17 0.19 0.26 0.35 0.39 0.44 0.54 0.65 0.80 0.93 1.04 1.11 1.19 1.30 1.39 1.34 1.21 1.13 1.09 1.01 0.94 0.94 0.98 0.98 0.99 0.99 0.98 0.97 0.96 0.94 0.98 1.01
0.84 1.02 1.20 0.97 0.58 0.29 0.15 0.17 0.16 0.13 0.18 0.22 0.19 0.19 0.20 0.21 0.19 0.18 0.17 0.20 0.28 0.32 0.38 0.45 0.49 0.55 0.66 0.76 0.84 0.92 1.05 1.20 1.19 1.16 1.04 0.95 0.89 0.90 0.96 1.00 0.96 0.93 0.91 0.91 0.91 0.91 0.89 0.90 0.91
0.77 0.76 0.67 0.83 0.54 0.30 0.17 0.11 0.08 0.09 0.13 0.19 0.18 0.16 0.17 0.21 0.21 0.18 0.16 0.15 0.21 0.26 0.31 0.38 0.43 0.47 0.49 0.57 0.67 0.71 0.75 0.84 0.94 1.03 1.03 0.92 0.84 0.84 0.87 0.89 0.87 0.81 0.77 0.76 0.77 0.76 0.75 0.76 0.76
0.66 0.61 0.79 1.10 0.87 0.47 0.18 0.09 0.10 0.09 0.11 0.16 0.18 0.18 0.19 0.21 0.20 0.17 0.15 0.16 0.19 0.21 0.24 0.30 0.38 0.43 0.43 0.45 0.53 0.58 0.60 0.67 0.74 0.81 0.84 0.80 0.75 0.73 0.73 0.74 0.71 0.69 0.65 0.62 0.61 0.59 0.58 0.59 0.58
0.61 0.76 0.88 0.89 0.66 0.55 0.34 0.19 0.14 0.11 0.10 0.12 0.15 0.17 0.18 0.18 0.18 0.16 0.16 0.18 0.19 0.19 0.21 0.27 0.32 0.39 0.42 0.41 0.44 0.50 0.49 0.53 0.59 0.63 0.66 0.69 0.69 0.65 0.63 0.62 0.60 0.57 0.52 0.48 0.46 0.43 0.43 0.44 0.43
0.48 0.48 0.66 0.94 0.69 0.48 0.40 0.29 0.16 0.13 0.11 0.10 0.12 0.14 0.13 0.13 0.14 0.15 0.15 0.15 0.14 0.16 0.20 0.25 0.28 0.33 0.37 0.36 0.37 0.43 0.44 0.45 0.49 0.51 0.55 0.59 0.63 0.60 0.58 0.57 0.55 0.52 0.48 0.43 0.40 0.39 0.38 0.38 0.37

GEFSSGP_prec_meanprecacc_132.txt.gz
Total_Precipitation_Accumulation
0.13 0.15 0.21 0.30 0.25 0.17 0.07 0.02 0.01 0.01 0.01 0.02 0.03 0.04 0.04 0.03 0.03 0.07 0.05 0.03 0.03 0.03 0.06 0.12 0.15 0.19 0.17 0.13 0.09 0.05 0.05 0.06 0.09 0.12 0.13 0.15 0.14 0.15 0.16 0.18 0.20 0.22 0.23 0.25 0.30 0.30 0.27 0.23 0.20
0.16 0.24 0.40 0.44 0.30 0.19 0.07 0.02 0.01 0.00 0.01 0.02 0.02 0.03 0.04 0.05 0.04 0.06 0.06 0.04 0.05 0.05 0.07 0.11 0.14 0.17 0.18 0.14 0.09 0.06 0.06 0.08 0.11 0.13 0.15 0.18 0.16 0.17 0.18 0.19 0.19 0.18 0.18 0.19 0.20 0.16 0.12 0.08 0.08
0.27 0.40 0.56 0.50 0.34 0.18 0.07 0.02 0.01 0.01 0.01 0.03 0.03 0.04 0.05 0.08 0.07 0.07 0.07 0.07 0.09 0.10 0.11 0.15 0.18 0.18 0.18 0.16 0.12 0.09 0.08 0.09 0.11 0.12 0.14 0.19 0.21 0.19 0.19 0.17 0.15 0.11 0.10 0.10 0.09 0.06 0.04 0.03 0.02
0.46 0.62 0.64 0.52 0.34 0.15 0.06 0.03 0.02 0.02 0.03 0.02 0.04 0.07 0.09 0.10 0.12 0.11 0.11 0.12 0.12 0.14 0.14 0.19 0.23 0.22 0.20 0.18 0.14 0.12 0.11 0.11 0.11 0.10 0.12 0.18 0.24 0.23 0.18 0.13 0.09 0.06 0.05 0.05 0.04 0.02 0.02 0.01 0.01
0.70 0.82 0.68 0.54 0.32 0.13 0.06 0.04 0.03 0.03 0.04 0.04 0.06 0.10 0.13 0.14 0.15 0.20 0.23 0.22 0.20 0.19 0.19 0.23 0.29 0.28 0.25 0.25 0.20 0.15 0.14 0.14 0.13 0.10 0.12 0.17 0.23 0.24 0.17 0.10 0.06 0.03 0.03 0.04 0.03 0.02 0.01 0.01 0.01
0.91 0.94 0.75 0.50 0.27 0.12 0.05 0.05 0.05 0.05 0.06 0.07 0.10 0.15 0.22 0.21 0.23 0.27 0.34 0.33 0.31 0.28 0.29 0.29 0.35 0.35 0.31 0.28 0.27 0.22 0.18 0.16 0.16 0.14 0.15 0.17 0.20 0.21 0.15 0.08 0.05 0.04 0.03 0.03 0.02 0.02 0.01 0.01 0.01
0.91 0.95 0.73 0.38 0.22 0.14 0.07 0.07 0.08 0.08 0.07 0.10 0.13 0.23 0.32 0.34 0.42 0.41 0.45 0.49 0.48 0.43 0.41 0.42 0.39 0.40 0.41 0.33 0.28 0.26 0.22 0.20 0.18 0.16 0.18 0.17 0.17 0.18 0.12 0.07 0.06 0.05 0.04 0.03 0.03 0.03 0.03 0.02 0.02
0.89 1.01 0.72 0.36 0.19 0.16 0.11 0.10 0.12 0.12 0.10 0.10 0.17 0.28 0.36 0.41 0.53 0.62 0.66 0.69 0.70 0.64 0.54 0.51 0.48 0.43 0.43 0.40 0.34 0.27 0.22 0.20 0.19 0.17 0.14 0.12 0.13 0.15 0.11 0.05 0.06 0.05 0.04 0.03 0.03 0.03 0.03 0.02 0.02
0.91 1.01 0.68 0.36 0.21 0.17 0.17 0.19 0.17 0.14 0.17 0.18 0.23 0.28 0.36 0.47 0.67 0.85 0.91 0.91 0.95 0.93 0.77 0.62 0.58 0.50 0.46 0.41 0.37 0.34 0.28 0.23 0.21 0.18 0.13 0.11 0.13 0.12 0.10 0.05 0.04 0.04 0.03 0.02 0.02 0.02 0.02 0.01 0.01
0.91 0.82 0.50 0.30 0.24 0.25 0.23 0.24 0.23 0.22 0.26 0.31 0.38 0.42 0.52 0.69 0.95 1.04 1.02 0.97 0.97 1.03 0.92 0.73 0.63 0.55 0.53 0.45 0.41 0.39 0.34 0.29 0.23 0.17 0.14 0.11 0.11 0.09 0.07 0.06 0.04 0.04 0.03 0.02 0.01 0.01 0.01 0.00 0.00
0.61 0.56 0.42 0.34 0.31 0.31 0.31 0.28 0.27 0.29 0.30 0.31 0.36 0.49 0.70 0.91 1.16 1.22 1.26 1.22 1.16 1.19 1.11 0.90 0.74 0.68 0.61 0.52 0.44 0.41 0.34 0.29 0.26 0.19 0.15 0.12 0.11 0.09 0.08 0.06 0.06 0.04 0.02 0.01 0.01 0.01 0.00 0.00 0.00
0.40 0.38 0.40 0.40 0.35 0.35 0.36 0.35 0.33 0.28 0.27 0.26 0.32 0.48 0.71 0.94 1.15 1.25 1.33 1.38 1.45 1.46 1.43 1.18 0.94 0.80 0.72 0.58 0.45 0.39 0.33 0.26 0.22 0.19 0.15 0.12 0.10 0.09 0.07 0.05 0.04 0.04 0.02 0.01 0.01 0.00 0.00 0.00 0.00
0.32 0.30 0.34 0.41 0.41 0.36 0.34 0.35 0.37 0.29 0.26 0.27 0.37 0.55 0.70 1.00 1.26 1.43 1.54 1.56 1.67 1.71 1.70 1.56 1.26 0.99 0.83 0.71 0.55 0.41 0.34 0.25 0.20 0.18 0.16 0.11 0.09 0.07 0.06 0.04 0.04 0.04 0.02 0.01 0.00 0.00 0.00 0.00 0.00
0.27 0.28 0.35 0.42 0.46 0.38 0.37 0.38 0.39 0.32 0.29 0.36 0.46 0.59 0.69 1.01 1.38 1.56 1.71 1.77 1.74 1.88 1.95 1.89 1.59 1.27 0.99 0.83 0.65 0.48 0.36 0.28 0.23 0.19 0.16 0.13 0.08 0.07 0.07 0.04 0.04 0.04 0.03 0.01 0.00 0.00 0.00 0.00 0.00
0.32 0.40 0.45 0.47 0.50 0.42 0.44 0.51 0.41 0.32 0.29 0.37 0.44 0.56 0.65 0.93 1.30 1.54 1.68 1.75 1.85 1.93 2.06 2.07 1.94 1.64 1.20 0.96 0.80 0.63 0.51 0.37 0.28 0.23 0.18 0.15 0.11 0.07 0.06 0.06 0.04 0.04 0.04 0.03 0.01 0.01 0.01 0.00 0.00
0.54 0.65 0.63 0.46 0.49 0.47 0.53 0.56 0.36 0.31 0.31 0.34 0.39 0.49 0.61 0.78 1.09 1.39 1.66 1.77 1.90 2.02 2.05 2.11 2.06 1.91 1.50 1.12 0.92 0.78 0.69 0.56 0.41 0.35 0.31 0.24 0.18 0.12 0.09 0.06 0.05 0.05 0.04 0.04 0.02 0.01 0.02 0.02 0.02
0.74 0.60 0.50 0.40 0.39 0.48 0.46 0.46 0.35 0.30 0.30 0.28 0.30 0.38 0.56 0.71 0.93 1.15 1.48 1.70 1.77 1.92 2.05 2.21 2.09 1.98 1.75 1.45 1.21 1.03 0.87 0.74 0.62 0.47 0.39 0.37 0.30 0.23 0.17 0.10 0.08 0.07 0.06 0.05 0.04 0.03 0.03 0.02 0.02
0.51 0.33 0.32 0.35 0.35 0.40 0.36 0.30 0.30 0.28 0.27 0.25 0.27 0.31 0.45 0.61 0.72 0.90 1.17 1.51 1.61 1.75 1.94 2.10 2.27 2.16 2.07 1.97 1.73 1.40 1.14 0.91 0.79 0.65 0.53 0.48 0.44 0.38 0.32 0.23 0.16 0.14 0.12 0.08 0.06 0.04 0.03 0.02 0.02
0.38 0.30 0.25 0.21 0.28 0.35 0.30 0.24 0.28 0.27 0.26 0.25 0.26 0.29 0.35 0.45 0.59 0.78 1.01 1.28 1.49 1.60 1.79 1.90 2.06 2.18 2.12 1.96 1.76 1.48 1.21 1.08 1.01 0.88 0.78 0.67 0.58 0.52 0.45 0.36 0.28 0.21 0.17 0.14 0.12 0.11 0.08 0.05 0.05
0.51 0.45 0.30 0.21 0.21 0.29 0.29 0.24 0.25 0.26 0.27 0.22 0.23 0.25 0.29 0.33 0.42 0.59 0.85 1.01 1.19 1.38 1.50 1.70 1.79 1.98 1.94 1.78 1.74 1.64 1.58 1.46 1.33 1.20 0.98 0.84 0.75 0.66 0.55 0.46 0.41 0.33 0.25 0.21 0.20 0.19 0.15 0.11 0.11
0.54 0.45 0.37 0.30 0.25 0.30 0.35 0.31 0.25 0.24 0.23 0.19 0.19 0.19 0.23 0.26 0.29 0.41 0.61 0.80 0.91 1.12 1.36 1.42 1.49 1.72 1.86 1.88 1.99 2.05 1.98 1.70 1.45 1.27 1.16 1.03 0.94 0.85 0.73 0.62 0.56 0.50 0.42 0.33 0.34 0.32 0.29 0.29 0.28
0.56 0.33 0.38 0.40 0.47 0.45 0.35 0.40 0.29 0.23 0.22 0.20 0.19 0.16 0.17 0.23 0.26 0.33 0.41 0.56 0.67 0.82 1.11 1.37 1.46 1.58 1.74 1.98 1.98 1.91 1.78 1.56 1.29 1.26 1.31 1.26 1.14 1.03 0.93 0.84 0.78 0.71 0.63 0.55 0.54 0.55 0.55 0.53 0.47
0.52 0.35 0.42 0.51 0.60 0.56 0.34 0.33 0.28 0.20 0.21 0.21 0.21 0.17 0.19 0.26 0.29 0.29 0.32 0.42 0.52 0.62 0.83 1.08 1.35 1.53 1.66 1.74 1.80 1.85 1.71 1.59 1.52 1.42 1.34 1.24 1.14 1.07 1.01 0.95 0.93 0.89 0.85 0.84 0.83 0.79 0.77 0.73 0.67
0.59 0.60 0.65 0.70 0.88 0.82 0.33 0.29 0.27 0.22 0.24 0.23 0.22 0.21 0.22 0.26 0.28 0.26 0.28 0.37 0.46 0.50 0.62 0.79 1.03 1.22 1.37 1.49 1.57 1.62 1.62 1.66 1.62 1.45 1.36 1.31 1.26 1.20 1.11 1.06 1.04 1.05 1.01 0.98 0.98 0.97 0.96 0.96 0.91
0.88 1.21 1.55 1.47 1.23 0.63 0.22 0.25 0.25 0.20 0.26 0.27 0.24 0.27 0.27 0.23 0.24 0.24 0.27 0.32 0.40 0.46 0.50 0.60 0.72 0.86 1.02 1.17 1.28 1.34 1.44 1.55 1.50 1.36 1.27 1.25 1.20 1.12 1.10 1.11 1.10 1.11 1.10 1.09 1.08 1.06 1.02 1.05 1.07
0.85 1.05 1.23 1.00 0.60 0.31 0.18 0.20 0.21 0.21 0.30 0.32 0.28 0.28 0.27 0.28 0.28 0.26 0.25 0.27 0.34 0.38 0.44 0.52 0.59 0.65 0.76 0.87 0.97 1.09 1.19 1.33 1.33 1.29 1.17 1.09 1.05 1.05 1.12 1.13 1.07 1.04 1.04 1.04 1.03 1.02 0.99 0.98 0.98
0.79 0.79 0.70 0.86 0.56 0.32 0.18 0.13 0.13 0.16 0.21 0.27 0.25 0.24 0.25 0.32 0.32 0.28 0.24 0.22 0.28 0.31 0.36 0.45 0.54 0.58 0.63 0.72 0.83 0.91 0.94 0.99 1.06 1.14 1.14 1.04 0.98 0.99 1.03 1.03 0.99 0.93 0.89 0.90 0.92 0.90 0.89 0.88 0.86
0.67 0.63 0.80 1.12 0.88 0.47 0.19 0.10 0.15 0.16 0.18 0.24 0.26 0.28 0.30 0.35 0.34 0.29 0.25 0.25 0.27 0.28 0.29 0.37 0.50 0.53 0.54 0.59 0.68 0.73 0.78 0.84 0.90 0.94 0.95 0.92 0.88 0.89 0.91 0.91 0.84 0.81 0.78 0.76 0.75 0.73 0.72 0.73 0.71
0.62 0.76 0.89 0.90 0.67 0.56 0.35 0.21 0.20 0.20 0.18 0.20 0.25 0.28 0.30 0.33 0.34 0.32 0.32 0.33 0.32 0.28 0.29 0.35 0.42 0.51 0.55 0.52 0.55 0.62 0.62 0.66 0.74 0.80 0.81 0.82 0.82 0.80 0.79 0.79 0.75 0.70 0.65 0.62 0.59 0.57 0.56 0.57 0.54
0.49 0.49 0.66 0.95 0.70 0.48 0.41 0.31 0.22 0.21 0.19 0.18 0.21 0.25 0.27 0.27 0.29 0.32 0.37 0.36 0.33 0.31 0.32 0.38 0.41 0.47 0.53 0.50 0.48 0.54 0.58 0.59 0.63 0.68 0.75 0.78 0.83 0.78 0.74 0.72 0.70 0.66 0.60 0.56 0.53 0.50 0.49 0.50 0.49

GEFSSGP_prec_meanprecacc_138.txt.gz
Total_Precipitation_Accumulation
0.13 0.15 0.21 0.30 0.25 0.17 0.07 0.02 0.01 0.01 0.01 0.02 0.03 0.04 0.04 0.03 0.03 0.07 0.05 0.03 0.03 0.03 0.07 0.15 0.20 0.24 0.21 0.17 0.14 0.09 0.08 0.09 0.12 0.15 0.15 0.16 0.15 0.16 0.16 0.18 0.21 0.23 0.24 0.26 0.31 0.31 0.28 0.24 0.20
0.16 0.24 0.40 0.44 0.30 0.19 0.07 0.02 0.01 0.00 0.01 0.02 0.02 0.03 0.04 0.05 0.05 0.06 0.07 0.05 0.05 0.06 0.09 0.14 0.20 0.25 0.24 0.19 0.14 0.11 0.11 0.11 0.14 0.17 0.18 0.20 0.17 0.17 0.18 0.20 0.20 0.19 0.18 0.20 0.21 0.17 0.13 0.09 0.08
0.27 0.40 0.56 0.50 0.34 0.18 0.07 0.02 0.01 0.01 0.01 0.03 0.03 0.04 0.05 0.08 0.07 0.07 0.07 0.07 0.09 0.10 0.12 0.18 0.23 0.26 0.27 0.24 0.19 0.16 0.14 0.14 0.15 0.16 0.17 0.22 0.22 0.20 0.19 0.18 0.16 0.12 0.11 0.11 0.09 0.07 0.04 0.03 0.02
0.46 0.62 0.64 0.52 0.34 0.15 0.06 0.03 0.02 0.02 0.03 0.02 0.04 0.07 0.09 0.10 0.12 0.11 0.11 0.13 0.13 0.15 0.16 0.24 0.29 0.29 0.28 0.27 0.22 0.20 0.18 0.17 0.16 0.14 0.15 0.20 0.26 0.25 0.19 0.15 0.11 0.06 0.05 0.06 0.05 0.03 0.02 0.01 0.01
0.70 0.82 0.68 0.54 0.32 0.13 0.06 0.04 0.03 0.03 0.04 0.04 0.06 0.10 0.13 0.14 0.16 0.20 0.23 0.22 0.21 0.21 0.22 0.28 0.36 0.37 0.36 0.36 0.30 0.25 0.22 0.21 0.19 0.15 0.15 0.20 0.25 0.26 0.19 0.12 0.07 0.04 0.04 0.04 0.03 0.02 0.01 0.01 0.01
0.91 0.94 0.75 0.50 0.27 0.12 0.05 0.05 0.05 0.05 0.06 0.07 0.10 0.15 0.22 0.21 0.24 0.27 0.35 0.34 0.32 0.30 0.32 0.35 0.44 0.47 0.46 0.45 0.39 0.33 0.29 0.25 0.24 0.20 0.21 0.22 0.23 0.24 0.18 0.10 0.07 0.06 0.04 0.03 0.03 0.02 0.02 0.01 0.01
0.91 0.95 0.73 0.38 0.22 0.15 0.07 0.07 0.08 0.08 0.07 0.10 0.13 0.23 0.32 0.35 0.43 0.42 0.46 0.51 0.51 0.46 0.45 0.48 0.49 0.52 0.57 0.53 0.46 0.40 0.34 0.31 0.28 0.25 0.25 0.22 0.21 0.21 0.16 0.10 0.08 0.07 0.06 0.04 0.03 0.03 0.03 0.02 0.02
0.89 1.01 0.72 0.36 0.19 0.16 0.11 0.11 0.12 0.12 0.11 0.10 0.18 0.29 0.36 0.42 0.55 0.64 0.68 0.72 0.73 0.69 0.60 0.58 0.58 0.54 0.59 0.60 0.52 0.43 0.35 0.32 0.31 0.28 0.23 0.18 0.17 0.18 0.15 0.09 0.09 0.08 0.06 0.04 0.03 0.03 0.03 0.03 0.02
0.91 1.01 0.68 0.36 0.21 0.17 0.17 0.20 0.17 0.14 0.18 0.19 0.25 0.30 0.37 0.49 0.71 0.89 0.96 0.95 0.99 0.98 0.83 0.69 0.67 0.61 0.58 0.59 0.55 0.50 0.42 0.37 0.32 0.29 0.22 0.18 0.18 0.16 0.13 0.09 0.07 0.08 0.06 0.04 0.03 0.03 0.02 0.02 0.01
0.91 0.82 0.50 0.30 0.24 0.25 0.24 0.25 0.24 0.25 0.29 0.33 0.39 0.43 0.53 0.72 0.99 1.09 1.08 1.04 1.04 1.09 1.00 0.81 0.73 0.67 0.64 0.59 0.60 0.57 0.49 0.44 0.36 0.29 0.26 0.21 0.18 0.15 0.12 0.10 0.07 0.06 0.05 0.03 0.02 0.02 0.02 0.01 0.00
0.61 0.56 0.42 0.35 0.31 0.32 0.32 0.29 0.27 0.32 0.34 0.33 0.38 0.50 0.73 0.95 1.22 1.28 1.33 1.30 1.27 1.29 1.22 1.01 0.85 0.79 0.72 0.63 0.60 0.59 0.49 0.44 0.39 0.31 0.27 0.22 0.19 0.15 0.13 0.11 0.10 0.07 0.04 0.03 0.02 0.02 0.01 0.01 0.00
0.41 0.38 0.40 0.41 0.35 0.35 0.36 0.36 0.34 0.31 0.31 0.29 0.35 0.50 0.75 1.01 1.22 1.31 1.42 1.48 1.55 1.56 1.54 1.30 1.07 0.92 0.83 0.70 0.59 0.53 0.47 0.40 0.34 0.28 0.25 0.22 0.19 0.15 0.11 0.08 0.07 0.07 0.05 0.03 0.02 0.01 0.01 0.00 0.00
0.33 0.30 0.34 0.42 0.41 0.37 0.35 0.36 0.39 0.31 0.30 0.32 0.40 0.57 0.76 1.08 1.33 1.49 1.62 1.65 1.76 1.81 1.81 1.70 1.40 1.13 0.95 0.84 0.72 0.56 0.44 0.36 0.31 0.27 0.23 0.18 0.15 0.12 0.11 0.09 0.08 0.07 0.05 0.04 0.02 0.01 0.01 0.00 0.00
0.28 0.28 0.36 0.43 0.47 0.39 0.38 0.39 0.40 0.35 0.32 0.40 0.48 0.61 0.75 1.08 1.44 1.61 1.80 1.89 1.82 1.97 2.08 2.06 1.75 1.40 1.11 0.95 0.83 0.65 0.47 0.37 0.34 0.31 0.24 0.19 0.14 0.11 0.10 0.09 0.08 0.07 0.06 0.04 0.03 0.02 0.01 0.01 0.00
0.32 0.41 0.46 0.48 0.51 0.43 0.45 0.53 0.44 0.36 0.33 0.40 0.47 0.60 0.72 1.00 1.36 1.60 1.77 1.88 1.95 2.02 2.20 2.28 2.14 1.79 1.32 1.08 0.95 0.80 0.62 0.47 0.38 0.33 0.28 0.23 0.17 0.11 0.09 0.09 0.08 0.07 0.07 0.05 0.04 0.03 0.03 0.01 0.01
0.54 0.66 0.64 0.47 0.50 0.48 0.55 0.58 0.41 0.37 0.35 0.37 0.42 0.55 0.69 0.87 1.17 1.45 1.73 1.83 1.97 2.09 2.17 2.30 2.30 2.10 1.64 1.24 1.05 0.91 0.79 0.66 0.52 0.45 0.41 0.33 0.25 0.17 0.13 0.10 0.08 0.08 0.08 0.07 0.05 0.04 0.05 0.03 0.03
0.74 0.62 0.51 0.40 0.40 0.49 0.48 0.50 0.41 0.36 0.34 0.33 0.35 0.45 0.65 0.80 0.99 1.19 1.52 1.74 1.82 1.99 2.15 2.38 2.33 2.17 1.93 1.61 1.33 1.15 0.96 0.83 0.73 0.58 0.48 0.48 0.39 0.31 0.24 0.15 0.12 0.11 0.10 0.08 0.08 0.06 0.06 0.05 0.03
0.52 0.34 0.32 0.36 0.37 0.41 0.37 0.32 0.34 0.36 0.37 0.33 0.34 0.39 0.54 0.72 0.79 0.94 1.22 1.56 1.68 1.85 2.05 2.24 2.47 2.37 2.30 2.20 1.89 1.53 1.25 1.00 0.90 0.77 0.62 0.58 0.54 0.46 0.40 0.30 0.22 0.20 0.18 0.13 0.11 0.09 0.08 0.06 0.05
0.38 0.31 0.25 0.22 0.29 0.35 0.31 0.25 0.29 0.29 0.34 0.33 0.34 0.36 0.41 0.53 0.65 0.83 1.07 1.36 1.58 1.69 1.88 2.01 2.18 2.34 2.33 2.24 1.97 1.63 1.33 1.19 1.12 1.02 0.90 0.78 0.69 0.62 0.54 0.46 0.35 0.27 0.23 0.20 0.19 0.18 0.14 0.11 0.09
0.52 0.45 0.31 0.22 0.22 0.30 0.29 0.25 0.27 0.28 0.31 0.29 0.31 0.33 0.35 0.39 0.48 0.64 0.93 1.11 1.28 1.46 1.57 1.78 1.87 2.06 2.07 2.01 2.01 1.83 1.70 1.55 1.42 1.30 1.11 0.97 0.87 0.76 0.64 0.55 0.50 0.40 0.32 0.28 0.28 0.28 0.24 0.19 0.18
0.55 0.46 0.37 0.31 0.26 0.30 0.36 0.33 0.27 0.26 0.26 0.23 0.23 0.24 0.28 0.32 0.36 0.49 0.70 0.91 1.00 1.19 1.44 1.53 1.59 1.80 1.96 2.03 2.20 2.26 2.16 1.84 1.57 1.38 1.27 1.15 1.07 0.96 0.83 0.70 0.65 0.60 0.49 0.40 0.41 0.41 0.39 0.38 0.36
0.57 0.34 0.39 0.41 0.49 0.46 0.35 0.41 0.31 0.25 0.23 0.22 0.21 0.19 0.21 0.27 0.32 0.39 0.47 0.63 0.76 0.89 1.18 1.47 1.58 1.69 1.85 2.11 2.15 2.11 1.94 1.68 1.40 1.36 1.41 1.37 1.26 1.14 1.01 0.92 0.84 0.78 0.71 0.61 0.60 0.62 0.64 0.64 0.57
0.52 0.36 0.42 0.51 0.61 0.57 0.35 0.34 0.30 0.21 0.22 0.23 0.23 0.20 0.24 0.31 0.34 0.35 0.37 0.47 0.60 0.70 0.91 1.17 1.43 1.64 1.80 1.90 1.96 2.05 1.89 1.70 1.62 1.52 1.44 1.36 1.26 1.18 1.10 1.04 1.01 0.96 0.92 0.90 0.90 0.85 0.84 0.82 0.77
0.60 0.61 0.66 0.71 0.89 0.83 0.33 0.30 0.29 0.23 0.25 0.26 0.25 0.24 0.27 0.31 0.34 0.31 0.32 0.41 0.52 0.58 0.70 0.86 1.10 1.29 1.47 1.64 1.75 1.82 1.83 1.82 1.76 1.58 1.47 1.44 1.39 1.32 1.20 1.15 1.13 1.13 1.09 1.06 1.06 1.04 1.04 1.04 1.00
0.89 1.23 1.57 1.48 1.23 0.63 0.22 0.26 0.26 0.21 0.28 0.31 0.29 0.31 0.32 0.29 0.29 0.29 0.31 0.37 0.46 0.53 0.58 0.67 0.80 0.93 1.09 1.26 1.41 1.49 1.59 1.70 1.63 1.49 1.38 1.38 1.33 1.26 1.22 1.19 1.17 1.19 1.18 1.17 1.17 1.15 1.11 1.14 1.16
0.87 1.06 1.24 1.01 0.61 0.32 0.19 0.21 0.22 0.23 0.32 0.35 0.33 0.32 0.30 0.33 0.33 0.31 0.30 0.33 0.40 0.45 0.52 0.58 0.65 0.71 0.83 0.95 1.07 1.20 1.33 1.48 1.49 1.42 1.28 1.19 1.16 1.15 1.21 1.21 1.14 1.09 1.10 1.12 1.11 1.11 1.06 1.06 1.07
0.80 0.80 0.71 0.88 0.57 0.32 0.19 0.14 0.14 0.17 0.22 0.29 0.30 0.27 0.27 0.36 0.37 0.33 0.30 0.29 0.35 0.39 0.43 0.51 0.59 0.64 0.70 0.81 0.93 1.01 1.06 1.15 1.24 1.30 1.29 1.17 1.09 1.09 1.10 1.10 1.05 0.98 0.94 0.96 0.99 0.97 0.96 0.95 0.94
0.68 0.63 0.81 1.13 0.89 0.48 0.19 0.11 0.17 0.18 0.20 0.26 0.29 0.31 0.34 0.39 0.38 0.34 0.33 0.34 0.36 0.36 0.36 0.45 0.59 0.61 0.61 0.66 0.76 0.83 0.89 0.99 1.07 1.11 1.12 1.08 1.01 1.00 1.00 0.98 0.91 0.88 0.84 0.81 0.82 0.82 0.80 0.81 0.79
0.62 0.77 0.90 0.91 0.68 0.57 0.36 0.23 0.22 0.23 0.21 0.24 0.29 0.32 0.35 0.39 0.39 0.38 0.41 0.44 0.44 0.38 0.38 0.44 0.51 0.61 0.64 0.62 0.66 0.71 0.70 0.75 0.87 0.96 0.96 0.97 0.95 0.92 0.91 0.88 0.83 0.79 0.74 0.70 0.67 0.64 0.65 0.67 0.65
0.49 0.49 0.67 0.96 0.71 0.49 0.42 0.33 0.24 0.24 0.21 0.21 0.26 0.30 0.32 0.33 0.35 0.39 0.46 0.46 0.45 0.42 0.43 0.47 0.49 0.55 0.63 0.63 0.61 0.66 0.67 0.66 0.71 0.80 0.89 0.92 0.96 0.90 0.87 0.83 0.80 0.75 0.69 0.65 0.63 0.60 0.59 0.59 0.59

GEFSSGP_prec_meanprecacc_144.txt.gz
Total_Precipitation_Accumulation
0.13 0.15 0.21 0.30 0.25 0.17 0.07 0.02 0.01 0.01 0.01 0.02 0.03 0.04 0.04 0.03 0.03 0.08 0.05 0.04 0.04 0.05 0.07 0.15 0.22 0.26 0.24 0.22 0.19 0.14 0.12 0.12 0.15 0.18 0.17 0.18 0.16 0.16 0.17 0.19 0.22 0.24 0.26 0.27 0.32 0.32 0.30 0.26 0.22
0.16 0.24 0.40 0.44 0.30 0.19 0.07 0.02 0.01 0.00 0.01 0.02 0.02 0.03 0.04 0.05 0.05 0.06 0.07 0.05 0.05 0.07 0.10 0.15 0.21 0.27 0.28 0.24 0.20 0.18 0.19 0.17 0.19 0.22 0.21 0.22 0.20 0.19 0.20 0.21 0.21 0.21 0.21 0.22 0.22 0.18 0.14 0.10 0.09
0.27 0.40 0.56 0.50 0.34 0.18 0.07 0.02 0.01 0.01 0.01 0.03 0.03 0.04 0.05 0.08 0.07 0.07 0.07 0.07 0.09 0.11 0.14 0.20 0.26 0.29 0.31 0.30 0.27 0.24 0.23 0.23 0.24 0.24 0.24 0.27 0.26 0.23 0.21 0.20 0.18 0.15 0.13 0.12 0.11 0.08 0.05 0.03 0.03
0.46 0.62 0.64 0.52 0.34 0.15 0.06 0.03 0.02 0.02 0.03 0.02 0.04 0.07 0.09 0.10 0.12 0.11 0.11 0.13 0.14 0.17 0.18 0.26 0.31 0.33 0.33 0.32 0.29 0.28 0.27 0.27 0.26 0.22 0.22 0.27 0.31 0.29 0.22 0.18 0.14 0.10 0.08 0.07 0.06 0.04 0.03 0.02 0.01
0.70 0.82 0.68 0.54 0.32 0.13 0.06 0.04 0.03 0.03 0.04 0.04 0.06 0.10 0.13 0.14 0.16 0.20 0.23 0.23 0.22 0.23 0.25 0.32 0.40 0.42 0.42 0.41 0.37 0.32 0.30 0.29 0.28 0.23 0.22 0.26 0.31 0.31 0.23 0.16 0.10 0.06 0.05 0.05 0.04 0.02 0.02 0.02 0.02
0.91 0.94 0.75 0.50 0.27 0.12 0.05 0.05 0.05 0.05 0.06 0.07 0.10 0.15 0.22 0.21 0.24 0.27 0.35 0.35 0.34 0.33 0.35 0.40 0.49 0.53 0.52 0.51 0.45 0.40 0.37 0.34 0.32 0.28 0.30 0.30 0.30 0.31 0.23 0.15 0.11 0.09 0.06 0.05 0.03 0.02 0.02 0.01 0.02
0.91 0.95 0.73 0.38 0.22 0.15 0.07 0.07 0.08 0.08 0.07 0.10 0.13 0.23 0.32 0.35 0.43 0.42 0.47 0.53 0.54 0.50 0.50 0.55 0.58 0.60 0.64 0.59 0.52 0.47 0.43 0.41 0.37 0.34 0.36 0.34 0.31 0.29 0.21 0.14 0.12 0.11 0.09 0.07 0.05 0.04 0.04 0.03 0.02
0.89 1.01 0.72 0.36 0.19 0.16 0.11 0.11 0.12 0.12 0.11 0.10 0.18 0.29 0.36 0.42 0.55 0.64 0.69 0.74 0.76 0.73 0.66 0.66 0.66 0.64 0.70 0.70 0.59 0.50 0.44 0.41 0.40 0.38 0.34 0.29 0.27 0.27 0.22 0.13 0.13 0.12 0.10 0.07 0.06 0.05 0.04 0.04 0.02
0.91 1.01 0.68 0.36 0.21 0.17 0.18 0.20 0.17 0.14 0.18 0.20 0.25 0.30 0.37 0.49 0.71 0.90 0.97 0.97 1.03 1.02 0.90 0.78 0.77 0.71 0.70 0.73 0.64 0.57 0.51 0.47 0.42 0.38 0.31 0.26 0.28 0.26 0.20 0.12 0.09 0.11 0.09 0.06 0.06 0.06 0.05 0.03 0.02
0.91 0.82 0.50 0.30 0.24 0.25 0.24 0.25 0.24 0.25 0.29 0.34 0.40 0.43 0.54 0.73 1.00 1.12 1.12 1.11 1.16 1.19 1.10 0.92 0.82 0.77 0.77 0.74 0.73 0.68 0.60 0.53 0.46 0.38 0.36 0.30 0.29 0.27 0.21 0.15 0.09 0.08 0.07 0.06 0.05 0.05 0.04 0.02 0.01
0.62 0.56 0.42 0.35 0.31 0.32 0.32 0.29 0.28 0.32 0.35 0.36 0.41 0.54 0.75 0.98 1.26 1.33 1.39 1.39 1.37 1.37 1.32 1.12 0.94 0.88 0.82 0.75 0.72 0.71 0.61 0.55 0.49 0.42 0.37 0.32 0.31 0.27 0.26 0.21 0.15 0.11 0.07 0.05 0.04 0.04 0.03 0.02 0.02
0.41 0.38 0.40 0.41 0.35 0.35 0.36 0.36 0.35 0.32 0.33 0.34 0.40 0.54 0.79 1.07 1.27 1.36 1.49 1.57 1.63 1.62 1.60 1.38 1.15 1.01 0.93 0.80 0.70 0.65 0.60 0.54 0.47 0.40 0.38 0.34 0.31 0.26 0.22 0.18 0.14 0.12 0.08 0.06 0.04 0.03 0.02 0.02 0.02
0.33 0.30 0.34 0.42 0.41 0.37 0.35 0.36 0.40 0.32 0.32 0.36 0.43 0.60 0.82 1.13 1.35 1.52 1.67 1.71 1.82 1.88 1.87 1.75 1.46 1.22 1.06 0.94 0.84 0.68 0.57 0.48 0.44 0.40 0.36 0.30 0.25 0.21 0.20 0.16 0.15 0.13 0.09 0.06 0.05 0.04 0.03 0.02 0.02
0.28 0.29 0.36 0.43 0.48 0.39 0.38 0.39 0.40 0.35 0.32 0.41 0.50 0.64 0.79 1.11 1.47 1.65 1.84 1.92 1.88 2.03 2.14 2.11 1.81 1.49 1.22 1.06 0.94 0.79 0.60 0.50 0.47 0.44 0.36 0.28 0.23 0.19 0.18 0.16 0.14 0.12 0.10 0.08 0.06 0.05 0.04 0.03 0.02
0.32 0.41 0.46 0.48 0.52 0.44 0.45 0.53 0.44 0.37 0.33 0.41 0.48 0.61 0.75 1.04 1.40 1.65 1.82 1.92 2.01 2.12 2.29 2.34 2.19 1.89 1.45 1.21 1.07 0.94 0.78 0.60 0.51 0.47 0.41 0.32 0.25 0.19 0.16 0.17 0.14 0.11 0.11 0.10 0.09 0.08 0.07 0.05 0.04
0.54 0.67 0.65 0.47 0.50 0.49 0.55 0.59 0.41 0.37 0.36 0.38 0.44 0.56 0.72 0.90 1.21 1.50 1.78 1.88 2.01 2.17 2.28 2.36 2.35 2.19 1.79 1.39 1.21 1.06 0.96 0.81 0.64 0.58 0.54 0.44 0.33 0.26 0.21 0.16 0.14 0.12 0.13 0.12 0.09 0.09 0.10 0.08 0.06
0.76 0.63 0.51 0.41 0.40 0.49 0.48 0.50 0.41 0.36 0.35 0.34 0.37 0.47 0.68 0.83 1.03 1.24 1.56 1.78 1.86 2.04 2.21 2.44 2.39 2.27 2.07 1.77 1.50 1.33 1.14 1.00 0.86 0.71 0.62 0.58 0.50 0.42 0.33 0.22 0.17 0.17 0.16 0.14 0.13 0.11 0.11 0.09 0.07
0.53 0.35 0.32 0.36 0.37 0.41 0.38 0.32 0.35 0.38 0.38 0.35 0.38 0.44 0.59 0.77 0.83 0.99 1.27 1.61 1.72 1.88 2.09 2.28 2.53 2.47 2.43 2.34 2.02 1.68 1.44 1.19 1.06 0.91 0.76 0.67 0.62 0.56 0.50 0.39 0.30 0.27 0.25 0.20 0.16 0.14 0.13 0.12 0.11
0.39 0.31 0.26 0.23 0.29 0.36 0.32 0.26 0.30 0.32 0.37 0.36 0.37 0.42 0.45 0.59 0.71 0.87 1.12 1.42 1.63 1.74 1.93 2.06 2.28 2.45 2.47 2.39 2.11 1.75 1.48 1.36 1.30 1.18 1.05 0.87 0.76 0.69 0.63 0.57 0.45 0.36 0.31 0.27 0.25 0.23 0.20 0.17 0.18
0.53 0.46 0.32 0.23 0.22 0.31 0.30 0.26 0.28 0.31 0.36 0.34 0.35 0.37 0.39 0.45 0.54 0.69 0.97 1.17 1.35 1.51 1.61 1.84 1.94 2.19 2.23 2.16 2.15 1.97 1.85 1.69 1.56 1.47 1.27 1.09 0.98 0.86 0.74 0.67 0.63 0.50 0.41 0.37 0.36 0.35 0.31 0.26 0.25
0.56 0.46 0.38 0.31 0.26 0.31 0.36 0.33 0.28 0.29 0.30 0.27 0.27 0.28 0.34 0.39 0.44 0.56 0.77 0.97 1.08 1.24 1.48 1.58 1.65 1.90 2.11 2.19 2.34 2.41 2.33 2.01 1.70 1.52 1.41 1.27 1.17 1.06 0.93 0.81 0.78 0.74 0.60 0.50 0.51 0.51 0.48 0.47 0.46
0.58 0.35 0.40 0.42 0.49 0.46 0.35 0.42 0.31 0.25 0.25 0.25 0.25 0.22 0.25 0.34 0.39 0.46 0.53 0.69 0.82 0.94 1.23 1.54 1.64 1.78 1.98 2.26 2.30 2.23 2.07 1.83 1.53 1.47 1.51 1.47 1.35 1.23 1.10 1.01 0.94 0.90 0.82 0.71 0.69 0.70 0.73 0.74 0.68
0.53 0.37 0.43 0.52 0.62 0.57 0.35 0.35 0.30 0.21 0.23 0.24 0.26 0.23 0.27 0.36 0.41 0.42 0.43 0.53 0.65 0.76 0.96 1.23 1.50 1.74 1.92 2.04 2.11 2.16 2.01 1.82 1.74 1.61 1.52 1.43 1.35 1.29 1.21 1.14 1.10 1.04 1.00 0.98 0.99 0.94 0.92 0.91 0.88
0.60 0.62 0.67 0.71 0.90 0.84 0.34 0.31 0.29 0.24 0.27 0.28 0.27 0.27 0.31 0.36 0.39 0.36 0.37 0.46 0.57 0.64 0.75 0.91 1.16 1.37 1.57 1.76 1.87 1.94 1.93 1.93 1.88 1.68 1.53 1.51 1.47 1.41 1.31 1.26 1.24 1.22 1.17 1.13 1.13 1.13 1.14 1.13 1.09
0.90 1.24 1.60 1.50 1.24 0.64 0.22 0.26 0.26 0.22 0.29 0.33 0.32 0.34 0.35 0.34 0.35 0.34 0.36 0.41 0.51 0.58 0.64 0.73 0.85 0.99 1.16 1.34 1.49 1.59 1.71 1.80 1.74 1.61 1.46 1.44 1.40 1.33 1.29 1.28 1.29 1.30 1.25 1.23 1.24 1.23 1.20 1.23 1.25
0.88 1.07 1.27 1.03 0.62 0.32 0.19 0.22 0.22 0.23 0.32 0.36 0.35 0.35 0.33 0.36 0.38 0.36 0.35 0.38 0.45 0.50 0.58 0.65 0.71 0.78 0.90 1.01 1.13 1.27 1.42 1.61 1.62 1.56 1.40 1.28 1.24 1.21 1.27 1.26 1.21 1.19 1.19 1.18 1.17 1.18 1.13 1.14 1.15
0.81 0.81 0.72 0.88 0.58 0.33 0.19 0.14 0.14 0.17 0.23 0.30 0.31 0.29 0.29 0.37 0.39 0.36 0.35 0.35 0.41 0.45 0.50 0.58 0.67 0.72 0.78 0.89 1.00 1.08 1.13 1.23 1.33 1.40 1.41 1.28 1.20 1.18 1.18 1.16 1.12 1.05 1.02 1.04 1.06 1.04 1.03 1.03 1.02
0.68 0.64 0.82 1.15 0.90 0.49 0.19 0.11 0.17 0.19 0.20 0.27 0.30 0.32 0.35 0.39 0.39 0.35 0.36 0.40 0.43 0.43 0.44 0.52 0.67 0.69 0.68 0.75 0.84 0.91 0.96 1.06 1.14 1.17 1.20 1.18 1.12 1.12 1.10 1.07 0.99 0.96 0.91 0.88 0.89 0.88 0.86 0.88 0.87
0.63 0.78 0.92 0.92 0.69 0.59 0.37 0.23 0.23 0.23 0.21 0.25 0.30 0.33 0.36 0.40 0.40 0.39 0.43 0.49 0.51 0.45 0.46 0.52 0.58 0.67 0.69 0.68 0.74 0.78 0.76 0.82 0.94 1.04 1.04 1.05 1.04 1.01 1.00 0.98 0.92 0.86 0.82 0.78 0.74 0.70 0.71 0.74 0.73
0.50 0.50 0.68 0.98 0.72 0.50 0.44 0.34 0.24 0.24 0.21 0.22 0.27 0.31 0.33 0.35 0.36 0.42 0.49 0.51 0.51 0.51 0.53 0.55 0.56 0.61 0.68 0.67 0.67 0.71 0.72 0.71 0.78 0.88 0.97 1.00 1.05 1.00 0.96 0.92 0.89 0.83 0.76 0.73 0.72 0.68 0.65 0.65 0.66

GEFSSGP_prec_meanprecacc_150.txt.gz
Total_Precipitation_Accumulation
0.13 0.15 0.21 0.30 0.25 0.17 0.07 0.02 0.01 0.01 0.01 0.02 0.03 0.04 0.04 0.03 0.03 0.08 0.05 0.04 0.05 0.06 0.09 0.18 0.24 0.29 0.26 0.25 0.23 0.18 0.14 0.14 0.16 0.19 0.18 0.19 0.17 0.17 0.17 0.19 0.22 0.25 0.26 0.27 0.32 0.33 0.32 0.29 0.23
0.16 0.24 0.40 0.44 0.30 0.19 0.07 0.02 0.01 0.00 0.01 0.02 0.02 0.03 0.04 0.05 0.05 0.06 0.07 0.05 0.06 0.08 0.12 0.18 0.25 0.30 0.31 0.28 0.24 0.22 0.23 0.21 0.21 0.23 0.23 0.24 0.22 0.21 0.21 0.21 0.21 0.22 0.22 0.22 0.23 0.19 0.16 0.11 0.09
0.27 0.40 0.56 0.50 0.34 0.18 0.07 0.02 0.01 0.01 0.01 0.03 0.03 0.04 0.05 0.08 0.07 0.07 0.08 0.08 0.10 0.13 0.16 0.23 0.30 0.33 0.34 0.33 0.30 0.28 0.28 0.28 0.28 0.28 0.27 0.30 0.29 0.25 0.24 0.21 0.19 0.17 0.15 0.14 0.12 0.10 0.06 0.04 0.03
0.46 0.62 0.64 0.52 0.34 0.15 0.06 0.03 0.02 0.02 0.03 0.02 0.04 0.07 0.09 0.10 0.12 0.11 0.11 0.13 0.15 0.18 0.21 0.30 0.36 0.38 0.36 0.36 0.33 0.31 0.31 0.31 0.32 0.28 0.27 0.31 0.35 0.32 0.26 0.21 0.16 0.12 0.10 0.09 0.07 0.04 0.03 0.02 0.02
0.70 0.82 0.68 0.54 0.32 0.13 0.06 0.04 0.03 0.03 0.04 0.04 0.06 0.10 0.13 0.14 0.16 0.20 0.23 0.23 0.23 0.24 0.26 0.35 0.45 0.49 0.47 0.46 0.42 0.37 0.34 0.33 0.34 0.29 0.28 0.32 0.35 0.35 0.27 0.19 0.13 0.08 0.07 0.07 0.05 0.03 0.02 0.02 0.03
0.91 0.94 0.75 0.50 0.27 0.12 0.05 0.05 0.05 0.05 0.06 0.07 0.10 0.15 0.22 0.21 0.24 0.27 0.35 0.36 0.35 0.34 0.37 0.43 0.55 0.61 0.60 0.58 0.52 0.46 0.43 0.39 0.38 0.35 0.36 0.36 0.36 0.35 0.27 0.17 0.12 0.11 0.09 0.07 0.05 0.03 0.03 0.02 0.02
0.91 0.95 0.73 0.38 0.22 0.15 0.07 0.07 0.08 0.08 0.07 0.10 0.13 0.23 0.32 0.35 0.43 0.42 0.47 0.53 0.54 0.51 0.52 0.58 0.63 0.68 0.72 0.66 0.59 0.53 0.50 0.48 0.43 0.41 0.43 0.41 0.39 0.35 0.25 0.16 0.13 0.12 0.11 0.09 0.07 0.05 0.04 0.04 0.03
0.89 1.01 0.72 0.36 0.19 0.16 0.11 0.11 0.12 0.12 0.11 0.10 0.18 0.29 0.36 0.42 0.55 0.65 0.69 0.74 0.76 0.74 0.68 0.68 0.70 0.71 0.79 0.77 0.66 0.57 0.50 0.47 0.47 0.45 0.41 0.35 0.34 0.34 0.26 0.16 0.14 0.14 0.12 0.09 0.08 0.06 0.06 0.04 0.03
0.91 1.01 0.68 0.36 0.21 0.17 0.18 0.20 0.17 0.14 0.18 0.20 0.25 0.31 0.37 0.49 0.71 0.90 0.97 0.97 1.03 1.03 0.91 0.81 0.81 0.77 0.79 0.83 0.73 0.66 0.58 0.53 0.48 0.45 0.37 0.32 0.34 0.32 0.26 0.15 0.10 0.12 0.11 0.08 0.08 0.06 0.05 0.04 0.02
0.91 0.82 0.50 0.30 0.24 0.25 0.24 0.25 0.24 0.25 0.29 0.34 0.40 0.44 0.54 0.73 1.01 1.12 1.12 1.11 1.16 1.19 1.10 0.95 0.88 0.85 0.88 0.85 0.83 0.77 0.67 0.60 0.52 0.44 0.42 0.37 0.35 0.33 0.27 0.19 0.10 0.09 0.09 0.08 0.07 0.06 0.05 0.03 0.01
0.62 0.56 0.42 0.35 0.31 0.32 0.32 0.29 0.28 0.32 0.35 0.36 0.41 0.54 0.75 0.98 1.27 1.33 1.39 1.39 1.37 1.38 1.34 1.17 1.01 0.96 0.92 0.87 0.83 0.81 0.69 0.63 0.56 0.48 0.43 0.39 0.38 0.34 0.33 0.26 0.18 0.13 0.09 0.07 0.06 0.05 0.04 0.02 0.02
0.41 0.38 0.40 0.41 0.35 0.35 0.36 0.36 0.35 0.32 0.33 0.34 0.40 0.54 0.79 1.07 1.27 1.36 1.49 1.57 1.64 1.65 1.63 1.44 1.23 1.08 1.01 0.90 0.78 0.74 0.69 0.62 0.54 0.48 0.47 0.43 0.38 0.33 0.28 0.23 0.17 0.15 0.10 0.07 0.05 0.03 0.03 0.02 0.02
0.33 0.30 0.34 0.42 0.41 0.37 0.35 0.36 0.40 0.32 0.32 0.36 0.43 0.60 0.83 1.13 1.37 1.53 1.68 1.72 1.85 1.92 1.91 1.81 1.54 1.28 1.12 1.02 0.90 0.74 0.64 0.56 0.53 0.49 0.47 0.42 0.34 0.29 0.27 0.23 0.20 0.16 0.11 0.08 0.06 0.04 0.03 0.03 0.03
0.28 0.29 0.36 0.43 0.48 0.39 0.38 0.39 0.40 0.35 0.32 0.42 0.50 0.64 0.79 1.12 1.49 1.67 1.86 1.95 1.91 2.07 2.18 2.18 1.88 1.54 1.26 1.11 0.99 0.84 0.66 0.58 0.56 0.54 0.47 0.42 0.35 0.28 0.25 0.22 0.19 0.16 0.14 0.11 0.08 0.06 0.05 0.04 0.04
0.32 0.41 0.46 0.48 0.52 0.44 0.45 0.53 0.44 0.37 0.33 0.41 0.48 0.61 0.76 1.05 1.42 1.67 1.83 1.94 2.05 2.15 2.33 2.40 2.25 1.93 1.50 1.25 1.11 0.98 0.83 0.68 0.60 0.55 0.52 0.49 0.42 0.33 0.28 0.24 0.20 0.16 0.16 0.15 0.13 0.11 0.09 0.07 0.05
0.55 0.68 0.65 0.47 0.50 0.49 0.55 0.59 0.41 0.37 0.36 0.38 0.44 0.57 0.72 0.90 1.22 1.50 1.78 1.89 2.04 2.19 2.31 2.41 2.39 2.22 1.84 1.42 1.24 1.10 1.01 0.89 0.74 0.66 0.64 0.59 0.51 0.44 0.37 0.27 0.20 0.18 0.20 0.20 0.15 0.13 0.13 0.10 0.08
0.77 0.63 0.52 0.41 0.40 0.49 0.48 0.50 0.41 0.36 0.35 0.34 0.37 0.47 0.69 0.84 1.03 1.25 1.57 1.79 1.87 2.05 2.24 2.47 2.42 2.30 2.10 1.80 1.54 1.36 1.19 1.08 0.96 0.81 0.72 0.74 0.70 0.62 0.53 0.36 0.27 0.25 0.24 0.21 0.19 0.15 0.15 0.13 0.10
0.55 0.35 0.33 0.36 0.37 0.41 0.38 0.33 0.35 0.38 0.39 0.36 0.39 0.44 0.59 0.78 0.84 1.00 1.28 1.63 1.74 1.90 2.11 2.31 2.56 2.49 2.46 2.38 2.06 1.72 1.50 1.28 1.16 1.00 0.84 0.82 0.81 0.76 0.70 0.57 0.44 0.39 0.34 0.28 0.24 0.20 0.18 0.16 0.15
0.41 0.33 0.27 0.24 0.29 0.36 0.32 0.26 0.30 0.32 0.37 0.36 0.38 0.42 0.46 0.60 0.72 0.88 1.13 1.45 1.65 1.75 1.95 2.08 2.30 2.48 2.51 2.43 2.14 1.78 1.54 1.45 1.40 1.27 1.14 1.02 0.95 0.87 0.80 0.71 0.60 0.50 0.43 0.36 0.33 0.30 0.26 0.22 0.23
0.55 0.48 0.34 0.24 0.23 0.31 0.30 0.26 0.28 0.31 0.36 0.35 0.36 0.38 0.41 0.47 0.55 0.70 0.99 1.19 1.37 1.54 1.67 1.90 1.97 2.23 2.28 2.20 2.17 2.00 1.89 1.76 1.66 1.57 1.38 1.24 1.15 1.02 0.90 0.80 0.75 0.62 0.52 0.48 0.46 0.43 0.37 0.31 0.30
0.61 0.49 0.40 0.33 0.27 0.31 0.36 0.34 0.28 0.29 0.30 0.28 0.28 0.29 0.36 0.41 0.44 0.57 0.78 0.99 1.10 1.27 1.53 1.63 1.70 1.94 2.15 2.23 2.37 2.44 2.38 2.08 1.80 1.63 1.57 1.44 1.35 1.22 1.06 0.93 0.89 0.84 0.71 0.60 0.60 0.59 0.56 0.54 0.52
0.63 0.37 0.41 0.43 0.51 0.47 0.36 0.44 0.32 0.25 0.25 0.25 0.27 0.25 0.29 0.36 0.40 0.47 0.54 0.71 0.84 0.96 1.26 1.59 1.70 1.83 2.02 2.30 2.32 2.26 2.12 1.91 1.63 1.59 1.68 1.67 1.55 1.42 1.25 1.13 1.04 0.99 0.94 0.83 0.80 0.79 0.81 0.82 0.76
0.57 0.39 0.45 0.53 0.62 0.58 0.36 0.36 0.30 0.21 0.23 0.25 0.28 0.27 0.32 0.41 0.44 0.44 0.46 0.57 0.68 0.78 0.99 1.27 1.55 1.78 1.96 2.08 2.15 2.22 2.07 1.90 1.83 1.72 1.68 1.61 1.52 1.45 1.36 1.28 1.23 1.15 1.11 1.11 1.11 1.05 1.00 0.98 0.94
0.64 0.64 0.69 0.72 0.90 0.84 0.34 0.32 0.30 0.24 0.27 0.28 0.28 0.29 0.35 0.41 0.46 0.43 0.43 0.52 0.62 0.68 0.80 0.97 1.20 1.40 1.62 1.83 1.92 1.99 1.99 1.99 1.95 1.77 1.64 1.62 1.59 1.53 1.43 1.40 1.38 1.35 1.30 1.28 1.27 1.26 1.24 1.21 1.15
0.93 1.26 1.61 1.51 1.25 0.65 0.23 0.27 0.26 0.22 0.29 0.33 0.33 0.35 0.37 0.37 0.38 0.38 0.42 0.48 0.57 0.63 0.70 0.77 0.88 1.01 1.20 1.40 1.55 1.64 1.77 1.87 1.80 1.70 1.56 1.53 1.48 1.41 1.37 1.38 1.43 1.44 1.39 1.38 1.40 1.40 1.33 1.34 1.34
0.89 1.08 1.27 1.04 0.63 0.33 0.19 0.22 0.22 0.23 0.32 0.36 0.35 0.35 0.33 0.37 0.39 0.37 0.37 0.42 0.50 0.55 0.62 0.68 0.74 0.81 0.94 1.06 1.19 1.34 1.48 1.68 1.69 1.65 1.50 1.37 1.30 1.27 1.32 1.32 1.29 1.30 1.34 1.35 1.35 1.37 1.31 1.29 1.28
0.82 0.81 0.72 0.89 0.59 0.33 0.19 0.14 0.14 0.17 0.23 0.30 0.31 0.29 0.29 0.37 0.40 0.37 0.36 0.37 0.45 0.48 0.53 0.61 0.71 0.76 0.82 0.93 1.05 1.14 1.20 1.31 1.40 1.49 1.51 1.37 1.27 1.23 1.23 1.21 1.17 1.11 1.09 1.15 1.22 1.23 1.22 1.20 1.17
0.68 0.65 0.82 1.15 0.91 0.49 0.20 0.11 0.17 0.19 0.20 0.27 0.30 0.32 0.35 0.39 0.39 0.36 0.37 0.41 0.45 0.46 0.47 0.55 0.70 0.72 0.73 0.79 0.89 0.96 1.03 1.13 1.22 1.26 1.29 1.26 1.20 1.18 1.17 1.13 1.06 1.01 0.97 0.95 0.99 1.02 1.02 1.03 1.00
0.63 0.78 0.92 0.93 0.69 0.59 0.37 0.24 0.23 0.23 0.21 0.25 0.30 0.33 0.36 0.40 0.40 0.40 0.44 0.50 0.52 0.47 0.49 0.55 0.61 0.71 0.75 0.75 0.80 0.83 0.82 0.88 1.01 1.11 1.12 1.13 1.11 1.08 1.06 1.05 1.01 0.96 0.89 0.84 0.81 0.79 0.83 0.88 0.86
0.50 0.50 0.68 0.98 0.72 0.51 0.44 0.34 0.24 0.24 0.21 0.22 0.27 0.31 0.33 0.35 0.37 0.42 0.49 0.51 0.52 0.53 0.55 0.58 0.60 0.65 0.74 0.74 0.74 0.78 0.79 0.79 0.85 0.94 1.03 1.06 1.11 1.05 1.01 0.98 0.95 0.90 0.84 0.80 0.78 0.75 0.73 0.75 0.75

GEFSSGP_prec_meanprecacc_156.txt.gz
Total_Precipitation_Accumulation
0.13 0.15 0.21 0.30 0.25 0.17 0.07 0.02 0.01 0.01 0.01 0.02 0.03 0.04 0.04 0.03 0.03 0.08 0.05 0.04 0.05 0.07 0.11 0.21 0.31 0.37 0.35 0.31 0.26 0.20 0.16 0.16 0.18 0.21 0.20 0.20 0.18 0.18 0.18 0.20 0.23 0.25 0.27 0.28 0.33 0.33 0.33 0.30 0.24
0.16 0.24 0.40 0.44 0.30 0.19 0.07 0.02 0.01 0.00 0.01 0.02 0.02 0.03 0.04 0.05 0.05 0.06 0.07 0.06 0.07 0.09 0.14 0.21 0.30 0.39 0.40 0.37 0.30 0.26 0.26 0.23 0.24 0.26 0.26 0.26 0.23 0.22 0.22 0.22 0.22 0.23 0.22 0.23 0.24 0.20 0.16 0.12 0.10
0.27 0.40 0.56 0.50 0.34 0.18 0.07 0.02 0.01 0.01 0.01 0.03 0.03 0.04 0.05 0.08 0.07 0.07 0.08 0.08 0.12 0.15 0.19 0.26 0.34 0.39 0.42 0.41 0.38 0.34 0.32 0.33 0.32 0.32 0.31 0.33 0.32 0.28 0.25 0.23 0.21 0.18 0.16 0.15 0.14 0.11 0.07 0.05 0.04
0.46 0.62 0.64 0.52 0.34 0.15 0.06 0.03 0.02 0.02 0.03 0.02 0.04 0.07 0.09 0.10 0.12 0.11 0.12 0.14 0.17 0.21 0.24 0.34 0.41 0.43 0.42 0.42 0.40 0.38 0.36 0.36 0.37 0.33 0.32 0.36 0.39 0.36 0.28 0.22 0.17 0.13 0.11 0.10 0.08 0.06 0.04 0.03 0.03
0.70 0.82 0.68 0.54 0.32 0.13 0.06 0.04 0.03 0.03 0.04 0.04 0.06 0.10 0.13 0.14 0.16 0.21 0.24 0.24 0.24 0.26 0.28 0.37 0.50 0.56 0.55 0.53 0.49 0.44 0.41 0.39 0.40 0.35 0.33 0.37 0.41 0.41 0.31 0.21 0.15 0.10 0.09 0.09 0.07 0.04 0.04 0.03 0.03
0.91 0.94 0.75 0.50 0.27 0.12 0.05 0.05 0.05 0.05 0.06 0.07 0.10 0.15 0.22 0.21 0.24 0.27 0.36 0.37 0.36 0.36 0.39 0.46 0.60 0.66 0.67 0.66 0.60 0.55 0.51 0.46 0.44 0.41 0.43 0.42 0.42 0.43 0.33 0.21 0.16 0.14 0.11 0.09 0.07 0.05 0.04 0.03 0.03
0.91 0.95 0.73 0.38 0.22 0.15 0.07 0.07 0.08 0.08 0.07 0.10 0.13 0.23 0.32 0.35 0.43 0.42 0.47 0.54 0.55 0.52 0.54 0.61 0.66 0.72 0.77 0.73 0.66 0.62 0.59 0.56 0.51 0.48 0.49 0.47 0.45 0.41 0.31 0.20 0.17 0.16 0.15 0.12 0.09 0.07 0.06 0.05 0.04
0.89 1.01 0.72 0.36 0.19 0.16 0.11 0.11 0.12 0.12 0.11 0.10 0.18 0.29 0.36 0.42 0.55 0.65 0.70 0.75 0.77 0.75 0.69 0.70 0.72 0.74 0.82 0.82 0.72 0.64 0.58 0.56 0.56 0.52 0.48 0.40 0.38 0.40 0.34 0.20 0.17 0.17 0.15 0.13 0.11 0.08 0.08 0.06 0.04
0.91 1.01 0.68 0.36 0.21 0.17 0.18 0.20 0.17 0.14 0.18 0.20 0.25 0.31 0.37 0.49 0.71 0.90 0.97 0.98 1.04 1.04 0.93 0.82 0.82 0.79 0.82 0.87 0.79 0.72 0.64 0.60 0.57 0.52 0.42 0.38 0.39 0.36 0.31 0.20 0.13 0.14 0.14 0.12 0.11 0.09 0.08 0.06 0.04
0.92 0.82 0.50 0.30 0.24 0.25 0.24 0.25 0.24 0.25 0.29 0.34 0.40 0.44 0.54 0.73 1.01 1.12 1.12 1.12 1.17 1.20 1.12 0.96 0.89 0.87 0.90 0.89 0.89 0.84 0.74 0.65 0.59 0.50 0.46 0.41 0.41 0.39 0.33 0.26 0.15 0.12 0.13 0.12 0.11 0.10 0.08 0.05 0.03
0.62 0.56 0.42 0.35 0.31 0.32 0.32 0.29 0.28 0.32 0.35 0.36 0.41 0.54 0.75 0.98 1.27 1.34 1.39 1.39 1.37 1.38 1.35 1.18 1.02 0.99 0.96 0.90 0.88 0.89 0.79 0.70 0.62 0.55 0.50 0.44 0.44 0.41 0.40 0.33 0.24 0.17 0.12 0.11 0.10 0.08 0.06 0.04 0.02
0.41 0.38 0.40 0.41 0.35 0.35 0.36 0.36 0.35 0.32 0.33 0.34 0.40 0.54 0.79 1.07 1.27 1.36 1.49 1.57 1.65 1.65 1.64 1.44 1.24 1.10 1.04 0.96 0.84 0.81 0.79 0.73 0.63 0.54 0.55 0.51 0.45 0.39 0.35 0.31 0.24 0.20 0.13 0.10 0.08 0.06 0.05 0.04 0.03
0.34 0.31 0.34 0.42 0.41 0.37 0.35 0.36 0.40 0.32 0.32 0.36 0.43 0.60 0.83 1.14 1.37 1.54 1.68 1.73 1.85 1.93 1.92 1.82 1.54 1.29 1.15 1.08 0.97 0.82 0.72 0.65 0.64 0.58 0.54 0.48 0.41 0.35 0.34 0.32 0.29 0.23 0.16 0.11 0.09 0.07 0.05 0.04 0.04
0.29 0.30 0.37 0.43 0.48 0.40 0.39 0.39 0.41 0.35 0.32 0.42 0.50 0.64 0.79 1.12 1.49 1.68 1.86 1.96 1.92 2.08 2.19 2.19 1.89 1.55 1.29 1.16 1.04 0.91 0.73 0.66 0.66 0.64 0.56 0.50 0.42 0.35 0.32 0.31 0.29 0.26 0.21 0.16 0.12 0.09 0.07 0.06 0.05
0.34 0.43 0.47 0.49 0.52 0.44 0.46 0.53 0.44 0.37 0.33 0.41 0.48 0.61 0.76 1.05 1.42 1.68 1.84 1.96 2.05 2.16 2.34 2.41 2.26 1.94 1.52 1.29 1.15 1.04 0.89 0.75 0.66 0.61 0.59 0.57 0.52 0.43 0.37 0.34 0.30 0.27 0.25 0.23 0.18 0.15 0.13 0.09 0.07
0.56 0.69 0.66 0.48 0.51 0.49 0.55 0.59 0.41 0.37 0.36 0.38 0.44 0.57 0.72 0.90 1.22 1.51 1.80 1.91 2.05 2.20 2.33 2.42 2.40 2.24 1.86 1.45 1.27 1.15 1.06 0.95 0.79 0.71 0.69 0.65 0.59 0.53 0.49 0.40 0.32 0.30 0.32 0.29 0.23 0.18 0.16 0.12 0.10
0.79 0.65 0.53 0.41 0.41 0.50 0.49 0.50 0.41 0.36 0.35 0.34 0.37 0.47 0.69 0.84 1.03 1.25 1.58 1.81 1.88 2.07 2.26 2.49 2.43 2.31 2.13 1.83 1.57 1.41 1.25 1.14 1.01 0.84 0.76 0.80 0.77 0.70 0.64 0.49 0.39 0.37 0.36 0.32 0.30 0.24 0.20 0.16 0.12
0.56 0.36 0.33 0.37 0.38 0.42 0.39 0.33 0.35 0.38 0.39 0.36 0.39 0.44 0.59 0.78 0.84 1.00 1.28 1.63 1.74 1.92 2.14 2.33 2.58 2.50 2.47 2.40 2.08 1.74 1.54 1.32 1.19 1.03 0.88 0.87 0.88 0.86 0.82 0.70 0.58 0.53 0.47 0.40 0.34 0.29 0.26 0.22 0.19
0.43 0.34 0.28 0.25 0.30 0.37 0.34 0.28 0.31 0.32 0.37 0.36 0.38 0.42 0.46 0.60 0.72 0.88 1.13 1.45 1.66 1.76 1.97 2.10 2.31 2.49 2.53 2.44 2.15 1.79 1.55 1.47 1.43 1.29 1.16 1.06 1.00 0.96 0.91 0.86 0.77 0.67 0.59 0.50 0.45 0.41 0.35 0.30 0.29
0.57 0.50 0.35 0.25 0.23 0.33 0.33 0.28 0.29 0.31 0.36 0.35 0.36 0.38 0.41 0.47 0.55 0.70 0.99 1.19 1.37 1.54 1.68 1.91 1.99 2.24 2.30 2.22 2.18 2.02 1.91 1.78 1.68 1.58 1.39 1.26 1.21 1.10 0.99 0.92 0.89 0.78 0.70 0.65 0.62 0.58 0.51 0.44 0.40
0.62 0.51 0.42 0.34 0.29 0.34 0.38 0.35 0.29 0.29 0.31 0.28 0.28 0.29 0.36 0.41 0.45 0.57 0.78 0.99 1.10 1.28 1.54 1.66 1.73 1.96 2.18 2.25 2.39 2.46 2.39 2.10 1.83 1.66 1.58 1.46 1.40 1.30 1.15 1.03 1.00 0.97 0.84 0.76 0.77 0.76 0.71 0.69 0.67
0.63 0.38 0.43 0.44 0.53 0.49 0.37 0.45 0.32 0.25 0.25 0.25 0.27 0.25 0.29 0.37 0.40 0.47 0.54 0.71 0.84 0.96 1.27 1.61 1.74 1.88 2.07 2.34 2.35 2.28 2.14 1.92 1.67 1.65 1.71 1.69 1.59 1.48 1.33 1.22 1.15 1.12 1.06 0.95 0.95 0.95 0.95 0.95 0.90
0.57 0.40 0.46 0.55 0.64 0.60 0.37 0.37 0.31 0.21 0.23 0.25 0.28 0.27 0.32 0.42 0.45 0.44 0.46 0.58 0.70 0.80 1.01 1.29 1.58 1.82 2.01 2.13 2.18 2.24 2.10 1.92 1.86 1.77 1.73 1.66 1.57 1.52 1.43 1.37 1.33 1.28 1.25 1.22 1.23 1.19 1.13 1.09 1.04
0.65 0.66 0.71 0.75 0.92 0.86 0.36 0.32 0.30 0.24 0.27 0.28 0.28 0.29 0.35 0.42 0.47 0.44 0.44 0.53 0.65 0.71 0.83 1.02 1.28 1.47 1.68 1.87 1.96 2.02 2.03 2.03 1.98 1.80 1.68 1.67 1.65 1.61 1.52 1.49 1.49 1.47 1.44 1.40 1.37 1.36 1.35 1.31 1.24
0.96 1.28 1.63 1.53 1.27 0.67 0.24 0.27 0.26 0.22 0.29 0.33 0.33 0.35 0.37 0.37 0.39 0.39 0.43 0.49 0.59 0.66 0.74 0.84 0.95 1.08 1.26 1.44 1.59 1.68 1.81 1.91 1.83 1.73 1.60 1.57 1.54 1.49 1.46 1.45 1.50 1.53 1.50 1.50 1.50 1.49 1.43 1.45 1.44
0.93 1.10 1.28 1.04 0.64 0.33 0.19 0.22 0.22 0.23 0.32 0.36 0.35 0.35 0.33 0.37 0.39 0.37 0.37 0.42 0.51 0.57 0.64 0.70 0.77 0.84 0.99 1.13 1.25 1.39 1.54 1.73 1.72 1.69 1.54 1.41 1.35 1.33 1.39 1.38 1.35 1.36 1.41 1.45 1.45 1.45 1.42 1.42 1.40
0.84 0.82 0.72 0.90 0.59 0.33 0.19 0.14 0.14 0.17 0.23 0.30 0.31 0.29 0.29 0.37 0.40 0.37 0.36 0.38 0.45 0.49 0.54 0.63 0.73 0.77 0.84 0.96 1.09 1.19 1.28 1.39 1.46 1.54 1.57 1.42 1.32 1.29 1.30 1.28 1.22 1.17 1.16 1.23 1.31 1.31 1.31 1.33 1.32
0.69 0.65 0.82 1.15 0.91 0.49 0.20 0.11 0.17 0.19 0.20 0.27 0.30 0.32 0.35 0.39 0.39 0.36 0.38 0.41 0.46 0.47 0.48 0.55 0.70 0.73 0.74 0.81 0.90 0.99 1.08 1.22 1.31 1.35 1.36 1.33 1.27 1.25 1.24 1.20 1.11 1.06 1.01 1.01 1.07 1.09 1.10 1.15 1.14
0.63 0.78 0.92 0.93 0.70 0.59 0.38 0.24 0.23 0.23 0.21 0.25 0.30 0.33 0.36 0.40 0.40 0.40 0.44 0.50 0.52 0.48 0.50 0.55 0.62 0.72 0.76 0.77 0.82 0.86 0.86 0.93 1.08 1.19 1.21 1.22 1.19 1.17 1.15 1.11 1.07 1.02 0.94 0.89 0.88 0.86 0.90 0.97 0.99
0.50 0.50 0.68 0.98 0.72 0.51 0.45 0.34 0.24 0.24 0.21 0.22 0.27 0.31 0.33 0.35 0.37 0.42 0.49 0.51 0.52 0.54 0.56 0.60 0.61 0.67 0.77 0.78 0.79 0.82 0.83 0.83 0.90 1.00 1.10 1.16 1.22 1.15 1.11 1.06 1.02 0.97 0.91 0.86 0.83 0.80 0.78 0.81 0.84

GEFSSGP_prec_meanprecacc_162.txt.gz
Total_Precipitation_Accumulation
0.14 0.15 0.21 0.30 0.25 0.17 0.07 0.02 0.01 0.01 0.01 0.02 0.03 0.04 0.04 0.03 0.03 0.08 0.05 0.05 0.06 0.07 0.12 0.24 0.35 0.44 0.44 0.41 0.33 0.24 0.19 0.18 0.20 0.23 0.22 0.22 0.20 0.20 0.21 0.22 0.24 0.27 0.28 0.29 0.34 0.34 0.34 0.31 0.24
0.16 0.24 0.40 0.44 0.30 0.19 0.07 0.02 0.01 0.00 0.01 0.02 0.02 0.03 0.04 0.05 0.05 0.06 0.07 0.06 0.07 0.10 0.15 0.23 0.33 0.43 0.47 0.46 0.39 0.33 0.31 0.28 0.27 0.29 0.29 0.29 0.26 0.25 0.25 0.25 0.24 0.24 0.23 0.24 0.25 0.21 0.17 0.13 0.11
0.27 0.40 0.56 0.50 0.34 0.18 0.07 0.02 0.01 0.01 0.01 0.03 0.03 0.04 0.05 0.08 0.07 0.07 0.08 0.09 0.13 0.16 0.20 0.30 0.38 0.43 0.47 0.47 0.46 0.42 0.39 0.38 0.37 0.37 0.36 0.37 0.34 0.30 0.28 0.26 0.23 0.20 0.17 0.16 0.16 0.12 0.08 0.05 0.04
0.46 0.62 0.64 0.52 0.34 0.15 0.06 0.03 0.02 0.02 0.03 0.02 0.04 0.07 0.09 0.10 0.12 0.11 0.12 0.14 0.18 0.22 0.25 0.36 0.44 0.47 0.46 0.47 0.45 0.45 0.43 0.43 0.43 0.38 0.37 0.42 0.44 0.41 0.32 0.26 0.21 0.16 0.13 0.11 0.10 0.07 0.06 0.04 0.03
0.70 0.82 0.69 0.54 0.32 0.13 0.06 0.04 0.03 0.03 0.04 0.04 0.06 0.10 0.13 0.14 0.16 0.21 0.24 0.24 0.25 0.28 0.31 0.41 0.56 0.61 0.59 0.58 0.54 0.49 0.47 0.45 0.45 0.41 0.39 0.42 0.46 0.46 0.37 0.26 0.19 0.13 0.11 0.10 0.08 0.05 0.05 0.04 0.04
0.92 0.95 0.75 0.50 0.27 0.12 0.05 0.05 0.05 0.05 0.06 0.07 0.10 0.15 0.22 0.21 0.24 0.28 0.37 0.38 0.37 0.37 0.41 0.52 0.68 0.73 0.72 0.69 0.64 0.60 0.57 0.53 0.49 0.47 0.48 0.47 0.48 0.48 0.38 0.26 0.20 0.17 0.14 0.12 0.09 0.06 0.05 0.04 0.04
0.92 0.95 0.74 0.38 0.22 0.15 0.07 0.07 0.08 0.08 0.07 0.10 0.13 0.23 0.32 0.35 0.43 0.42 0.49 0.55 0.56 0.54 0.57 0.66 0.73 0.79 0.85 0.78 0.69 0.65 0.63 0.62 0.57 0.54 0.55 0.52 0.49 0.46 0.35 0.24 0.20 0.20 0.18 0.15 0.12 0.10 0.09 0.07 0.05
0.90 1.01 0.72 0.36 0.19 0.16 0.11 0.11 0.12 0.12 0.11 0.10 0.18 0.29 0.36 0.42 0.56 0.66 0.71 0.77 0.79 0.76 0.71 0.72 0.76 0.79 0.88 0.87 0.76 0.65 0.60 0.59 0.61 0.60 0.53 0.45 0.42 0.43 0.38 0.23 0.20 0.20 0.19 0.16 0.14 0.11 0.10 0.09 0.06
0.92 1.02 0.68 0.36 0.21 0.17 0.18 0.20 0.17 0.14 0.18 0.20 0.25 0.31 0.37 0.49 0.72 0.91 0.99 1.00 1.07 1.06 0.94 0.84 0.84 0.81 0.85 0.90 0.82 0.75 0.66 0.61 0.60 0.60 0.50 0.42 0.43 0.40 0.35 0.23 0.15 0.17 0.17 0.15 0.15 0.14 0.11 0.09 0.06
0.93 0.83 0.50 0.30 0.24 0.25 0.24 0.25 0.24 0.25 0.29 0.34 0.40 0.44 0.54 0.73 1.02 1.14 1.15 1.14 1.19 1.22 1.15 1.00 0.91 0.89 0.92 0.92 0.92 0.88 0.77 0.68 0.61 0.55 0.57 0.49 0.45 0.44 0.37 0.30 0.18 0.16 0.16 0.15 0.16 0.15 0.15 0.10 0.05
0.63 0.57 0.43 0.35 0.31 0.32 0.32 0.29 0.28 0.32 0.35 0.36 0.41 0.54 0.75 0.99 1.28 1.35 1.40 1.41 1.39 1.40 1.37 1.22 1.06 1.02 1.00 0.94 0.90 0.92 0.82 0.74 0.67 0.60 0.58 0.59 0.53 0.46 0.45 0.38 0.29 0.23 0.16 0.15 0.15 0.15 0.13 0.10 0.06
0.43 0.39 0.41 0.41 0.35 0.35 0.37 0.36 0.35 0.32 0.33 0.34 0.41 0.54 0.80 1.08 1.28 1.37 1.50 1.58 1.65 1.66 1.65 1.46 1.28 1.15 1.09 1.02 0.89 0.84 0.81 0.75 0.67 0.60 0.62 0.62 0.57 0.46 0.39 0.35 0.30 0.26 0.19 0.16 0.15 0.13 0.12 0.09 0.07
0.35 0.32 0.35 0.42 0.42 0.37 0.36 0.37 0.40 0.32 0.32 0.36 0.43 0.61 0.83 1.14 1.38 1.54 1.69 1.73 1.86 1.93 1.92 1.83 1.56 1.31 1.17 1.11 1.02 0.88 0.77 0.69 0.68 0.64 0.60 0.56 0.51 0.44 0.38 0.34 0.34 0.30 0.23 0.17 0.15 0.15 0.12 0.10 0.08
0.31 0.30 0.37 0.44 0.48 0.40 0.40 0.40 0.41 0.35 0.32 0.42 0.50 0.64 0.80 1.12 1.49 1.68 1.86 1.96 1.92 2.09 2.19 2.20 1.90 1.57 1.31 1.18 1.08 0.96 0.78 0.70 0.70 0.70 0.63 0.58 0.50 0.44 0.39 0.33 0.32 0.30 0.28 0.23 0.18 0.16 0.15 0.14 0.11
0.36 0.45 0.49 0.50 0.53 0.44 0.47 0.55 0.45 0.37 0.34 0.41 0.48 0.61 0.76 1.05 1.42 1.68 1.85 1.96 2.05 2.16 2.34 2.42 2.27 1.95 1.53 1.30 1.16 1.06 0.92 0.80 0.72 0.68 0.67 0.65 0.60 0.53 0.47 0.39 0.34 0.30 0.30 0.30 0.26 0.23 0.21 0.18 0.15
0.58 0.71 0.68 0.48 0.51 0.50 0.56 0.62 0.43 0.38 0.37 0.38 0.44 0.57 0.72 0.90 1.22 1.51 1.80 1.91 2.05 2.21 2.34 2.42 2.41 2.25 1.86 1.46 1.28 1.16 1.07 0.97 0.84 0.79 0.78 0.73 0.68 0.62 0.60 0.49 0.38 0.35 0.38 0.37 0.31 0.26 0.25 0.20 0.17
0.81 0.67 0.54 0.41 0.41 0.50 0.50 0.54 0.44 0.38 0.36 0.35 0.37 0.47 0.69 0.84 1.03 1.25 1.58 1.81 1.88 2.08 2.27 2.50 2.46 2.34 2.14 1.84 1.57 1.42 1.26 1.15 1.02 0.88 0.83 0.87 0.85 0.79 0.73 0.59 0.48 0.43 0.42 0.40 0.39 0.34 0.30 0.24 0.18
0.58 0.37 0.34 0.37 0.38 0.42 0.39 0.34 0.37 0.40 0.40 0.36 0.39 0.44 0.60 0.78 0.84 1.01 1.28 1.63 1.75 1.93 2.16 2.34 2.59 2.54 2.51 2.41 2.09 1.75 1.55 1.34 1.21 1.05 0.91 0.91 0.93 0.92 0.90 0.79 0.66 0.61 0.54 0.47 0.43 0.41 0.39 0.35 0.30
0.44 0.35 0.28 0.25 0.30 0.37 0.34 0.29 0.32 0.33 0.38 0.37 0.38 0.43 0.47 0.61 0.72 0.88 1.13 1.45 1.66 1.77 1.99 2.11 2.32 2.52 2.57 2.47 2.16 1.80 1.57 1.49 1.45 1.31 1.17 1.09 1.03 0.99 0.96 0.93 0.85 0.75 0.65 0.57 0.53 0.50 0.47 0.44 0.44
0.58 0.51 0.36 0.25 0.23 0.33 0.34 0.31 0.30 0.32 0.38 0.36 0.37 0.39 0.41 0.47 0.55 0.70 0.99 1.19 1.37 1.54 1.69 1.93 2.00 2.25 2.32 2.25 2.21 2.03 1.92 1.80 1.70 1.60 1.41 1.28 1.22 1.12 1.02 0.96 0.94 0.85 0.77 0.73 0.73 0.69 0.64 0.58 0.56
0.63 0.52 0.42 0.34 0.29 0.35 0.39 0.36 0.30 0.30 0.31 0.28 0.28 0.30 0.36 0.41 0.45 0.57 0.78 0.99 1.10 1.28 1.55 1.67 1.73 1.97 2.19 2.27 2.40 2.47 2.41 2.11 1.84 1.68 1.59 1.47 1.41 1.31 1.18 1.06 1.04 1.01 0.89 0.81 0.83 0.86 0.85 0.85 0.82
0.64 0.39 0.43 0.45 0.53 0.50 0.38 0.46 0.33 0.26 0.25 0.25 0.27 0.25 0.29 0.37 0.40 0.47 0.54 0.71 0.84 0.96 1.27 1.61 1.75 1.88 2.08 2.35 2.36 2.30 2.16 1.94 1.68 1.67 1.72 1.70 1.60 1.49 1.35 1.25 1.18 1.15 1.09 0.99 1.00 1.02 1.05 1.09 1.07
0.58 0.40 0.47 0.55 0.64 0.61 0.37 0.38 0.32 0.21 0.23 0.25 0.28 0.27 0.32 0.42 0.45 0.44 0.46 0.58 0.70 0.80 1.01 1.29 1.58 1.82 2.02 2.15 2.20 2.25 2.11 1.93 1.87 1.79 1.76 1.67 1.58 1.53 1.45 1.39 1.35 1.30 1.27 1.25 1.27 1.24 1.21 1.19 1.17
0.65 0.66 0.71 0.75 0.92 0.87 0.36 0.33 0.30 0.24 0.27 0.28 0.28 0.29 0.35 0.42 0.47 0.44 0.44 0.53 0.65 0.71 0.84 1.02 1.28 1.48 1.69 1.89 1.99 2.05 2.05 2.04 1.99 1.82 1.72 1.71 1.69 1.63 1.53 1.51 1.50 1.49 1.47 1.43 1.40 1.40 1.41 1.39 1.33
0.96 1.29 1.65 1.55 1.28 0.67 0.24 0.27 0.26 0.22 0.29 0.33 0.33 0.35 0.37 0.37 0.39 0.39 0.43 0.49 0.59 0.66 0.75 0.84 0.95 1.08 1.26 1.45 1.60 1.70 1.82 1.92 1.84 1.74 1.62 1.61 1.59 1.54 1.50 1.47 1.51 1.55 1.53 1.54 1.55 1.53 1.48 1.49 1.50
0.94 1.10 1.29 1.05 0.64 0.33 0.19 0.22 0.22 0.23 0.32 0.36 0.35 0.35 0.33 0.37 0.39 0.37 0.37 0.42 0.51 0.57 0.64 0.71 0.77 0.85 1.00 1.14 1.26 1.41 1.56 1.74 1.73 1.71 1.56 1.44 1.40 1.40 1.48 1.43 1.36 1.38 1.43 1.47 1.48 1.49 1.45 1.45 1.43
0.85 0.83 0.72 0.90 0.59 0.34 0.19 0.14 0.14 0.17 0.23 0.30 0.31 0.29 0.29 0.37 0.40 0.37 0.36 0.38 0.45 0.49 0.54 0.63 0.73 0.78 0.85 0.97 1.10 1.22 1.31 1.42 1.49 1.57 1.59 1.44 1.37 1.36 1.38 1.33 1.26 1.19 1.18 1.25 1.33 1.34 1.34 1.35 1.35
0.70 0.66 0.83 1.16 0.91 0.49 0.20 0.12 0.17 0.19 0.20 0.27 0.30 0.32 0.35 0.39 0.39 0.36 0.38 0.41 0.46 0.47 0.48 0.56 0.71 0.74 0.74 0.81 0.91 1.00 1.10 1.25 1.34 1.38 1.39 1.35 1.31 1.31 1.30 1.24 1.15 1.09 1.06 1.05 1.11 1.12 1.12 1.17 1.17
0.64 0.79 0.92 0.93 0.70 0.60 0.38 0.24 0.23 0.23 0.21 0.25 0.30 0.33 0.36 0.40 0.40 0.40 0.44 0.50 0.53 0.48 0.50 0.55 0.62 0.73 0.77 0.77 0.82 0.86 0.87 0.95 1.10 1.22 1.24 1.26 1.23 1.21 1.20 1.17 1.12 1.06 0.99 0.94 0.93 0.90 0.94 1.01 1.02
0.50 0.50 0.68 0.99 0.72 0.51 0.45 0.34 0.24 0.24 0.21 0.22 0.27 0.31 0.33 0.35 0.37 0.42 0.49 0.51 0.52 0.54 0.56 0.60 0.62 0.67 0.77 0.78 0.79 0.83 0.84 0.85 0.93 1.02 1.13 1.20 1.27 1.20 1.16 1.12 1.07 1.02 0.97 0.92 0.90 0.85 0.84 0.87 0.91

GEFSSGP_prec_meanprecacc_168.txt.gz
Total_Precipitation_Accumulation
0.14 0.16 0.22 0.31 0.26 0.17 0.07 0.02 0.01 0.01 0.01 0.02 0.03 0.04 0.04 0.03 0.04 0.09 0.06 0.05 0.06 0.08 0.14 0.25 0.37 0.46 0.46 0.42 0.35 0.26 0.21 0.20 0.23 0.25 0.24 0.24 0.22 0.21 0.22 0.24 0.27 0.30 0.31 0.31 0.37 0.36 0.36 0.32 0.25
0.17 0.26 0.41 0.46 0.31 0.19 0.07 0.02 0.01 0.00 0.01 0.02 0.02 0.03 0.04 0.05 0.05 0.06 0.08 0.06 0.07 0.10 0.17 0.25 0.35 0.46 0.49 0.48 0.42 0.37 0.33 0.30 0.30 0.32 0.32 0.32 0.28 0.26 0.26 0.27 0.27 0.27 0.26 0.26 0.27 0.23 0.19 0.14 0.11
0.29 0.42 0.58 0.52 0.35 0.18 0.07 0.02 0.01 0.01 0.01 0.03 0.03 0.04 0.05 0.08 0.07 0.07 0.08 0.09 0.13 0.17 0.22 0.32 0.40 0.46 0.51 0.50 0.49 0.46 0.42 0.41 0.40 0.39 0.39 0.41 0.39 0.33 0.30 0.28 0.26 0.22 0.20 0.19 0.19 0.15 0.10 0.06 0.05
0.48 0.64 0.67 0.54 0.34 0.15 0.06 0.03 0.02 0.02 0.03 0.02 0.04 0.07 0.09 0.10 0.12 0.11 0.12 0.14 0.18 0.23 0.27 0.38 0.46 0.49 0.49 0.50 0.48 0.48 0.46 0.46 0.46 0.41 0.40 0.45 0.49 0.45 0.35 0.29 0.23 0.18 0.16 0.14 0.13 0.10 0.08 0.06 0.04
0.74 0.85 0.71 0.55 0.32 0.13 0.06 0.04 0.03 0.03 0.04 0.04 0.06 0.10 0.13 0.14 0.16 0.21 0.24 0.24 0.26 0.29 0.33 0.43 0.57 0.62 0.61 0.60 0.55 0.50 0.49 0.49 0.50 0.45 0.42 0.46 0.50 0.51 0.41 0.30 0.22 0.16 0.14 0.13 0.11 0.08 0.07 0.06 0.05
0.97 0.99 0.76 0.50 0.28 0.12 0.05 0.05 0.05 0.05 0.06 0.07 0.10 0.15 0.22 0.21 0.24 0.28 0.37 0.38 0.38 0.39 0.43 0.54 0.69 0.75 0.74 0.71 0.65 0.61 0.58 0.55 0.54 0.53 0.53 0.50 0.51 0.52 0.43 0.30 0.23 0.20 0.17 0.14 0.12 0.09 0.07 0.06 0.05
0.96 0.98 0.75 0.38 0.22 0.15 0.07 0.07 0.08 0.08 0.07 0.10 0.13 0.23 0.33 0.35 0.44 0.43 0.49 0.56 0.58 0.56 0.60 0.69 0.76 0.82 0.88 0.80 0.70 0.66 0.64 0.63 0.59 0.59 0.60 0.54 0.51 0.48 0.39 0.27 0.23 0.22 0.21 0.18 0.15 0.13 0.11 0.09 0.07
0.93 1.05 0.74 0.37 0.20 0.17 0.11 0.11 0.12 0.12 0.11 0.11 0.18 0.29 0.37 0.42 0.56 0.66 0.72 0.77 0.80 0.77 0.73 0.75 0.79 0.82 0.92 0.92 0.78 0.66 0.60 0.60 0.62 0.63 0.60 0.49 0.44 0.45 0.40 0.26 0.22 0.22 0.21 0.19 0.17 0.14 0.13 0.11 0.08
0.95 1.05 0.70 0.37 0.22 0.17 0.18 0.20 0.17 0.14 0.18 0.20 0.25 0.31 0.37 0.50 0.72 0.92 1.00 1.01 1.07 1.07 0.96 0.87 0.88 0.85 0.89 0.96 0.85 0.77 0.67 0.62 0.60 0.61 0.55 0.49 0.48 0.46 0.40 0.26 0.16 0.19 0.19 0.17 0.18 0.17 0.15 0.12 0.09
0.95 0.85 0.51 0.31 0.25 0.25 0.24 0.25 0.24 0.25 0.29 0.34 0.40 0.44 0.54 0.73 1.03 1.15 1.15 1.15 1.20 1.23 1.16 1.02 0.94 0.94 0.98 0.97 0.97 0.94 0.81 0.70 0.63 0.57 0.58 0.55 0.51 0.49 0.43 0.34 0.20 0.18 0.18 0.17 0.19 0.19 0.19 0.15 0.10
0.66 0.59 0.44 0.35 0.31 0.32 0.32 0.29 0.28 0.32 0.36 0.36 0.41 0.54 0.76 1.00 1.29 1.36 1.42 1.43 1.40 1.41 1.38 1.24 1.09 1.06 1.04 0.99 0.95 0.97 0.86 0.78 0.72 0.66 0.63 0.62 0.59 0.52 0.53 0.45 0.33 0.28 0.20 0.19 0.19 0.20 0.17 0.15 0.12
0.46 0.41 0.42 0.42 0.36 0.35 0.37 0.37 0.35 0.32 0.33 0.34 0.41 0.55 0.80 1.09 1.29 1.39 1.52 1.59 1.67 1.68 1.67 1.49 1.32 1.20 1.15 1.08 0.94 0.88 0.84 0.79 0.72 0.65 0.68 0.68 0.63 0.53 0.49 0.46 0.35 0.30 0.24 0.21 0.21 0.19 0.16 0.14 0.14
0.39 0.34 0.36 0.43 0.43 0.37 0.36 0.37 0.41 0.32 0.32 0.36 0.43 0.62 0.84 1.15 1.39 1.56 1.71 1.74 1.87 1.95 1.93 1.84 1.58 1.35 1.22 1.18 1.08 0.92 0.79 0.71 0.71 0.68 0.65 0.61 0.56 0.49 0.46 0.45 0.41 0.35 0.27 0.22 0.22 0.22 0.19 0.16 0.14
0.32 0.33 0.40 0.46 0.50 0.41 0.40 0.41 0.42 0.36 0.33 0.42 0.50 0.65 0.81 1.14 1.51 1.70 1.88 1.97 1.94 2.10 2.21 2.21 1.91 1.58 1.33 1.22 1.14 1.02 0.84 0.73 0.73 0.73 0.67 0.63 0.55 0.49 0.47 0.41 0.39 0.36 0.33 0.29 0.25 0.23 0.25 0.23 0.19
0.37 0.46 0.51 0.52 0.54 0.45 0.47 0.56 0.46 0.38 0.34 0.41 0.49 0.62 0.77 1.06 1.43 1.69 1.85 1.97 2.07 2.17 2.35 2.42 2.27 1.96 1.54 1.31 1.19 1.09 0.98 0.85 0.76 0.72 0.70 0.69 0.65 0.59 0.56 0.49 0.43 0.39 0.38 0.37 0.33 0.31 0.31 0.29 0.24
0.59 0.73 0.69 0.50 0.53 0.51 0.57 0.62 0.43 0.38 0.38 0.39 0.45 0.58 0.73 0.91 1.22 1.52 1.81 1.92 2.06 2.22 2.34 2.43 2.41 2.25 1.87 1.47 1.29 1.17 1.09 1.01 0.88 0.82 0.81 0.77 0.73 0.68 0.68 0.60 0.49 0.44 0.46 0.44 0.39 0.34 0.33 0.29 0.27
0.81 0.68 0.56 0.43 0.43 0.52 0.50 0.54 0.44 0.38 0.38 0.37 0.38 0.48 0.70 0.84 1.04 1.26 1.59 1.82 1.89 2.09 2.28 2.50 2.46 2.34 2.15 1.84 1.58 1.43 1.27 1.17 1.05 0.91 0.85 0.89 0.88 0.84 0.80 0.67 0.56 0.51 0.50 0.48 0.47 0.41 0.38 0.32 0.27
0.59 0.38 0.35 0.38 0.39 0.44 0.39 0.34 0.38 0.41 0.41 0.38 0.40 0.45 0.60 0.78 0.85 1.01 1.29 1.64 1.75 1.93 2.16 2.34 2.60 2.54 2.51 2.41 2.09 1.76 1.56 1.35 1.23 1.06 0.93 0.92 0.94 0.94 0.93 0.84 0.72 0.67 0.60 0.53 0.51 0.48 0.47 0.44 0.39
0.44 0.36 0.29 0.26 0.30 0.38 0.34 0.29 0.32 0.33 0.39 0.38 0.39 0.43 0.47 0.61 0.72 0.89 1.14 1.45 1.66 1.77 1.99 2.11 2.32 2.52 2.57 2.47 2.17 1.81 1.58 1.51 1.46 1.32 1.18 1.10 1.04 1.01 0.99 0.97 0.90 0.80 0.70 0.62 0.58 0.57 0.54 0.52 0.53
0.59 0.52 0.37 0.26 0.24 0.34 0.34 0.31 0.30 0.33 0.38 0.37 0.37 0.39 0.42 0.48 0.56 0.71 0.99 1.20 1.38 1.55 1.70 1.93 2.00 2.25 2.32 2.26 2.21 2.05 1.94 1.83 1.72 1.62 1.42 1.29 1.24 1.14 1.05 0.99 0.98 0.91 0.82 0.78 0.78 0.75 0.70 0.64 0.63
0.64 0.53 0.43 0.35 0.30 0.35 0.40 0.37 0.30 0.30 0.32 0.29 0.29 0.30 0.37 0.42 0.46 0.58 0.78 0.99 1.11 1.28 1.55 1.67 1.74 1.97 2.19 2.27 2.40 2.49 2.43 2.13 1.86 1.69 1.61 1.49 1.42 1.33 1.20 1.09 1.07 1.05 0.93 0.85 0.88 0.91 0.90 0.90 0.88
0.65 0.39 0.43 0.45 0.54 0.51 0.38 0.47 0.33 0.26 0.25 0.25 0.27 0.25 0.29 0.37 0.41 0.47 0.55 0.72 0.84 0.97 1.28 1.61 1.75 1.88 2.08 2.35 2.36 2.30 2.18 1.97 1.71 1.69 1.74 1.71 1.60 1.50 1.36 1.26 1.20 1.17 1.12 1.03 1.04 1.06 1.10 1.14 1.12
0.58 0.40 0.47 0.55 0.65 0.61 0.38 0.39 0.32 0.21 0.23 0.25 0.28 0.27 0.32 0.42 0.46 0.45 0.47 0.58 0.70 0.80 1.01 1.29 1.58 1.82 2.02 2.15 2.21 2.26 2.11 1.94 1.89 1.82 1.78 1.68 1.58 1.53 1.46 1.40 1.36 1.32 1.30 1.28 1.30 1.28 1.25 1.23 1.22
0.66 0.67 0.72 0.76 0.93 0.88 0.36 0.33 0.31 0.24 0.27 0.28 0.28 0.29 0.35 0.42 0.47 0.45 0.45 0.53 0.65 0.71 0.84 1.02 1.28 1.48 1.69 1.89 1.99 2.05 2.05 2.05 2.01 1.83 1.74 1.73 1.70 1.64 1.53 1.52 1.51 1.50 1.48 1.45 1.43 1.43 1.45 1.43 1.37
0.97 1.30 1.66 1.56 1.29 0.68 0.24 0.27 0.27 0.22 0.29 0.33 0.33 0.35 0.37 0.37 0.39 0.39 0.43 0.49 0.59 0.66 0.75 0.84 0.95 1.08 1.26 1.45 1.60 1.70 1.82 1.93 1.86 1.76 1.63 1.62 1.60 1.55 1.50 1.47 1.51 1.56 1.54 1.55 1.57 1.56 1.51 1.53 1.54
0.95 1.11 1.30 1.06 0.65 0.34 0.20 0.22 0.22 0.23 0.32 0.37 0.36 0.35 0.34 0.38 0.39 0.38 0.37 0.43 0.52 0.57 0.64 0.71 0.78 0.85 1.00 1.14 1.26 1.41 1.56 1.75 1.74 1.72 1.57 1.45 1.41 1.41 1.48 1.43 1.37 1.38 1.44 1.49 1.50 1.51 1.48 1.47 1.45
0.86 0.83 0.73 0.90 0.59 0.34 0.20 0.14 0.14 0.17 0.23 0.30 0.31 0.30 0.29 0.37 0.40 0.37 0.37 0.38 0.45 0.49 0.54 0.63 0.73 0.78 0.85 0.97 1.11 1.22 1.32 1.43 1.50 1.57 1.59 1.45 1.38 1.37 1.39 1.34 1.26 1.19 1.19 1.27 1.35 1.36 1.35 1.36 1.36
0.71 0.66 0.83 1.16 0.92 0.50 0.20 0.12 0.17 0.19 0.20 0.27 0.31 0.33 0.35 0.40 0.39 0.36 0.38 0.41 0.46 0.47 0.48 0.56 0.71 0.74 0.74 0.81 0.91 1.01 1.11 1.26 1.35 1.39 1.39 1.35 1.32 1.33 1.32 1.25 1.16 1.10 1.07 1.06 1.13 1.15 1.14 1.18 1.18
0.64 0.80 0.93 0.94 0.70 0.60 0.38 0.24 0.23 0.23 0.21 0.25 0.30 0.33 0.36 0.40 0.41 0.40 0.44 0.50 0.53 0.48 0.50 0.56 0.62 0.73 0.77 0.78 0.82 0.87 0.88 0.96 1.12 1.23 1.25 1.26 1.24 1.23 1.22 1.18 1.13 1.08 1.01 0.96 0.95 0.93 0.96 1.03 1.04
0.51 0.50 0.69 0.99 0.73 0.51 0.45 0.34 0.24 0.24 0.22 0.23 0.28 0.31 0.33 0.35 0.37 0.42 0.49 0.51 0.52 0.54 0.56 0.60 0.62 0.68 0.78 0.79 0.79 0.83 0.85 0.86 0.94 1.04 1.14 1.20 1.27 1.21 1.18 1.14 1.10 1.04 0.99 0.95 0.93 0.88 0.87 0.90 0.94

GEFSSGP_prec_meanprecacc_174.txt.gz
Total_Precipitation_Accumulation
0.15 0.16 0.23 0.33 0.29 0.19 0.08 0.02 0.01 0.01 0.01 0.02 0.03 0.04 0.04 0.04 0.05 0.10 0.07 0.06 0.06 0.09 0.14 0.26 0.38 0.46 0.46 0.43 0.36 0.27 0.22 0.21 0.23 0.26 0.25 0.25 0.22 0.22 0.22 0.25 0.28 0.32 0.32 0.33 0.38 0.39 0.38 0.34 0.27
0.18 0.27 0.43 0.49 0.33 0.20 0.07 0.02 0.01 0.00 0.01 0.02 0.03 0.04 0.04 0.06 0.05 0.07 0.08 0.07 0.08 0.11 0.17 0.26 0.37 0.47 0.50 0.49 0.42 0.37 0.34 0.31 0.31 0.34 0.34 0.34 0.29 0.27 0.27 0.28 0.28 0.29 0.28 0.28 0.29 0.26 0.23 0.16 0.12
0.30 0.44 0.61 0.55 0.36 0.19 0.07 0.02 0.01 0.01 0.02 0.03 0.03 0.04 0.05 0.09 0.08 0.07 0.09 0.10 0.15 0.19 0.22 0.33 0.42 0.47 0.51 0.51 0.49 0.46 0.43 0.42 0.41 0.41 0.41 0.44 0.40 0.35 0.32 0.29 0.27 0.24 0.21 0.20 0.21 0.17 0.13 0.09 0.07
0.52 0.68 0.70 0.56 0.35 0.15 0.07 0.03 0.02 0.03 0.03 0.03 0.04 0.08 0.10 0.11 0.12 0.12 0.13 0.16 0.20 0.25 0.28 0.39 0.47 0.50 0.49 0.50 0.49 0.49 0.47 0.47 0.47 0.42 0.43 0.49 0.52 0.46 0.37 0.31 0.26 0.20 0.18 0.16 0.15 0.12 0.10 0.08 0.06
0.77 0.89 0.73 0.56 0.32 0.13 0.06 0.05 0.04 0.04 0.04 0.04 0.06 0.11 0.15 0.15 0.16 0.22 0.27 0.26 0.27 0.31 0.34 0.45 0.58 0.64 0.62 0.60 0.56 0.50 0.50 0.49 0.50 0.46 0.45 0.50 0.54 0.54 0.43 0.33 0.25 0.18 0.16 0.15 0.13 0.10 0.09 0.08 0.07
1.01 1.02 0.79 0.51 0.28 0.13 0.06 0.06 0.06 0.06 0.06 0.08 0.10 0.16 0.24 0.22 0.25 0.29 0.39 0.40 0.39 0.40 0.45 0.56 0.71 0.76 0.75 0.72 0.66 0.61 0.58 0.55 0.54 0.54 0.56 0.55 0.55 0.56 0.45 0.32 0.26 0.23 0.18 0.16 0.13 0.11 0.09 0.08 0.08
1.00 1.01 0.76 0.39 0.23 0.17 0.09 0.08 0.09 0.08 0.08 0.10 0.13 0.24 0.33 0.36 0.44 0.44 0.50 0.58 0.60 0.58 0.62 0.71 0.78 0.84 0.89 0.81 0.70 0.67 0.64 0.64 0.60 0.59 0.62 0.58 0.55 0.51 0.41 0.29 0.26 0.25 0.23 0.19 0.16 0.14 0.12 0.10 0.09
0.98 1.07 0.75 0.38 0.22 0.20 0.14 0.12 0.12 0.12 0.11 0.11 0.18 0.29 0.37 0.43 0.57 0.67 0.72 0.78 0.82 0.79 0.75 0.77 0.81 0.85 0.94 0.94 0.79 0.67 0.61 0.61 0.63 0.63 0.60 0.50 0.46 0.48 0.42 0.26 0.23 0.24 0.23 0.20 0.18 0.15 0.15 0.13 0.10
1.00 1.08 0.72 0.39 0.26 0.21 0.19 0.20 0.17 0.15 0.19 0.20 0.26 0.31 0.38 0.50 0.73 0.93 1.01 1.01 1.08 1.08 0.98 0.88 0.90 0.88 0.93 0.98 0.88 0.78 0.68 0.63 0.61 0.61 0.55 0.50 0.49 0.46 0.41 0.27 0.17 0.20 0.20 0.19 0.19 0.18 0.17 0.15 0.11
1.01 0.87 0.53 0.34 0.29 0.28 0.25 0.26 0.25 0.25 0.30 0.35 0.41 0.45 0.55 0.74 1.04 1.16 1.16 1.15 1.20 1.24 1.17 1.03 0.96 0.95 1.01 1.00 1.00 0.97 0.84 0.72 0.64 0.58 0.59 0.56 0.51 0.50 0.43 0.34 0.21 0.19 0.19 0.18 0.20 0.20 0.21 0.16 0.12
0.72 0.62 0.46 0.37 0.33 0.33 0.32 0.29 0.29 0.33 0.36 0.36 0.42 0.55 0.77 1.01 1.30 1.38 1.43 1.43 1.41 1.42 1.39 1.25 1.11 1.08 1.06 1.02 0.99 1.02 0.91 0.81 0.74 0.67 0.64 0.63 0.60 0.53 0.53 0.45 0.34 0.28 0.20 0.20 0.20 0.21 0.18 0.15 0.14
0.51 0.43 0.42 0.42 0.36 0.35 0.37 0.37 0.36 0.32 0.34 0.35 0.42 0.55 0.81 1.09 1.30 1.41 1.53 1.60 1.67 1.68 1.67 1.49 1.33 1.23 1.18 1.10 0.97 0.92 0.89 0.82 0.74 0.67 0.69 0.69 0.64 0.54 0.50 0.47 0.37 0.32 0.25 0.22 0.22 0.20 0.17 0.14 0.15
0.42 0.36 0.36 0.44 0.43 0.38 0.36 0.37 0.41 0.33 0.33 0.37 0.45 0.63 0.86 1.16 1.41 1.59 1.74 1.76 1.88 1.95 1.94 1.85 1.59 1.38 1.26 1.20 1.11 0.94 0.81 0.73 0.73 0.70 0.66 0.62 0.57 0.50 0.47 0.47 0.45 0.39 0.30 0.24 0.23 0.23 0.20 0.17 0.16
0.35 0.34 0.40 0.46 0.50 0.41 0.40 0.41 0.42 0.36 0.33 0.43 0.52 0.67 0.84 1.16 1.53 1.73 1.91 2.00 1.95 2.11 2.21 2.21 1.91 1.59 1.35 1.25 1.18 1.05 0.86 0.74 0.74 0.74 0.68 0.64 0.56 0.50 0.49 0.43 0.43 0.41 0.37 0.33 0.28 0.25 0.27 0.25 0.22
0.38 0.47 0.51 0.52 0.54 0.46 0.48 0.56 0.46 0.38 0.34 0.42 0.50 0.64 0.80 1.11 1.46 1.72 1.88 2.00 2.10 2.19 2.37 2.43 2.28 1.97 1.55 1.34 1.25 1.16 1.02 0.87 0.77 0.73 0.71 0.70 0.66 0.60 0.58 0.51 0.47 0.43 0.42 0.41 0.37 0.34 0.35 0.33 0.29
0.61 0.74 0.70 0.50 0.53 0.51 0.58 0.63 0.43 0.39 0.39 0.40 0.46 0.60 0.75 0.94 1.26 1.55 1.83 1.96 2.09 2.25 2.37 2.45 2.42 2.26 1.88 1.48 1.32 1.22 1.15 1.04 0.90 0.84 0.83 0.78 0.74 0.71 0.71 0.63 0.53 0.49 0.52 0.50 0.43 0.38 0.38 0.33 0.31
0.83 0.69 0.56 0.43 0.43 0.52 0.52 0.55 0.44 0.39 0.39 0.37 0.39 0.50 0.71 0.86 1.06 1.28 1.61 1.84 1.92 2.12 2.30 2.52 2.47 2.35 2.16 1.85 1.59 1.44 1.30 1.21 1.09 0.93 0.86 0.90 0.89 0.86 0.83 0.71 0.59 0.55 0.56 0.54 0.53 0.47 0.43 0.37 0.32
0.61 0.39 0.36 0.38 0.39 0.44 0.41 0.35 0.38 0.41 0.41 0.38 0.41 0.46 0.61 0.79 0.85 1.02 1.30 1.65 1.77 1.96 2.18 2.36 2.62 2.56 2.52 2.42 2.10 1.77 1.57 1.37 1.24 1.09 0.96 0.94 0.95 0.95 0.95 0.86 0.74 0.70 0.64 0.56 0.54 0.53 0.53 0.49 0.44
0.47 0.37 0.30 0.26 0.31 0.39 0.36 0.30 0.32 0.34 0.39 0.39 0.40 0.44 0.48 0.62 0.73 0.89 1.14 1.46 1.68 1.79 2.01 2.13 2.34 2.53 2.58 2.48 2.17 1.82 1.59 1.52 1.46 1.32 1.19 1.12 1.06 1.02 1.01 0.98 0.91 0.81 0.72 0.64 0.60 0.60 0.58 0.58 0.60
0.61 0.53 0.38 0.26 0.24 0.35 0.36 0.32 0.31 0.33 0.38 0.37 0.37 0.39 0.42 0.49 0.57 0.72 0.99 1.20 1.39 1.56 1.71 1.95 2.02 2.27 2.33 2.27 2.22 2.05 1.94 1.83 1.72 1.62 1.42 1.30 1.25 1.15 1.06 1.00 0.99 0.91 0.83 0.79 0.79 0.77 0.72 0.67 0.68
0.66 0.54 0.44 0.36 0.30 0.36 0.41 0.38 0.30 0.30 0.32 0.29 0.29 0.30 0.37 0.42 0.47 0.59 0.79 1.00 1.12 1.30 1.56 1.68 1.75 1.98 2.20 2.28 2.41 2.49 2.44 2.13 1.86 1.69 1.61 1.49 1.42 1.33 1.20 1.09 1.07 1.05 0.94 0.86 0.89 0.93 0.92 0.92 0.91
0.66 0.40 0.44 0.46 0.55 0.52 0.39 0.48 0.34 0.26 0.25 0.26 0.28 0.26 0.30 0.37 0.41 0.48 0.55 0.72 0.85 0.98 1.29 1.62 1.76 1.89 2.09 2.36 2.37 2.31 2.18 1.97 1.71 1.69 1.74 1.71 1.61 1.51 1.36 1.27 1.20 1.18 1.13 1.04 1.05 1.08 1.12 1.16 1.14
0.59 0.40 0.47 0.56 0.65 0.61 0.38 0.39 0.33 0.21 0.23 0.25 0.28 0.27 0.33 0.42 0.46 0.45 0.47 0.59 0.71 0.82 1.03 1.30 1.59 1.83 2.02 2.15 2.21 2.26 2.12 1.94 1.89 1.82 1.78 1.70 1.59 1.54 1.46 1.40 1.37 1.33 1.30 1.29 1.31 1.29 1.27 1.26 1.24
0.66 0.67 0.72 0.76 0.93 0.88 0.36 0.34 0.32 0.24 0.27 0.28 0.28 0.29 0.36 0.43 0.47 0.45 0.45 0.54 0.66 0.72 0.85 1.03 1.29 1.48 1.69 1.89 1.99 2.05 2.05 2.05 2.01 1.83 1.75 1.75 1.72 1.64 1.54 1.52 1.52 1.52 1.49 1.45 1.44 1.45 1.47 1.45 1.39
0.97 1.30 1.67 1.57 1.30 0.68 0.24 0.28 0.27 0.22 0.30 0.34 0.33 0.35 0.37 0.38 0.40 0.40 0.43 0.49 0.59 0.66 0.75 0.85 0.96 1.09 1.27 1.45 1.60 1.70 1.82 1.93 1.86 1.76 1.63 1.62 1.61 1.56 1.51 1.48 1.52 1.57 1.55 1.56 1.57 1.57 1.53 1.55 1.56
0.95 1.12 1.31 1.07 0.65 0.34 0.20 0.23 0.23 0.23 0.32 0.37 0.36 0.35 0.34 0.38 0.40 0.38 0.38 0.43 0.52 0.57 0.64 0.71 0.78 0.85 1.00 1.14 1.26 1.41 1.56 1.75 1.74 1.72 1.57 1.46 1.42 1.42 1.49 1.43 1.37 1.39 1.45 1.49 1.51 1.51 1.49 1.48 1.46
0.86 0.84 0.73 0.91 0.59 0.34 0.21 0.16 0.14 0.17 0.23 0.30 0.32 0.30 0.29 0.38 0.40 0.38 0.37 0.38 0.46 0.49 0.54 0.63 0.73 0.78 0.85 0.97 1.11 1.22 1.32 1.43 1.50 1.57 1.59 1.46 1.38 1.38 1.39 1.34 1.27 1.19 1.19 1.27 1.36 1.37 1.37 1.38 1.38
0.71 0.67 0.83 1.17 0.92 0.50 0.21 0.12 0.17 0.19 0.20 0.28 0.31 0.33 0.35 0.40 0.40 0.36 0.38 0.42 0.46 0.47 0.48 0.56 0.71 0.74 0.75 0.81 0.91 1.01 1.11 1.26 1.35 1.39 1.39 1.36 1.32 1.33 1.32 1.25 1.16 1.10 1.07 1.06 1.13 1.16 1.15 1.20 1.19
0.64 0.80 0.93 0.94 0.70 0.61 0.38 0.24 0.23 0.24 0.21 0.25 0.30 0.33 0.36 0.40 0.41 0.40 0.44 0.50 0.53 0.48 0.50 0.56 0.62 0.73 0.77 0.78 0.82 0.87 0.88 0.96 1.12 1.23 1.25 1.26 1.24 1.23 1.22 1.18 1.14 1.08 1.02 0.97 0.96 0.94 0.98 1.04 1.06
0.51 0.50 0.69 1.00 0.73 0.52 0.46 0.35 0.24 0.24 0.22 0.23 0.28 0.31 0.33 0.35 0.37 0.42 0.49 0.52 0.52 0.54 0.56 0.60 0.62 0.68 0.78 0.79 0.79 0.83 0.85 0.86 0.94 1.04 1.14 1.20 1.27 1.21 1.18 1.15 1.10 1.05 1.00 0.96 0.94 0.89 0.88 0.92 0.96

GEFSSGP_prec_meanprecacc_180.txt.gz
Total_Precipitation_Accumulation
0.15 0.16 0.23 0.34 0.31 0.20 0.08 0.02 0.01 0.01 0.01 0.02 0.03 0.04 0.05 0.05 0.06 0.12 0.08 0.06 0.06 0.09 0.15 0.28 0.41 0.50 0.47 0.43 0.36 0.27 0.22 0.21 0.24 0.28 0.28 0.27 0.24 0.23 0.24 0.26 0.30 0.33 0.34 0.35 0.41 0.41 0.41 0.36 0.29
0.18 0.27 0.44 0.51 0.34 0.21 0.08 0.02 0.01 0.01 0.02 0.02 0.03 0.04 0.04 0.06 0.05 0.07 0.09 0.08 0.09 0.12 0.19 0.28 0.39 0.50 0.52 0.49 0.43 0.37 0.34 0.31 0.31 0.35 0.36 0.37 0.32 0.28 0.27 0.29 0.30 0.30 0.29 0.30 0.32 0.28 0.26 0.18 0.15
0.31 0.45 0.64 0.57 0.38 0.20 0.07 0.02 0.01 0.01 0.02 0.03 0.04 0.04 0.05 0.09 0.08 0.08 0.11 0.13 0.17 0.21 0.25 0.37 0.45 0.51 0.54 0.53 0.51 0.47 0.43 0.42 0.41 0.41 0.42 0.46 0.44 0.37 0.33 0.30 0.28 0.25 0.23 0.21 0.22 0.18 0.14 0.11 0.09
0.53 0.70 0.74 0.60 0.37 0.16 0.07 0.03 0.02 0.03 0.03 0.03 0.04 0.08 0.10 0.11 0.13 0.13 0.15 0.18 0.23 0.29 0.31 0.44 0.52 0.54 0.54 0.53 0.51 0.50 0.48 0.47 0.47 0.43 0.43 0.49 0.53 0.49 0.39 0.32 0.27 0.21 0.20 0.18 0.16 0.13 0.12 0.10 0.08
0.79 0.91 0.76 0.58 0.34 0.14 0.07 0.05 0.05 0.05 0.05 0.05 0.06 0.11 0.15 0.16 0.17 0.23 0.29 0.30 0.33 0.37 0.40 0.52 0.65 0.69 0.66 0.64 0.59 0.53 0.52 0.51 0.51 0.46 0.45 0.50 0.56 0.57 0.46 0.34 0.26 0.20 0.17 0.16 0.13 0.11 0.10 0.10 0.09
1.04 1.04 0.80 0.52 0.28 0.14 0.07 0.07 0.07 0.07 0.07 0.09 0.11 0.16 0.24 0.23 0.26 0.31 0.42 0.43 0.45 0.48 0.53 0.64 0.78 0.82 0.79 0.76 0.70 0.64 0.61 0.57 0.56 0.55 0.58 0.55 0.56 0.58 0.49 0.34 0.28 0.25 0.19 0.17 0.14 0.12 0.11 0.10 0.09
1.03 1.03 0.77 0.39 0.23 0.17 0.10 0.09 0.10 0.09 0.10 0.11 0.15 0.24 0.34 0.38 0.46 0.46 0.54 0.61 0.64 0.67 0.72 0.80 0.85 0.90 0.93 0.84 0.74 0.71 0.67 0.66 0.62 0.61 0.64 0.59 0.56 0.53 0.45 0.31 0.27 0.27 0.25 0.20 0.17 0.16 0.14 0.12 0.11
1.02 1.10 0.76 0.39 0.23 0.21 0.15 0.13 0.13 0.14 0.13 0.12 0.20 0.30 0.38 0.44 0.59 0.70 0.76 0.81 0.86 0.87 0.87 0.87 0.88 0.92 0.99 0.97 0.82 0.70 0.64 0.63 0.65 0.65 0.62 0.51 0.47 0.49 0.44 0.28 0.25 0.27 0.26 0.22 0.19 0.17 0.16 0.14 0.11
1.04 1.11 0.73 0.40 0.28 0.23 0.21 0.23 0.19 0.16 0.20 0.21 0.27 0.32 0.39 0.53 0.75 0.95 1.04 1.05 1.11 1.15 1.08 0.99 0.96 0.94 0.98 1.03 0.92 0.81 0.70 0.66 0.63 0.63 0.57 0.51 0.51 0.48 0.42 0.27 0.18 0.22 0.23 0.21 0.20 0.20 0.18 0.15 0.12
1.05 0.91 0.54 0.35 0.31 0.29 0.26 0.28 0.27 0.27 0.30 0.35 0.41 0.46 0.57 0.77 1.07 1.19 1.20 1.19 1.23 1.29 1.23 1.13 1.04 1.01 1.05 1.06 1.06 1.01 0.86 0.74 0.65 0.59 0.61 0.57 0.53 0.51 0.44 0.35 0.21 0.20 0.21 0.21 0.21 0.21 0.22 0.18 0.13
0.75 0.65 0.48 0.38 0.33 0.33 0.33 0.31 0.32 0.35 0.38 0.37 0.43 0.56 0.79 1.05 1.35 1.42 1.47 1.48 1.44 1.46 1.42 1.31 1.18 1.14 1.11 1.07 1.05 1.07 0.93 0.83 0.76 0.69 0.66 0.65 0.61 0.55 0.55 0.46 0.35 0.29 0.22 0.22 0.21 0.22 0.19 0.16 0.15
0.55 0.45 0.44 0.43 0.36 0.36 0.38 0.39 0.39 0.36 0.36 0.36 0.43 0.57 0.83 1.13 1.34 1.45 1.57 1.63 1.69 1.70 1.69 1.51 1.38 1.29 1.23 1.14 1.02 0.97 0.93 0.85 0.76 0.69 0.72 0.72 0.67 0.57 0.52 0.49 0.39 0.33 0.26 0.24 0.23 0.21 0.18 0.15 0.15
0.45 0.37 0.37 0.44 0.44 0.39 0.37 0.39 0.44 0.36 0.35 0.39 0.46 0.65 0.88 1.19 1.43 1.61 1.76 1.78 1.89 1.96 1.95 1.86 1.60 1.41 1.30 1.24 1.15 0.99 0.86 0.76 0.76 0.74 0.69 0.65 0.60 0.53 0.50 0.50 0.47 0.40 0.31 0.26 0.25 0.24 0.21 0.18 0.16
0.36 0.35 0.41 0.47 0.52 0.43 0.41 0.42 0.45 0.39 0.36 0.45 0.54 0.70 0.86 1.19 1.55 1.74 1.93 2.02 1.96 2.12 2.22 2.22 1.92 1.60 1.37 1.29 1.23 1.10 0.91 0.79 0.76 0.76 0.71 0.67 0.60 0.53 0.53 0.47 0.46 0.43 0.40 0.35 0.30 0.27 0.29 0.26 0.23
0.39 0.48 0.52 0.53 0.56 0.47 0.49 0.57 0.48 0.41 0.37 0.44 0.52 0.66 0.83 1.13 1.49 1.74 1.90 2.02 2.11 2.21 2.38 2.44 2.29 1.97 1.56 1.36 1.27 1.19 1.06 0.93 0.83 0.75 0.72 0.71 0.68 0.62 0.60 0.55 0.51 0.47 0.45 0.44 0.41 0.38 0.38 0.34 0.30
0.62 0.75 0.71 0.50 0.54 0.52 0.59 0.64 0.44 0.40 0.40 0.41 0.47 0.61 0.77 0.97 1.30 1.58 1.86 1.99 2.12 2.27 2.38 2.46 2.43 2.27 1.89 1.50 1.36 1.26 1.17 1.07 0.95 0.88 0.85 0.79 0.75 0.72 0.72 0.65 0.56 0.52 0.55 0.53 0.46 0.42 0.41 0.35 0.31
0.85 0.71 0.57 0.43 0.43 0.53 0.52 0.55 0.45 0.39 0.40 0.38 0.40 0.51 0.73 0.89 1.09 1.33 1.65 1.89 1.96 2.15 2.32 2.54 2.48 2.36 2.16 1.86 1.61 1.47 1.33 1.24 1.12 0.97 0.89 0.91 0.89 0.86 0.84 0.71 0.61 0.57 0.58 0.56 0.56 0.50 0.45 0.39 0.33
0.63 0.40 0.37 0.39 0.40 0.45 0.41 0.35 0.38 0.41 0.42 0.39 0.41 0.47 0.62 0.81 0.88 1.06 1.35 1.71 1.82 1.99 2.21 2.39 2.63 2.57 2.53 2.43 2.11 1.78 1.59 1.39 1.27 1.11 0.98 0.95 0.95 0.95 0.95 0.86 0.75 0.72 0.65 0.58 0.55 0.55 0.55 0.51 0.46
0.49 0.39 0.32 0.28 0.32 0.40 0.36 0.30 0.33 0.34 0.40 0.39 0.40 0.44 0.49 0.63 0.74 0.92 1.18 1.51 1.72 1.83 2.04 2.16 2.37 2.55 2.59 2.49 2.18 1.83 1.60 1.53 1.48 1.34 1.20 1.12 1.06 1.02 1.01 0.99 0.91 0.83 0.74 0.66 0.62 0.61 0.60 0.59 0.62
0.62 0.55 0.39 0.28 0.25 0.35 0.36 0.32 0.31 0.33 0.38 0.37 0.38 0.39 0.43 0.50 0.58 0.73 1.03 1.23 1.42 1.60 1.74 1.96 2.04 2.29 2.35 2.28 2.23 2.06 1.95 1.84 1.73 1.63 1.43 1.30 1.25 1.15 1.06 1.01 0.99 0.92 0.85 0.81 0.81 0.78 0.73 0.68 0.70
0.66 0.55 0.45 0.38 0.33 0.38 0.43 0.39 0.31 0.31 0.32 0.29 0.29 0.30 0.37 0.43 0.47 0.60 0.82 1.03 1.14 1.33 1.59 1.70 1.77 2.00 2.22 2.30 2.43 2.51 2.45 2.14 1.87 1.70 1.61 1.49 1.42 1.33 1.20 1.09 1.08 1.06 0.96 0.88 0.91 0.94 0.93 0.93 0.92
0.67 0.40 0.44 0.48 0.58 0.55 0.41 0.51 0.35 0.27 0.26 0.26 0.28 0.26 0.30 0.37 0.42 0.48 0.57 0.75 0.88 1.01 1.33 1.65 1.78 1.91 2.11 2.38 2.38 2.32 2.20 1.98 1.72 1.70 1.75 1.71 1.61 1.51 1.36 1.27 1.20 1.18 1.14 1.06 1.07 1.09 1.13 1.17 1.15
0.60 0.41 0.48 0.57 0.66 0.62 0.39 0.40 0.34 0.22 0.23 0.25 0.28 0.27 0.33 0.43 0.46 0.45 0.48 0.60 0.73 0.84 1.07 1.36 1.62 1.85 2.05 2.18 2.23 2.28 2.13 1.96 1.90 1.83 1.79 1.70 1.59 1.54 1.46 1.40 1.37 1.33 1.31 1.30 1.33 1.31 1.29 1.28 1.26
0.67 0.67 0.73 0.77 0.94 0.89 0.37 0.34 0.32 0.24 0.27 0.28 0.28 0.30 0.36 0.43 0.48 0.45 0.45 0.54 0.67 0.73 0.87 1.08 1.33 1.51 1.72 1.93 2.03 2.09 2.08 2.08 2.02 1.84 1.75 1.75 1.72 1.64 1.54 1.52 1.52 1.52 1.49 1.46 1.44 1.45 1.48 1.46 1.41
0.97 1.31 1.69 1.59 1.31 0.69 0.24 0.28 0.27 0.22 0.30 0.34 0.33 0.35 0.37 0.38 0.40 0.40 0.43 0.50 0.60 0.67 0.77 0.87 0.99 1.12 1.29 1.48 1.64 1.74 1.85 1.96 1.89 1.78 1.64 1.62 1.61 1.56 1.51 1.48 1.52 1.58 1.56 1.56 1.58 1.58 1.53 1.56 1.57
0.95 1.12 1.33 1.09 0.66 0.34 0.21 0.23 0.23 0.23 0.32 0.37 0.36 0.35 0.34 0.38 0.40 0.38 0.38 0.43 0.52 0.57 0.65 0.73 0.80 0.88 1.02 1.15 1.28 1.44 1.59 1.77 1.76 1.73 1.58 1.46 1.42 1.42 1.49 1.43 1.37 1.40 1.47 1.51 1.52 1.52 1.49 1.49 1.47
0.87 0.84 0.74 0.92 0.60 0.34 0.22 0.16 0.14 0.17 0.23 0.30 0.32 0.30 0.29 0.38 0.40 0.38 0.37 0.38 0.46 0.50 0.54 0.63 0.75 0.80 0.88 1.00 1.12 1.24 1.34 1.45 1.52 1.58 1.60 1.46 1.38 1.38 1.39 1.34 1.27 1.20 1.21 1.29 1.38 1.39 1.38 1.39 1.39
0.71 0.67 0.84 1.18 0.93 0.50 0.21 0.12 0.17 0.19 0.20 0.28 0.31 0.33 0.36 0.40 0.40 0.37 0.38 0.42 0.46 0.47 0.48 0.56 0.71 0.75 0.77 0.84 0.93 1.02 1.12 1.27 1.36 1.39 1.40 1.36 1.33 1.34 1.32 1.25 1.17 1.11 1.07 1.07 1.14 1.17 1.16 1.20 1.20
0.65 0.80 0.93 0.94 0.71 0.61 0.38 0.24 0.23 0.24 0.21 0.25 0.30 0.33 0.37 0.40 0.41 0.40 0.44 0.50 0.53 0.48 0.50 0.56 0.63 0.73 0.79 0.79 0.84 0.88 0.89 0.97 1.12 1.23 1.25 1.26 1.24 1.23 1.22 1.18 1.14 1.08 1.02 0.97 0.96 0.95 0.98 1.05 1.06
0.51 0.51 0.69 1.00 0.73 0.52 0.46 0.35 0.24 0.24 0.22 0.23 0.28 0.31 0.33 0.35 0.37 0.42 0.49 0.52 0.52 0.54 0.57 0.60 0.62 0.68 0.78 0.80 0.80 0.84 0.86 0.86 0.95 1.04 1.14 1.21 1.28 1.21 1.18 1.15 1.10 1.05 1.00 0.96 0.94 0.89 0.89 0.93 0.96

GEFSSGP_prec_meanprecacc_186.txt.gz
Total_Precipitation_Accumulation
0.16 0.17 0.25 0.37 0.34 0.22 0.09 0.02 0.01 0.01 0.01 0.02 0.03 0.05 0.05 0.05 0.06 0.12 0.08 0.06 0.07 0.10 0.17 0.31 0.47 0.56 0.52 0.45 0.37 0.28 0.22 0.22 0.26 0.29 0.29 0.29 0.27 0.25 0.25 0.28 0.32 0.35 0.35 0.36 0.42 0.43 0.42 0.37 0.29
0.19 0.28 0.46 0.53 0.38 0.23 0.08 0.02 0.01 0.01 0.02 0.02 0.04 0.05 0.05 0.06 0.05 0.08 0.10 0.08 0.09 0.13 0.21 0.33 0.46 0.60 0.58 0.52 0.44 0.38 0.35 0.32 0.33 0.36 0.37 0.38 0.34 0.31 0.30 0.30 0.32 0.32 0.30 0.30 0.32 0.30 0.27 0.19 0.15
0.32 0.47 0.65 0.59 0.42 0.22 0.08 0.02 0.02 0.01 0.02 0.04 0.04 0.05 0.06 0.10 0.09 0.09 0.12 0.14 0.19 0.23 0.28 0.43 0.52 0.62 0.64 0.58 0.53 0.49 0.45 0.44 0.42 0.42 0.43 0.47 0.45 0.39 0.36 0.33 0.30 0.27 0.24 0.22 0.22 0.19 0.15 0.11 0.09
0.55 0.72 0.75 0.61 0.40 0.18 0.08 0.04 0.03 0.04 0.04 0.04 0.05 0.09 0.11 0.12 0.14 0.14 0.17 0.20 0.26 0.31 0.35 0.50 0.60 0.66 0.68 0.61 0.56 0.53 0.50 0.49 0.48 0.44 0.44 0.50 0.54 0.50 0.41 0.36 0.29 0.23 0.21 0.19 0.16 0.14 0.12 0.10 0.08
0.82 0.93 0.78 0.59 0.35 0.16 0.08 0.06 0.05 0.06 0.06 0.05 0.07 0.12 0.16 0.16 0.18 0.25 0.31 0.33 0.38 0.42 0.46 0.59 0.73 0.82 0.80 0.73 0.66 0.57 0.55 0.53 0.53 0.48 0.46 0.51 0.56 0.57 0.48 0.37 0.29 0.21 0.18 0.17 0.14 0.12 0.11 0.10 0.09
1.06 1.08 0.83 0.53 0.29 0.15 0.07 0.07 0.08 0.08 0.09 0.10 0.13 0.17 0.26 0.24 0.27 0.33 0.46 0.47 0.51 0.53 0.61 0.74 0.88 0.93 0.93 0.85 0.77 0.71 0.65 0.60 0.58 0.58 0.59 0.57 0.57 0.59 0.50 0.36 0.29 0.26 0.21 0.18 0.16 0.13 0.12 0.11 0.10
1.06 1.08 0.80 0.40 0.24 0.17 0.10 0.09 0.11 0.11 0.11 0.13 0.17 0.26 0.35 0.39 0.47 0.49 0.58 0.66 0.71 0.74 0.81 0.90 0.97 1.01 1.05 0.94 0.84 0.79 0.75 0.70 0.65 0.64 0.66 0.61 0.57 0.55 0.46 0.33 0.28 0.28 0.26 0.21 0.18 0.17 0.15 0.13 0.12
1.06 1.16 0.79 0.40 0.23 0.21 0.15 0.13 0.14 0.15 0.14 0.14 0.22 0.32 0.39 0.45 0.61 0.72 0.79 0.85 0.92 0.95 0.98 0.99 1.01 1.05 1.10 1.06 0.92 0.80 0.73 0.69 0.70 0.68 0.63 0.53 0.48 0.51 0.46 0.30 0.27 0.28 0.27 0.23 0.20 0.17 0.16 0.15 0.12
1.06 1.14 0.77 0.42 0.29 0.24 0.21 0.23 0.20 0.16 0.22 0.23 0.28 0.33 0.41 0.55 0.77 0.98 1.07 1.09 1.17 1.23 1.19 1.12 1.10 1.07 1.09 1.12 1.00 0.92 0.82 0.75 0.71 0.69 0.60 0.53 0.52 0.50 0.45 0.29 0.20 0.23 0.25 0.22 0.21 0.20 0.18 0.16 0.13
1.07 0.92 0.56 0.37 0.31 0.29 0.26 0.29 0.28 0.28 0.32 0.37 0.43 0.48 0.59 0.80 1.10 1.22 1.24 1.24 1.29 1.36 1.34 1.27 1.20 1.19 1.18 1.15 1.13 1.10 0.97 0.86 0.77 0.68 0.66 0.60 0.55 0.54 0.47 0.37 0.23 0.21 0.23 0.23 0.23 0.22 0.23 0.18 0.13
0.76 0.66 0.48 0.39 0.34 0.34 0.34 0.32 0.32 0.37 0.39 0.39 0.44 0.58 0.81 1.08 1.39 1.45 1.51 1.54 1.51 1.53 1.51 1.44 1.35 1.37 1.29 1.18 1.13 1.14 1.03 0.95 0.88 0.80 0.75 0.70 0.64 0.56 0.58 0.49 0.37 0.31 0.23 0.24 0.23 0.23 0.20 0.17 0.16
0.56 0.46 0.44 0.43 0.37 0.37 0.39 0.40 0.41 0.40 0.38 0.38 0.44 0.58 0.85 1.16 1.39 1.49 1.63 1.70 1.77 1.78 1.79 1.63 1.53 1.51 1.45 1.28 1.10 1.04 1.00 0.93 0.87 0.80 0.83 0.81 0.73 0.59 0.53 0.51 0.41 0.36 0.28 0.26 0.25 0.22 0.19 0.16 0.17
0.46 0.38 0.38 0.45 0.45 0.40 0.38 0.40 0.46 0.39 0.37 0.41 0.48 0.66 0.90 1.22 1.48 1.65 1.82 1.86 1.96 2.03 2.03 1.95 1.72 1.59 1.51 1.41 1.25 1.06 0.92 0.82 0.82 0.83 0.79 0.76 0.68 0.58 0.52 0.51 0.49 0.43 0.34 0.28 0.27 0.25 0.22 0.19 0.18
0.37 0.36 0.42 0.48 0.53 0.43 0.42 0.43 0.46 0.41 0.38 0.47 0.56 0.72 0.89 1.22 1.60 1.78 1.97 2.08 2.03 2.18 2.29 2.29 1.99 1.71 1.53 1.43 1.34 1.18 0.99 0.86 0.82 0.82 0.78 0.75 0.69 0.60 0.56 0.50 0.49 0.46 0.42 0.39 0.34 0.30 0.30 0.27 0.24
0.40 0.49 0.53 0.54 0.57 0.48 0.49 0.58 0.50 0.43 0.40 0.47 0.54 0.69 0.85 1.16 1.53 1.77 1.94 2.05 2.16 2.27 2.44 2.49 2.34 2.03 1.65 1.47 1.36 1.26 1.12 1.00 0.90 0.80 0.76 0.77 0.75 0.70 0.65 0.59 0.53 0.50 0.48 0.48 0.45 0.42 0.41 0.36 0.31
0.62 0.76 0.72 0.52 0.54 0.53 0.60 0.65 0.46 0.43 0.46 0.44 0.49 0.63 0.79 0.99 1.33 1.62 1.89 2.02 2.15 2.32 2.44 2.51 2.46 2.30 1.93 1.57 1.42 1.30 1.21 1.11 1.02 0.95 0.89 0.84 0.81 0.79 0.78 0.68 0.59 0.55 0.59 0.57 0.51 0.46 0.45 0.38 0.34
0.87 0.71 0.57 0.44 0.44 0.54 0.53 0.57 0.48 0.44 0.47 0.42 0.42 0.52 0.74 0.89 1.11 1.35 1.68 1.92 1.99 2.19 2.38 2.60 2.51 2.39 2.18 1.89 1.65 1.51 1.35 1.26 1.16 1.02 0.95 0.97 0.94 0.92 0.88 0.73 0.63 0.60 0.61 0.59 0.59 0.55 0.50 0.43 0.37
0.65 0.41 0.37 0.39 0.41 0.46 0.42 0.38 0.42 0.47 0.47 0.42 0.43 0.48 0.63 0.82 0.89 1.08 1.36 1.73 1.85 2.02 2.26 2.45 2.67 2.59 2.55 2.45 2.14 1.80 1.61 1.41 1.30 1.14 1.01 0.99 1.00 1.00 0.99 0.88 0.76 0.73 0.67 0.60 0.58 0.58 0.61 0.57 0.51
0.50 0.39 0.32 0.28 0.32 0.41 0.37 0.32 0.36 0.37 0.43 0.41 0.41 0.45 0.50 0.64 0.75 0.93 1.19 1.53 1.75 1.86 2.08 2.21 2.40 2.57 2.61 2.51 2.20 1.84 1.61 1.54 1.49 1.34 1.21 1.13 1.08 1.06 1.04 1.01 0.92 0.83 0.76 0.68 0.64 0.62 0.63 0.67 0.71
0.63 0.56 0.40 0.29 0.26 0.36 0.38 0.34 0.33 0.35 0.40 0.39 0.39 0.40 0.43 0.50 0.58 0.74 1.04 1.24 1.45 1.63 1.78 2.02 2.08 2.30 2.36 2.29 2.24 2.06 1.95 1.84 1.73 1.63 1.43 1.30 1.25 1.16 1.08 1.02 1.00 0.92 0.85 0.84 0.86 0.83 0.76 0.72 0.76
0.67 0.56 0.46 0.39 0.34 0.39 0.45 0.42 0.34 0.34 0.34 0.31 0.30 0.31 0.37 0.43 0.47 0.60 0.83 1.04 1.15 1.36 1.62 1.74 1.80 2.02 2.23 2.31 2.43 2.51 2.45 2.14 1.87 1.70 1.61 1.49 1.42 1.33 1.21 1.11 1.08 1.06 0.96 0.89 0.94 0.99 0.99 0.98 0.96
0.67 0.41 0.45 0.49 0.60 0.57 0.44 0.55 0.38 0.30 0.29 0.28 0.29 0.26 0.30 0.38 0.42 0.49 0.57 0.76 0.89 1.03 1.36 1.67 1.80 1.93 2.12 2.38 2.39 2.33 2.20 1.98 1.72 1.70 1.75 1.71 1.61 1.51 1.36 1.27 1.21 1.18 1.14 1.07 1.08 1.11 1.16 1.21 1.19
0.60 0.41 0.48 0.57 0.67 0.64 0.40 0.43 0.37 0.24 0.27 0.28 0.30 0.28 0.33 0.43 0.47 0.46 0.49 0.61 0.75 0.86 1.11 1.39 1.64 1.87 2.07 2.19 2.24 2.28 2.14 1.96 1.91 1.83 1.79 1.70 1.59 1.54 1.46 1.40 1.38 1.33 1.31 1.30 1.34 1.33 1.32 1.32 1.31
0.67 0.67 0.73 0.77 0.96 0.91 0.38 0.36 0.34 0.26 0.29 0.30 0.29 0.30 0.36 0.43 0.48 0.45 0.46 0.55 0.68 0.75 0.90 1.14 1.38 1.53 1.74 1.95 2.04 2.09 2.09 2.08 2.03 1.85 1.76 1.75 1.72 1.64 1.54 1.52 1.52 1.52 1.49 1.46 1.44 1.46 1.50 1.49 1.45
0.97 1.31 1.69 1.60 1.33 0.70 0.25 0.28 0.28 0.23 0.30 0.34 0.33 0.35 0.38 0.38 0.40 0.40 0.43 0.50 0.60 0.69 0.79 0.90 1.05 1.17 1.31 1.50 1.66 1.75 1.87 1.98 1.91 1.80 1.66 1.64 1.61 1.56 1.51 1.48 1.52 1.58 1.56 1.56 1.58 1.58 1.54 1.56 1.58
0.96 1.13 1.33 1.09 0.67 0.34 0.21 0.24 0.23 0.23 0.32 0.37 0.36 0.36 0.34 0.38 0.40 0.38 0.38 0.43 0.52 0.58 0.66 0.74 0.83 0.92 1.07 1.19 1.31 1.47 1.61 1.80 1.80 1.77 1.61 1.48 1.43 1.43 1.49 1.43 1.37 1.40 1.47 1.51 1.52 1.52 1.50 1.49 1.48
0.87 0.84 0.74 0.93 0.60 0.35 0.22 0.16 0.14 0.17 0.23 0.30 0.32 0.30 0.30 0.38 0.40 0.38 0.37 0.38 0.46 0.50 0.54 0.64 0.76 0.82 0.91 1.03 1.16 1.27 1.37 1.47 1.54 1.61 1.63 1.48 1.40 1.39 1.39 1.34 1.27 1.20 1.21 1.29 1.38 1.39 1.38 1.39 1.39
0.71 0.67 0.84 1.18 0.93 0.51 0.21 0.12 0.18 0.19 0.20 0.28 0.31 0.33 0.36 0.40 0.40 0.37 0.38 0.42 0.46 0.47 0.48 0.56 0.71 0.75 0.78 0.86 0.96 1.05 1.15 1.29 1.38 1.41 1.42 1.37 1.34 1.35 1.33 1.26 1.17 1.11 1.08 1.07 1.14 1.17 1.16 1.20 1.20
0.65 0.80 0.94 0.95 0.71 0.61 0.38 0.24 0.23 0.24 0.21 0.25 0.30 0.33 0.37 0.40 0.41 0.40 0.44 0.50 0.53 0.48 0.50 0.56 0.63 0.74 0.79 0.80 0.85 0.90 0.91 0.99 1.14 1.24 1.27 1.27 1.25 1.24 1.23 1.19 1.14 1.09 1.02 0.97 0.96 0.95 0.98 1.05 1.06
0.51 0.51 0.69 1.01 0.74 0.52 0.46 0.35 0.24 0.24 0.22 0.23 0.28 0.31 0.33 0.35 0.37 0.42 0.49 0.52 0.53 0.54 0.57 0.60 0.62 0.68 0.79 0.80 0.81 0.85 0.87 0.87 0.95 1.05 1.15 1.21 1.28 1.21 1.19 1.16 1.11 1.06 1.01 0.97 0.94 0.89 0.89 0.93 0.96

GEFSSGP_prec_meanprecacc_192.txt.gz
Total_Precipitation_Accumulation
0.17 0.19 0.27 0.39 0.36 0.24 0.10 0.03 0.01 0.01 0.01 0.03 0.04 0.06 0.06 0.06 0.09 0.17 0.11 0.07 0.07 0.10 0.18 0.35 0.52 0.62 0.57 0.49 0.40 0.31 0.25 0.25 0.28 0.31 0.30 0.30 0.28 0.28 0.29 0.32 0.34 0.36 0.36 0.37 0.44 0.44 0.42 0.38 0.30
0.20 0.30 0.48 0.55 0.41 0.25 0.10 0.03 0.01 0.01 0.02 0.03 0.05 0.06 0.06 0.08 0.08 0.10 0.12 0.09 0.10 0.13 0.22 0.35 0.50 0.65 0.64 0.58 0.49 0.43 0.40 0.36 0.35 0.38 0.39 0.39 0.35 0.33 0.35 0.35 0.35 0.35 0.31 0.32 0.34 0.30 0.28 0.19 0.16
0.34 0.49 0.67 0.62 0.45 0.25 0.10 0.03 0.02 0.02 0.03 0.04 0.05 0.06 0.08 0.12 0.11 0.13 0.15 0.15 0.20 0.24 0.29 0.44 0.55 0.67 0.69 0.63 0.60 0.55 0.51 0.49 0.47 0.45 0.45 0.48 0.46 0.41 0.39 0.37 0.34 0.30 0.26 0.23 0.24 0.20 0.16 0.12 0.09
0.56 0.74 0.77 0.63 0.45 0.22 0.09 0.05 0.04 0.04 0.04 0.04 0.06 0.11 0.13 0.14 0.16 0.17 0.21 0.23 0.29 0.35 0.39 0.52 0.63 0.72 0.75 0.68 0.63 0.60 0.58 0.56 0.54 0.49 0.48 0.52 0.55 0.52 0.43 0.38 0.32 0.26 0.23 0.20 0.18 0.15 0.13 0.11 0.09
0.82 0.95 0.79 0.61 0.39 0.20 0.09 0.07 0.07 0.07 0.07 0.06 0.08 0.14 0.18 0.18 0.20 0.28 0.36 0.38 0.43 0.47 0.52 0.64 0.77 0.89 0.94 0.86 0.74 0.65 0.62 0.60 0.59 0.53 0.51 0.54 0.59 0.60 0.49 0.39 0.31 0.24 0.21 0.18 0.15 0.12 0.12 0.11 0.10
1.07 1.09 0.85 0.54 0.32 0.20 0.10 0.08 0.09 0.10 0.10 0.11 0.15 0.19 0.28 0.26 0.29 0.37 0.52 0.53 0.57 0.60 0.67 0.80 0.94 1.00 1.08 1.01 0.87 0.79 0.73 0.68 0.63 0.62 0.63 0.61 0.61 0.63 0.52 0.38 0.31 0.28 0.22 0.19 0.17 0.14 0.12 0.11 0.11
1.07 1.09 0.81 0.42 0.27 0.23 0.12 0.10 0.12 0.12 0.13 0.15 0.19 0.28 0.37 0.41 0.50 0.53 0.66 0.74 0.76 0.82 0.90 1.00 1.06 1.08 1.20 1.08 0.92 0.87 0.83 0.79 0.72 0.68 0.69 0.64 0.61 0.60 0.50 0.35 0.30 0.29 0.27 0.22 0.20 0.18 0.16 0.14 0.13
1.06 1.17 0.80 0.40 0.25 0.26 0.17 0.14 0.16 0.17 0.17 0.16 0.24 0.35 0.42 0.49 0.64 0.77 0.87 0.93 0.99 1.04 1.10 1.12 1.13 1.15 1.26 1.22 1.02 0.89 0.82 0.80 0.79 0.74 0.67 0.56 0.52 0.55 0.50 0.33 0.30 0.29 0.27 0.23 0.21 0.18 0.18 0.16 0.13
1.07 1.16 0.78 0.43 0.31 0.27 0.22 0.24 0.21 0.19 0.25 0.26 0.30 0.36 0.44 0.58 0.80 1.02 1.13 1.17 1.26 1.32 1.32 1.30 1.24 1.18 1.23 1.27 1.10 1.00 0.91 0.86 0.81 0.77 0.65 0.56 0.55 0.54 0.48 0.32 0.23 0.26 0.26 0.23 0.22 0.22 0.20 0.17 0.13
1.08 0.93 0.57 0.38 0.33 0.32 0.27 0.29 0.30 0.32 0.36 0.40 0.46 0.51 0.62 0.84 1.13 1.26 1.30 1.31 1.36 1.43 1.46 1.44 1.33 1.31 1.30 1.29 1.24 1.20 1.06 0.96 0.88 0.78 0.74 0.66 0.61 0.59 0.51 0.40 0.25 0.23 0.25 0.25 0.25 0.24 0.24 0.19 0.14
0.77 0.67 0.49 0.39 0.35 0.35 0.35 0.33 0.34 0.40 0.43 0.42 0.47 0.61 0.85 1.12 1.42 1.49 1.57 1.61 1.59 1.60 1.62 1.58 1.48 1.49 1.40 1.32 1.24 1.25 1.13 1.05 0.98 0.89 0.84 0.78 0.71 0.62 0.63 0.55 0.41 0.34 0.26 0.27 0.26 0.26 0.21 0.18 0.17
0.57 0.47 0.45 0.44 0.37 0.38 0.40 0.41 0.42 0.42 0.42 0.42 0.47 0.60 0.88 1.21 1.45 1.53 1.69 1.78 1.88 1.88 1.90 1.75 1.65 1.62 1.56 1.40 1.21 1.12 1.10 1.03 0.96 0.88 0.90 0.88 0.79 0.66 0.59 0.57 0.47 0.40 0.31 0.29 0.28 0.24 0.21 0.18 0.19
0.47 0.39 0.39 0.46 0.45 0.40 0.38 0.41 0.47 0.40 0.39 0.45 0.50 0.68 0.93 1.28 1.57 1.70 1.89 1.95 2.06 2.12 2.13 2.05 1.83 1.70 1.60 1.51 1.37 1.13 1.01 0.92 0.91 0.89 0.86 0.84 0.76 0.64 0.58 0.59 0.57 0.49 0.39 0.34 0.31 0.28 0.24 0.21 0.20
0.38 0.37 0.43 0.48 0.53 0.44 0.42 0.43 0.47 0.43 0.40 0.49 0.57 0.73 0.92 1.26 1.66 1.84 2.06 2.17 2.12 2.28 2.37 2.36 2.09 1.82 1.62 1.51 1.44 1.27 1.06 0.94 0.90 0.88 0.85 0.83 0.77 0.68 0.62 0.56 0.58 0.55 0.50 0.45 0.41 0.35 0.34 0.31 0.27
0.40 0.49 0.54 0.55 0.58 0.48 0.50 0.59 0.50 0.44 0.41 0.48 0.55 0.71 0.87 1.19 1.56 1.82 2.00 2.12 2.25 2.36 2.53 2.57 2.43 2.12 1.73 1.54 1.44 1.34 1.19 1.08 0.98 0.86 0.82 0.83 0.82 0.77 0.72 0.65 0.60 0.58 0.57 0.55 0.53 0.50 0.47 0.41 0.34
0.63 0.77 0.73 0.52 0.54 0.53 0.61 0.66 0.47 0.44 0.47 0.46 0.51 0.65 0.81 1.01 1.36 1.65 1.93 2.06 2.20 2.39 2.53 2.60 2.56 2.39 2.01 1.65 1.51 1.39 1.28 1.19 1.09 1.02 0.96 0.89 0.86 0.85 0.84 0.73 0.64 0.61 0.64 0.62 0.56 0.52 0.51 0.43 0.38
0.87 0.72 0.58 0.44 0.44 0.54 0.55 0.59 0.49 0.45 0.48 0.44 0.44 0.54 0.76 0.91 1.12 1.37 1.70 1.95 2.03 2.24 2.45 2.69 2.62 2.51 2.29 1.98 1.74 1.60 1.43 1.32 1.22 1.07 1.00 1.02 0.99 0.95 0.93 0.78 0.68 0.65 0.65 0.63 0.62 0.58 0.54 0.46 0.41
0.66 0.42 0.38 0.41 0.41 0.46 0.43 0.39 0.43 0.47 0.48 0.44 0.46 0.50 0.65 0.84 0.90 1.10 1.39 1.76 1.88 2.06 2.32 2.53 2.77 2.70 2.66 2.54 2.20 1.87 1.67 1.47 1.35 1.18 1.04 1.02 1.03 1.02 1.03 0.92 0.80 0.77 0.71 0.63 0.60 0.60 0.63 0.60 0.55
0.50 0.40 0.33 0.29 0.33 0.42 0.38 0.33 0.37 0.39 0.45 0.44 0.44 0.47 0.52 0.66 0.77 0.95 1.22 1.55 1.77 1.89 2.13 2.27 2.48 2.64 2.69 2.58 2.24 1.87 1.64 1.58 1.52 1.37 1.23 1.14 1.09 1.07 1.06 1.04 0.95 0.87 0.79 0.71 0.66 0.64 0.65 0.69 0.74
0.64 0.57 0.40 0.29 0.26 0.38 0.39 0.35 0.35 0.37 0.42 0.41 0.41 0.43 0.46 0.52 0.59 0.75 1.06 1.25 1.46 1.65 1.80 2.05 2.14 2.36 2.41 2.34 2.27 2.08 1.97 1.87 1.76 1.65 1.45 1.31 1.25 1.16 1.09 1.04 1.03 0.95 0.88 0.87 0.88 0.85 0.78 0.73 0.78
0.67 0.56 0.47 0.40 0.35 0.41 0.47 0.45 0.36 0.35 0.35 0.33 0.33 0.33 0.39 0.45 0.48 0.61 0.84 1.05 1.16 1.36 1.63 1.76 1.84 2.06 2.27 2.34 2.45 2.52 2.46 2.15 1.89 1.72 1.63 1.50 1.43 1.33 1.21 1.12 1.11 1.08 0.97 0.91 0.95 1.00 1.01 1.00 0.99
0.68 0.41 0.45 0.50 0.61 0.58 0.45 0.57 0.40 0.31 0.30 0.30 0.31 0.28 0.32 0.39 0.43 0.50 0.59 0.76 0.89 1.03 1.36 1.69 1.84 1.97 2.15 2.41 2.40 2.33 2.20 1.99 1.73 1.71 1.76 1.72 1.61 1.51 1.36 1.28 1.22 1.20 1.16 1.08 1.10 1.12 1.17 1.22 1.20
0.61 0.42 0.48 0.57 0.68 0.65 0.41 0.45 0.39 0.25 0.28 0.29 0.31 0.30 0.35 0.45 0.48 0.47 0.50 0.62 0.75 0.87 1.11 1.40 1.66 1.91 2.11 2.22 2.26 2.30 2.15 1.96 1.91 1.83 1.80 1.70 1.59 1.54 1.46 1.41 1.38 1.35 1.32 1.31 1.35 1.34 1.33 1.32 1.32
0.67 0.68 0.73 0.78 0.97 0.92 0.39 0.37 0.36 0.27 0.30 0.31 0.31 0.32 0.37 0.45 0.49 0.47 0.47 0.56 0.68 0.75 0.90 1.15 1.41 1.56 1.77 1.99 2.08 2.11 2.10 2.09 2.04 1.85 1.76 1.76 1.72 1.64 1.54 1.52 1.52 1.53 1.51 1.47 1.45 1.47 1.50 1.50 1.46
0.98 1.32 1.70 1.61 1.35 0.72 0.25 0.29 0.29 0.24 0.31 0.35 0.34 0.37 0.39 0.40 0.41 0.41 0.44 0.50 0.61 0.70 0.79 0.91 1.07 1.20 1.34 1.52 1.68 1.77 1.88 1.98 1.91 1.80 1.66 1.64 1.61 1.56 1.51 1.48 1.52 1.58 1.57 1.57 1.58 1.58 1.54 1.57 1.59
0.96 1.13 1.35 1.11 0.68 0.35 0.21 0.24 0.23 0.24 0.33 0.37 0.37 0.36 0.35 0.39 0.41 0.39 0.38 0.43 0.52 0.58 0.67 0.75 0.84 0.94 1.09 1.21 1.33 1.48 1.62 1.80 1.80 1.77 1.61 1.48 1.43 1.43 1.50 1.43 1.37 1.40 1.47 1.51 1.53 1.53 1.50 1.49 1.48
0.87 0.85 0.75 0.93 0.60 0.35 0.22 0.16 0.15 0.17 0.23 0.30 0.32 0.30 0.30 0.38 0.41 0.38 0.37 0.38 0.46 0.50 0.54 0.64 0.76 0.83 0.91 1.04 1.18 1.29 1.38 1.48 1.55 1.62 1.63 1.48 1.40 1.39 1.40 1.34 1.27 1.20 1.21 1.30 1.38 1.39 1.39 1.39 1.39
0.71 0.67 0.85 1.19 0.94 0.51 0.21 0.12 0.18 0.19 0.20 0.28 0.31 0.33 0.36 0.40 0.40 0.37 0.38 0.42 0.46 0.47 0.48 0.56 0.71 0.75 0.78 0.86 0.96 1.06 1.16 1.30 1.39 1.42 1.42 1.38 1.34 1.35 1.33 1.26 1.17 1.11 1.08 1.07 1.14 1.17 1.17 1.21 1.20
0.65 0.81 0.94 0.95 0.71 0.62 0.39 0.25 0.23 0.24 0.21 0.25 0.30 0.33 0.37 0.40 0.41 0.40 0.44 0.51 0.53 0.48 0.50 0.56 0.63 0.74 0.79 0.80 0.85 0.90 0.91 0.99 1.15 1.25 1.27 1.28 1.26 1.24 1.24 1.20 1.14 1.09 1.02 0.98 0.96 0.95 0.99 1.05 1.06
0.51 0.51 0.69 1.01 0.74 0.53 0.47 0.35 0.24 0.24 0.22 0.23 0.28 0.31 0.33 0.35 0.37 0.42 0.49 0.52 0.53 0.54 0.57 0.60 0.63 0.69 0.79 0.80 0.81 0.85 0.87 0.87 0.96 1.06 1.15 1.22 1.28 1.22 1.19 1.16 1.12 1.06 1.01 0.97 0.95 0.90 0.89 0.93 0.97

GEFSSGP_prec_meanprecacc_198.txt.gz
Total_Precipitation_Accumulation
0.17 0.19 0.28 0.41 0.38 0.26 0.11 0.03 0.02 0.02 0.02 0.04 0.06 0.07 0.06 0.07 0.09 0.19 0.17 0.12 0.10 0.12 0.20 0.36 0.53 0.65 0.60 0.54 0.46 0.35 0.29 0.26 0.29 0.32 0.32 0.32 0.29 0.29 0.31 0.34 0.36 0.39 0.38 0.39 0.45 0.45 0.43 0.38 0.30
0.20 0.31 0.49 0.57 0.42 0.26 0.10 0.03 0.02 0.02 0.03 0.04 0.06 0.07 0.07 0.08 0.09 0.14 0.19 0.17 0.14 0.16 0.23 0.36 0.51 0.67 0.66 0.62 0.55 0.49 0.45 0.39 0.37 0.39 0.41 0.42 0.37 0.35 0.36 0.37 0.37 0.38 0.35 0.34 0.35 0.31 0.28 0.20 0.16
0.34 0.49 0.68 0.64 0.47 0.26 0.11 0.04 0.04 0.04 0.05 0.06 0.07 0.08 0.09 0.13 0.13 0.16 0.22 0.27 0.27 0.28 0.33 0.46 0.57 0.68 0.72 0.66 0.65 0.60 0.58 0.54 0.50 0.47 0.48 0.51 0.48 0.42 0.41 0.38 0.36 0.33 0.29 0.27 0.26 0.21 0.16 0.12 0.10
0.57 0.74 0.78 0.65 0.46 0.23 0.10 0.06 0.06 0.06 0.06 0.06 0.09 0.13 0.14 0.15 0.18 0.21 0.29 0.37 0.38 0.41 0.44 0.56 0.66 0.74 0.77 0.70 0.66 0.66 0.64 0.63 0.60 0.53 0.52 0.55 0.58 0.54 0.44 0.39 0.34 0.28 0.25 0.23 0.20 0.17 0.14 0.11 0.09
0.84 0.95 0.80 0.62 0.40 0.21 0.09 0.08 0.08 0.09 0.09 0.10 0.12 0.16 0.20 0.20 0.23 0.34 0.47 0.53 0.54 0.57 0.60 0.68 0.81 0.92 0.96 0.89 0.80 0.72 0.68 0.66 0.65 0.58 0.55 0.58 0.62 0.62 0.51 0.41 0.33 0.25 0.22 0.19 0.16 0.14 0.13 0.12 0.10
1.08 1.09 0.85 0.55 0.33 0.20 0.10 0.09 0.10 0.12 0.12 0.14 0.18 0.22 0.29 0.29 0.33 0.44 0.64 0.71 0.70 0.71 0.75 0.85 0.99 1.04 1.12 1.05 0.94 0.87 0.80 0.73 0.69 0.67 0.67 0.64 0.64 0.67 0.56 0.40 0.33 0.29 0.23 0.20 0.17 0.15 0.13 0.12 0.12
1.08 1.10 0.82 0.42 0.28 0.23 0.13 0.11 0.13 0.15 0.14 0.16 0.21 0.31 0.40 0.44 0.56 0.61 0.78 0.93 0.93 0.94 1.00 1.04 1.09 1.12 1.24 1.11 0.97 0.95 0.91 0.87 0.80 0.74 0.74 0.67 0.64 0.63 0.54 0.38 0.32 0.31 0.28 0.23 0.20 0.19 0.17 0.14 0.13
1.07 1.18 0.81 0.41 0.26 0.26 0.18 0.15 0.17 0.18 0.18 0.18 0.27 0.38 0.46 0.53 0.69 0.84 0.99 1.11 1.18 1.16 1.22 1.17 1.15 1.18 1.30 1.24 1.04 0.93 0.87 0.86 0.89 0.83 0.73 0.58 0.53 0.58 0.54 0.37 0.33 0.31 0.28 0.24 0.22 0.19 0.19 0.17 0.13
1.08 1.16 0.78 0.43 0.31 0.28 0.24 0.25 0.22 0.21 0.27 0.29 0.34 0.40 0.48 0.62 0.85 1.10 1.26 1.34 1.44 1.46 1.44 1.40 1.29 1.22 1.27 1.29 1.12 1.03 0.94 0.89 0.90 0.88 0.70 0.60 0.57 0.56 0.51 0.35 0.26 0.29 0.28 0.24 0.23 0.23 0.21 0.18 0.14
1.08 0.94 0.58 0.38 0.34 0.33 0.29 0.30 0.31 0.35 0.39 0.44 0.50 0.56 0.67 0.87 1.17 1.34 1.45 1.48 1.51 1.57 1.57 1.57 1.41 1.35 1.34 1.32 1.26 1.22 1.09 0.98 0.93 0.87 0.80 0.70 0.64 0.62 0.54 0.43 0.28 0.26 0.27 0.27 0.27 0.26 0.26 0.20 0.15
0.78 0.68 0.49 0.40 0.35 0.36 0.36 0.34 0.35 0.42 0.45 0.44 0.51 0.67 0.92 1.16 1.46 1.54 1.70 1.80 1.71 1.71 1.73 1.76 1.60 1.55 1.45 1.35 1.27 1.27 1.16 1.08 1.02 0.96 0.89 0.83 0.77 0.67 0.68 0.60 0.46 0.37 0.28 0.29 0.27 0.28 0.23 0.20 0.18
0.57 0.47 0.45 0.44 0.38 0.38 0.41 0.41 0.44 0.44 0.45 0.45 0.52 0.69 0.97 1.27 1.48 1.59 1.79 1.94 1.99 1.96 1.98 1.93 1.84 1.72 1.61 1.45 1.26 1.15 1.13 1.06 1.00 0.93 0.95 0.92 0.84 0.73 0.65 0.63 0.52 0.45 0.35 0.31 0.29 0.25 0.21 0.19 0.19
0.47 0.39 0.40 0.46 0.46 0.41 0.39 0.41 0.48 0.41 0.41 0.48 0.56 0.79 1.01 1.33 1.61 1.76 1.98 2.08 2.16 2.20 2.19 2.16 2.05 1.85 1.67 1.56 1.41 1.16 1.03 0.95 0.96 0.95 0.90 0.87 0.79 0.69 0.66 0.67 0.63 0.54 0.44 0.38 0.34 0.29 0.25 0.22 0.21
0.38 0.37 0.43 0.49 0.54 0.44 0.43 0.44 0.48 0.44 0.43 0.53 0.62 0.82 0.99 1.30 1.71 1.88 2.14 2.28 2.22 2.35 2.43 2.43 2.22 2.03 1.72 1.57 1.50 1.30 1.09 0.97 0.95 0.94 0.90 0.87 0.80 0.70 0.66 0.63 0.66 0.62 0.56 0.51 0.46 0.39 0.37 0.33 0.29
0.40 0.50 0.54 0.56 0.58 0.49 0.50 0.59 0.51 0.46 0.44 0.51 0.60 0.77 0.93 1.24 1.61 1.85 2.07 2.20 2.33 2.45 2.61 2.64 2.51 2.31 1.90 1.62 1.51 1.39 1.23 1.11 1.02 0.92 0.89 0.87 0.85 0.81 0.75 0.68 0.65 0.65 0.65 0.65 0.62 0.56 0.52 0.45 0.37
0.63 0.77 0.73 0.53 0.56 0.54 0.61 0.67 0.48 0.47 0.50 0.49 0.54 0.69 0.85 1.05 1.40 1.69 1.98 2.13 2.27 2.48 2.63 2.70 2.65 2.52 2.18 1.79 1.62 1.47 1.33 1.23 1.13 1.06 1.02 0.93 0.90 0.90 0.89 0.77 0.67 0.65 0.70 0.71 0.65 0.61 0.57 0.46 0.40
0.88 0.73 0.58 0.45 0.45 0.55 0.56 0.60 0.51 0.48 0.52 0.46 0.46 0.57 0.78 0.94 1.15 1.39 1.73 2.00 2.09 2.30 2.54 2.78 2.72 2.61 2.43 2.13 1.89 1.72 1.51 1.38 1.27 1.12 1.05 1.07 1.04 1.01 1.00 0.84 0.71 0.67 0.68 0.67 0.69 0.66 0.61 0.51 0.44
0.66 0.42 0.39 0.42 0.42 0.47 0.44 0.40 0.45 0.51 0.52 0.46 0.48 0.52 0.67 0.86 0.92 1.11 1.41 1.79 1.94 2.12 2.39 2.62 2.86 2.79 2.79 2.69 2.35 2.03 1.78 1.53 1.40 1.23 1.09 1.07 1.08 1.08 1.10 1.00 0.85 0.81 0.74 0.65 0.63 0.64 0.69 0.65 0.58
0.51 0.40 0.33 0.29 0.33 0.42 0.38 0.33 0.39 0.42 0.48 0.47 0.47 0.50 0.54 0.68 0.78 0.96 1.24 1.57 1.82 1.94 2.20 2.36 2.53 2.70 2.77 2.71 2.39 2.03 1.78 1.67 1.58 1.41 1.27 1.18 1.13 1.11 1.12 1.12 1.02 0.91 0.82 0.73 0.68 0.66 0.67 0.72 0.77
0.64 0.57 0.41 0.30 0.27 0.38 0.40 0.36 0.36 0.38 0.45 0.45 0.45 0.45 0.48 0.53 0.60 0.77 1.08 1.28 1.49 1.70 1.86 2.15 2.19 2.40 2.45 2.40 2.39 2.20 2.08 1.96 1.83 1.69 1.48 1.34 1.28 1.19 1.12 1.10 1.08 0.99 0.91 0.89 0.89 0.85 0.79 0.75 0.80
0.67 0.56 0.47 0.40 0.35 0.42 0.48 0.46 0.36 0.35 0.36 0.35 0.36 0.35 0.41 0.46 0.50 0.63 0.86 1.07 1.19 1.40 1.69 1.83 1.92 2.10 2.30 2.37 2.51 2.59 2.52 2.21 1.93 1.75 1.66 1.53 1.45 1.36 1.24 1.15 1.15 1.12 1.00 0.93 0.96 1.01 1.02 1.01 1.00
0.68 0.41 0.45 0.50 0.61 0.59 0.47 0.59 0.41 0.31 0.30 0.31 0.33 0.30 0.33 0.41 0.44 0.52 0.60 0.78 0.92 1.05 1.40 1.73 1.90 2.01 2.18 2.44 2.45 2.37 2.24 2.02 1.76 1.74 1.78 1.75 1.64 1.53 1.39 1.30 1.25 1.23 1.18 1.09 1.11 1.13 1.18 1.23 1.21
0.61 0.42 0.48 0.57 0.68 0.65 0.42 0.46 0.39 0.25 0.28 0.30 0.32 0.31 0.37 0.48 0.52 0.50 0.52 0.63 0.77 0.88 1.13 1.42 1.70 1.96 2.15 2.25 2.29 2.33 2.17 1.98 1.92 1.85 1.81 1.72 1.62 1.56 1.48 1.43 1.40 1.37 1.33 1.31 1.35 1.35 1.34 1.34 1.33
0.67 0.68 0.73 0.78 0.98 0.93 0.39 0.38 0.37 0.27 0.30 0.31 0.31 0.32 0.38 0.46 0.53 0.50 0.49 0.58 0.70 0.76 0.91 1.17 1.43 1.59 1.82 2.03 2.11 2.14 2.11 2.10 2.04 1.86 1.77 1.77 1.74 1.66 1.56 1.54 1.54 1.54 1.52 1.47 1.45 1.47 1.51 1.51 1.47
0.98 1.32 1.71 1.62 1.35 0.72 0.26 0.29 0.29 0.25 0.32 0.35 0.35 0.37 0.39 0.40 0.42 0.43 0.46 0.53 0.64 0.72 0.81 0.92 1.09 1.22 1.37 1.56 1.71 1.79 1.89 1.99 1.91 1.80 1.66 1.64 1.62 1.57 1.52 1.49 1.54 1.59 1.58 1.58 1.59 1.59 1.55 1.58 1.60
0.96 1.14 1.36 1.11 0.68 0.36 0.22 0.24 0.23 0.24 0.34 0.38 0.37 0.36 0.35 0.40 0.42 0.40 0.39 0.44 0.53 0.59 0.68 0.76 0.85 0.95 1.11 1.23 1.35 1.49 1.63 1.81 1.80 1.77 1.61 1.49 1.44 1.44 1.50 1.44 1.38 1.40 1.47 1.52 1.53 1.53 1.51 1.50 1.49
0.87 0.85 0.75 0.93 0.61 0.35 0.23 0.16 0.15 0.17 0.23 0.31 0.32 0.30 0.30 0.38 0.41 0.38 0.38 0.39 0.46 0.50 0.55 0.65 0.77 0.84 0.92 1.06 1.19 1.30 1.39 1.48 1.55 1.62 1.63 1.49 1.41 1.40 1.40 1.35 1.27 1.21 1.22 1.30 1.39 1.39 1.39 1.40 1.40
0.71 0.67 0.85 1.19 0.94 0.51 0.21 0.12 0.18 0.19 0.20 0.28 0.31 0.33 0.36 0.40 0.40 0.37 0.38 0.42 0.46 0.47 0.48 0.56 0.72 0.76 0.79 0.87 0.98 1.08 1.17 1.31 1.39 1.42 1.42 1.38 1.34 1.35 1.34 1.26 1.17 1.11 1.08 1.08 1.15 1.17 1.17 1.21 1.21
0.65 0.81 0.94 0.95 0.72 0.62 0.39 0.25 0.23 0.24 0.22 0.25 0.30 0.33 0.37 0.40 0.41 0.40 0.44 0.51 0.53 0.48 0.50 0.56 0.63 0.74 0.80 0.81 0.86 0.91 0.92 1.00 1.15 1.25 1.27 1.28 1.26 1.25 1.24 1.20 1.15 1.09 1.03 0.98 0.97 0.95 0.99 1.06 1.07
0.51 0.51 0.70 1.02 0.75 0.53 0.47 0.35 0.24 0.24 0.22 0.23 0.28 0.31 0.33 0.35 0.37 0.42 0.49 0.52 0.53 0.54 0.57 0.60 0.63 0.69 0.79 0.81 0.82 0.86 0.88 0.88 0.97 1.06 1.16 1.22 1.29 1.22 1.19 1.16 1.12 1.06 1.02 0.97 0.95 0.90 0.89 0.94 0.97

GEFSSGP_prec_meanprecacc_204.txt.gz
Total_Precipitation_Accumulation
0.18 0.20 0.29 0.41 0.39 0.26 0.11 0.03 0.02 0.02 0.03 0.04 0.06 0.07 0.06 0.07 0.10 0.20 0.17 0.13 0.10 0.13 0.21 0.39 0.57 0.68 0.63 0.56 0.48 0.38 0.33 0.31 0.32 0.35 0.36 0.36 0.32 0.32 0.33 0.35 0.39 0.40 0.39 0.40 0.46 0.46 0.44 0.39 0.31
0.21 0.31 0.50 0.58 0.43 0.26 0.10 0.03 0.02 0.02 0.04 0.04 0.06 0.08 0.07 0.08 0.09 0.14 0.20 0.19 0.16 0.18 0.26 0.39 0.57 0.72 0.70 0.65 0.57 0.52 0.51 0.44 0.42 0.42 0.44 0.46 0.40 0.38 0.40 0.40 0.40 0.40 0.37 0.36 0.36 0.32 0.29 0.21 0.17
0.35 0.50 0.68 0.65 0.47 0.26 0.11 0.04 0.04 0.04 0.05 0.07 0.08 0.08 0.10 0.13 0.14 0.17 0.23 0.29 0.30 0.30 0.36 0.50 0.63 0.75 0.78 0.70 0.68 0.63 0.65 0.61 0.56 0.52 0.51 0.54 0.51 0.46 0.44 0.41 0.39 0.35 0.32 0.29 0.28 0.22 0.17 0.13 0.10
0.57 0.74 0.78 0.65 0.47 0.23 0.10 0.06 0.06 0.06 0.07 0.07 0.10 0.15 0.16 0.16 0.19 0.22 0.32 0.40 0.42 0.44 0.49 0.63 0.74 0.81 0.84 0.76 0.72 0.69 0.70 0.70 0.67 0.58 0.56 0.58 0.61 0.57 0.47 0.42 0.37 0.30 0.27 0.26 0.23 0.19 0.15 0.11 0.10
0.84 0.96 0.80 0.62 0.40 0.21 0.09 0.08 0.09 0.10 0.10 0.11 0.13 0.19 0.22 0.21 0.24 0.35 0.50 0.58 0.58 0.63 0.67 0.77 0.90 1.01 1.03 0.96 0.87 0.78 0.73 0.73 0.73 0.64 0.59 0.61 0.66 0.66 0.54 0.43 0.35 0.27 0.24 0.21 0.18 0.15 0.15 0.13 0.10
1.08 1.10 0.86 0.55 0.33 0.20 0.10 0.09 0.11 0.13 0.13 0.15 0.20 0.24 0.32 0.30 0.34 0.45 0.67 0.77 0.77 0.82 0.85 0.95 1.09 1.14 1.20 1.12 1.00 0.93 0.85 0.78 0.77 0.75 0.72 0.67 0.68 0.71 0.60 0.44 0.36 0.31 0.25 0.22 0.20 0.17 0.15 0.14 0.12
1.09 1.11 0.82 0.42 0.28 0.23 0.13 0.11 0.15 0.16 0.15 0.18 0.23 0.32 0.43 0.47 0.58 0.64 0.81 1.00 1.04 1.08 1.14 1.14 1.19 1.22 1.32 1.19 1.02 0.99 0.96 0.91 0.86 0.82 0.79 0.69 0.66 0.66 0.58 0.43 0.36 0.33 0.29 0.25 0.22 0.21 0.19 0.16 0.15
1.08 1.19 0.81 0.41 0.26 0.27 0.18 0.15 0.18 0.19 0.20 0.20 0.28 0.39 0.49 0.57 0.72 0.88 1.04 1.17 1.33 1.35 1.42 1.33 1.27 1.28 1.37 1.33 1.12 0.97 0.90 0.90 0.95 0.90 0.77 0.61 0.55 0.59 0.56 0.40 0.36 0.34 0.30 0.26 0.24 0.21 0.20 0.19 0.15
1.09 1.17 0.78 0.44 0.32 0.28 0.24 0.25 0.23 0.22 0.29 0.31 0.35 0.42 0.53 0.68 0.90 1.15 1.33 1.42 1.57 1.65 1.67 1.60 1.43 1.31 1.35 1.38 1.21 1.09 0.99 0.94 0.96 0.96 0.75 0.61 0.59 0.57 0.52 0.37 0.28 0.32 0.31 0.26 0.25 0.25 0.23 0.20 0.16
1.10 0.95 0.58 0.39 0.35 0.34 0.29 0.31 0.31 0.37 0.42 0.46 0.52 0.58 0.72 0.94 1.23 1.40 1.52 1.57 1.64 1.75 1.79 1.80 1.59 1.44 1.41 1.39 1.34 1.31 1.15 1.03 0.98 0.96 0.84 0.72 0.66 0.63 0.55 0.45 0.31 0.29 0.31 0.30 0.29 0.28 0.29 0.22 0.16
0.79 0.69 0.50 0.40 0.37 0.37 0.37 0.35 0.36 0.44 0.48 0.47 0.54 0.70 0.95 1.22 1.53 1.61 1.78 1.90 1.84 1.94 1.96 1.99 1.81 1.69 1.53 1.41 1.32 1.34 1.21 1.11 1.07 1.06 0.94 0.85 0.78 0.68 0.69 0.62 0.49 0.41 0.32 0.33 0.31 0.31 0.26 0.22 0.19
0.58 0.48 0.46 0.44 0.39 0.41 0.42 0.42 0.45 0.45 0.47 0.47 0.55 0.73 1.01 1.33 1.56 1.67 1.88 2.05 2.13 2.15 2.22 2.17 2.06 1.91 1.73 1.51 1.30 1.20 1.18 1.09 1.03 1.00 1.00 0.94 0.85 0.74 0.66 0.64 0.54 0.48 0.39 0.35 0.33 0.29 0.25 0.22 0.22
0.47 0.40 0.40 0.47 0.47 0.44 0.42 0.42 0.50 0.44 0.44 0.51 0.59 0.83 1.07 1.41 1.70 1.85 2.07 2.20 2.30 2.37 2.37 2.37 2.26 2.02 1.77 1.63 1.46 1.20 1.07 0.98 0.99 0.99 0.95 0.90 0.80 0.69 0.66 0.67 0.64 0.57 0.47 0.42 0.39 0.34 0.29 0.25 0.25
0.39 0.37 0.44 0.50 0.56 0.47 0.46 0.46 0.51 0.48 0.46 0.56 0.66 0.85 1.05 1.39 1.82 1.98 2.22 2.39 2.35 2.51 2.59 2.61 2.43 2.19 1.84 1.63 1.54 1.34 1.12 1.00 0.98 0.97 0.93 0.90 0.82 0.71 0.67 0.63 0.67 0.65 0.61 0.56 0.52 0.45 0.41 0.37 0.33
0.41 0.50 0.55 0.58 0.60 0.50 0.52 0.62 0.55 0.50 0.46 0.53 0.62 0.79 0.97 1.29 1.68 1.94 2.14 2.29 2.46 2.60 2.76 2.80 2.67 2.46 2.04 1.70 1.55 1.43 1.26 1.14 1.05 0.94 0.91 0.90 0.88 0.82 0.76 0.69 0.66 0.68 0.70 0.72 0.70 0.64 0.59 0.50 0.41
0.64 0.78 0.74 0.53 0.56 0.55 0.62 0.68 0.50 0.48 0.51 0.50 0.55 0.71 0.87 1.08 1.43 1.72 2.03 2.20 2.38 2.63 2.76 2.81 2.76 2.65 2.33 1.90 1.68 1.52 1.37 1.26 1.16 1.09 1.04 0.96 0.94 0.93 0.90 0.78 0.68 0.67 0.74 0.77 0.74 0.69 0.65 0.54 0.46
0.89 0.73 0.59 0.46 0.45 0.56 0.56 0.61 0.52 0.48 0.52 0.46 0.47 0.59 0.80 0.96 1.17 1.41 1.75 2.04 2.15 2.42 2.67 2.89 2.79 2.69 2.56 2.27 1.99 1.78 1.55 1.41 1.30 1.16 1.09 1.11 1.08 1.05 1.02 0.85 0.72 0.69 0.70 0.71 0.74 0.72 0.68 0.58 0.50
0.67 0.42 0.39 0.42 0.42 0.47 0.44 0.41 0.46 0.51 0.52 0.46 0.48 0.54 0.69 0.87 0.93 1.12 1.42 1.82 1.98 2.20 2.49 2.72 2.93 2.86 2.89 2.80 2.47 2.12 1.85 1.59 1.44 1.27 1.13 1.12 1.13 1.12 1.13 1.02 0.86 0.82 0.77 0.68 0.67 0.69 0.75 0.71 0.63
0.51 0.41 0.34 0.30 0.33 0.42 0.38 0.34 0.39 0.42 0.48 0.48 0.49 0.52 0.56 0.69 0.79 0.97 1.25 1.60 1.86 2.00 2.27 2.43 2.61 2.78 2.86 2.79 2.48 2.13 1.89 1.76 1.64 1.45 1.31 1.24 1.19 1.16 1.16 1.14 1.03 0.93 0.85 0.77 0.71 0.71 0.73 0.77 0.82
0.65 0.57 0.41 0.30 0.27 0.38 0.40 0.36 0.36 0.38 0.45 0.47 0.47 0.47 0.50 0.54 0.61 0.77 1.09 1.29 1.52 1.74 1.91 2.19 2.24 2.47 2.53 2.47 2.46 2.29 2.17 2.06 1.94 1.78 1.53 1.39 1.35 1.26 1.19 1.15 1.11 1.01 0.94 0.93 0.93 0.90 0.85 0.80 0.84
0.67 0.57 0.47 0.40 0.35 0.42 0.48 0.46 0.36 0.35 0.37 0.36 0.37 0.36 0.42 0.46 0.50 0.63 0.87 1.09 1.22 1.44 1.72 1.86 1.95 2.15 2.37 2.44 2.57 2.67 2.60 2.30 2.04 1.87 1.76 1.61 1.53 1.44 1.32 1.22 1.19 1.15 1.04 0.98 1.02 1.06 1.07 1.06 1.04
0.68 0.41 0.45 0.50 0.62 0.59 0.47 0.59 0.41 0.32 0.30 0.31 0.33 0.30 0.34 0.41 0.45 0.52 0.61 0.79 0.94 1.10 1.44 1.76 1.93 2.05 2.23 2.51 2.51 2.43 2.31 2.08 1.82 1.82 1.87 1.84 1.71 1.61 1.47 1.38 1.30 1.27 1.22 1.15 1.16 1.17 1.22 1.28 1.25
0.61 0.42 0.48 0.57 0.68 0.66 0.42 0.47 0.39 0.25 0.28 0.30 0.32 0.31 0.37 0.48 0.52 0.50 0.52 0.64 0.79 0.92 1.18 1.45 1.73 2.00 2.19 2.29 2.34 2.37 2.21 2.02 1.96 1.90 1.88 1.80 1.69 1.64 1.55 1.49 1.45 1.40 1.37 1.36 1.41 1.40 1.38 1.38 1.38
0.67 0.68 0.73 0.78 0.98 0.93 0.39 0.38 0.37 0.27 0.30 0.31 0.31 0.32 0.38 0.47 0.53 0.51 0.51 0.60 0.73 0.80 0.96 1.21 1.46 1.62 1.85 2.07 2.14 2.17 2.14 2.12 2.06 1.88 1.80 1.82 1.80 1.73 1.63 1.61 1.60 1.58 1.55 1.51 1.49 1.52 1.55 1.55 1.51
0.98 1.32 1.71 1.62 1.36 0.72 0.26 0.29 0.29 0.25 0.32 0.35 0.35 0.37 0.39 0.41 0.43 0.44 0.47 0.54 0.67 0.78 0.86 0.97 1.13 1.25 1.41 1.62 1.76 1.82 1.91 2.01 1.94 1.82 1.68 1.67 1.65 1.61 1.56 1.54 1.58 1.63 1.61 1.61 1.62 1.62 1.59 1.62 1.64
0.96 1.14 1.36 1.11 0.68 0.36 0.22 0.24 0.23 0.24 0.34 0.38 0.37 0.36 0.35 0.40 0.42 0.40 0.39 0.45 0.55 0.65 0.74 0.81 0.90 0.99 1.15 1.30 1.43 1.55 1.66 1.83 1.82 1.79 1.63 1.51 1.46 1.46 1.53 1.46 1.40 1.43 1.50 1.54 1.56 1.56 1.54 1.54 1.53
0.87 0.85 0.75 0.94 0.61 0.35 0.23 0.16 0.15 0.17 0.23 0.31 0.32 0.30 0.30 0.38 0.41 0.39 0.38 0.39 0.48 0.54 0.60 0.69 0.80 0.87 0.95 1.10 1.24 1.35 1.42 1.51 1.57 1.64 1.65 1.51 1.43 1.42 1.42 1.36 1.29 1.22 1.23 1.31 1.40 1.41 1.41 1.42 1.43
0.71 0.68 0.85 1.20 0.94 0.51 0.21 0.12 0.18 0.19 0.20 0.28 0.31 0.34 0.36 0.41 0.40 0.37 0.39 0.42 0.47 0.49 0.51 0.60 0.75 0.78 0.81 0.89 1.00 1.10 1.20 1.35 1.43 1.45 1.44 1.40 1.37 1.37 1.35 1.27 1.18 1.12 1.09 1.08 1.16 1.19 1.19 1.23 1.23
0.65 0.81 0.94 0.96 0.72 0.62 0.39 0.25 0.23 0.24 0.22 0.25 0.30 0.33 0.37 0.41 0.41 0.40 0.45 0.51 0.54 0.50 0.51 0.58 0.66 0.76 0.82 0.84 0.88 0.93 0.94 1.03 1.19 1.29 1.30 1.30 1.28 1.27 1.25 1.21 1.15 1.10 1.03 0.98 0.97 0.96 1.00 1.07 1.08
0.51 0.51 0.70 1.03 0.75 0.53 0.47 0.35 0.24 0.24 0.22 0.23 0.28 0.31 0.34 0.35 0.37 0.42 0.50 0.52 0.53 0.55 0.58 0.61 0.64 0.71 0.81 0.83 0.84 0.88 0.90 0.90 0.99 1.09 1.19 1.25 1.31 1.24 1.21 1.17 1.12 1.06 1.02 0.98 0.95 0.91 0.90 0.95 0.98

GEFSSGP_prec_meanprecacc_210.txt.gz
Total_Precipitation_Accumulation
0.18 0.20 0.29 0.42 0.39 0.27 0.11 0.03 0.02 0.02 0.03 0.04 0.06 0.07 0.06 0.07 0.10 0.20 0.17 0.13 0.10 0.13 0.23 0.42 0.61 0.74 0.71 0.62 0.52 0.41 0.37 0.34 0.35 0.38 0.39 0.39 0.35 0.35 0.36 0.37 0.40 0.42 0.41 0.43 0.49 0.48 0.45 0.40 0.32
0.21 0.31 0.50 0.59 0.43 0.26 0.10 0.03 0.02 0.02 0.04 0.04 0.06 0.08 0.08 0.08 0.09 0.14 0.20 0.19 0.16 0.19 0.28 0.42 0.61 0.79 0.79 0.72 0.62 0.55 0.55 0.48 0.44 0.45 0.47 0.48 0.43 0.42 0.43 0.43 0.43 0.43 0.40 0.40 0.39 0.34 0.31 0.22 0.18
0.35 0.50 0.69 0.65 0.47 0.26 0.11 0.04 0.04 0.04 0.05 0.07 0.08 0.09 0.10 0.13 0.14 0.17 0.24 0.29 0.30 0.31 0.38 0.53 0.68 0.83 0.87 0.78 0.74 0.69 0.69 0.66 0.59 0.55 0.55 0.57 0.54 0.48 0.48 0.45 0.43 0.38 0.35 0.32 0.31 0.24 0.18 0.14 0.11
0.58 0.75 0.78 0.66 0.47 0.23 0.10 0.06 0.06 0.06 0.07 0.08 0.10 0.15 0.16 0.16 0.19 0.22 0.32 0.40 0.43 0.45 0.51 0.68 0.81 0.90 0.94 0.85 0.80 0.77 0.76 0.76 0.72 0.62 0.61 0.62 0.64 0.59 0.49 0.45 0.40 0.34 0.31 0.29 0.26 0.21 0.16 0.13 0.11
0.84 0.96 0.80 0.62 0.40 0.21 0.09 0.08 0.09 0.10 0.10 0.11 0.14 0.20 0.23 0.21 0.24 0.35 0.50 0.58 0.59 0.65 0.72 0.84 0.99 1.12 1.15 1.06 0.97 0.88 0.81 0.78 0.78 0.70 0.65 0.66 0.69 0.68 0.56 0.45 0.37 0.31 0.28 0.25 0.22 0.19 0.17 0.14 0.12
1.09 1.10 0.86 0.55 0.33 0.20 0.10 0.09 0.11 0.13 0.13 0.15 0.21 0.26 0.34 0.31 0.35 0.46 0.67 0.77 0.79 0.85 0.91 1.04 1.20 1.26 1.33 1.24 1.11 1.05 0.96 0.85 0.82 0.80 0.77 0.72 0.73 0.75 0.62 0.46 0.38 0.34 0.28 0.25 0.23 0.21 0.18 0.16 0.14
1.09 1.11 0.82 0.43 0.28 0.24 0.13 0.11 0.15 0.16 0.16 0.18 0.24 0.34 0.44 0.48 0.59 0.64 0.82 1.00 1.06 1.12 1.20 1.24 1.30 1.35 1.47 1.33 1.14 1.10 1.07 1.00 0.93 0.88 0.84 0.74 0.71 0.71 0.61 0.45 0.39 0.36 0.32 0.28 0.26 0.25 0.23 0.19 0.17
1.09 1.20 0.82 0.41 0.26 0.27 0.18 0.16 0.18 0.20 0.20 0.20 0.29 0.40 0.50 0.58 0.74 0.90 1.06 1.18 1.35 1.40 1.49 1.45 1.42 1.43 1.54 1.49 1.25 1.08 1.00 0.98 1.01 0.95 0.81 0.63 0.57 0.62 0.59 0.43 0.38 0.36 0.33 0.29 0.28 0.26 0.25 0.22 0.18
1.10 1.19 0.79 0.44 0.32 0.28 0.24 0.26 0.23 0.22 0.30 0.33 0.38 0.44 0.55 0.69 0.92 1.18 1.35 1.43 1.59 1.70 1.72 1.70 1.60 1.48 1.53 1.56 1.35 1.23 1.11 1.04 1.03 1.01 0.78 0.63 0.61 0.59 0.54 0.39 0.31 0.34 0.33 0.28 0.28 0.30 0.30 0.25 0.20
1.11 0.96 0.59 0.39 0.35 0.34 0.29 0.31 0.32 0.37 0.42 0.47 0.55 0.62 0.75 0.97 1.26 1.43 1.55 1.59 1.67 1.78 1.83 1.88 1.75 1.66 1.61 1.60 1.51 1.44 1.27 1.16 1.10 1.03 0.89 0.75 0.67 0.64 0.56 0.46 0.32 0.31 0.32 0.31 0.31 0.31 0.34 0.29 0.22
0.80 0.70 0.50 0.40 0.38 0.38 0.38 0.36 0.37 0.45 0.49 0.48 0.56 0.74 0.99 1.26 1.56 1.64 1.80 1.92 1.87 1.97 2.01 2.05 1.92 1.87 1.76 1.66 1.53 1.47 1.30 1.22 1.19 1.16 0.99 0.88 0.80 0.70 0.71 0.64 0.50 0.42 0.33 0.34 0.32 0.34 0.30 0.26 0.24
0.58 0.49 0.46 0.45 0.40 0.42 0.44 0.43 0.46 0.47 0.48 0.48 0.56 0.74 1.06 1.38 1.60 1.70 1.92 2.09 2.18 2.21 2.27 2.23 2.13 2.05 1.93 1.76 1.55 1.36 1.26 1.17 1.12 1.11 1.07 0.96 0.87 0.76 0.67 0.66 0.56 0.49 0.39 0.36 0.34 0.31 0.28 0.26 0.26
0.48 0.40 0.41 0.47 0.48 0.45 0.43 0.43 0.51 0.45 0.45 0.52 0.61 0.85 1.12 1.46 1.78 1.92 2.13 2.25 2.36 2.47 2.45 2.44 2.33 2.15 1.97 1.86 1.71 1.40 1.19 1.06 1.05 1.06 1.02 0.95 0.81 0.70 0.67 0.68 0.66 0.58 0.47 0.42 0.39 0.35 0.31 0.29 0.29
0.39 0.38 0.45 0.53 0.58 0.49 0.47 0.47 0.52 0.49 0.48 0.58 0.70 0.89 1.10 1.45 1.89 2.07 2.30 2.47 2.42 2.63 2.70 2.69 2.51 2.31 2.00 1.82 1.76 1.56 1.26 1.08 1.04 1.01 0.98 0.95 0.84 0.72 0.67 0.64 0.68 0.66 0.61 0.57 0.52 0.46 0.44 0.41 0.38
0.42 0.50 0.56 0.61 0.64 0.53 0.54 0.63 0.56 0.52 0.48 0.55 0.66 0.85 1.03 1.34 1.74 2.02 2.24 2.39 2.56 2.73 2.90 2.89 2.76 2.56 2.18 1.88 1.73 1.61 1.39 1.22 1.12 0.97 0.93 0.94 0.91 0.84 0.77 0.69 0.67 0.68 0.70 0.72 0.70 0.65 0.62 0.55 0.47
0.65 0.78 0.74 0.55 0.60 0.57 0.64 0.70 0.50 0.49 0.52 0.51 0.57 0.73 0.90 1.12 1.47 1.80 2.13 2.31 2.49 2.77 2.90 2.94 2.88 2.75 2.45 2.07 1.86 1.69 1.49 1.34 1.22 1.12 1.06 0.98 0.96 0.95 0.91 0.78 0.68 0.67 0.74 0.77 0.74 0.70 0.67 0.58 0.52
0.90 0.74 0.59 0.46 0.47 0.59 0.59 0.62 0.52 0.48 0.53 0.47 0.48 0.60 0.82 0.99 1.20 1.45 1.82 2.13 2.26 2.54 2.80 3.03 2.92 2.80 2.68 2.41 2.18 1.97 1.69 1.50 1.36 1.18 1.10 1.12 1.09 1.07 1.04 0.86 0.73 0.69 0.70 0.71 0.75 0.73 0.70 0.61 0.54
0.67 0.43 0.39 0.42 0.43 0.49 0.46 0.41 0.46 0.52 0.52 0.47 0.49 0.55 0.70 0.88 0.96 1.16 1.46 1.88 2.06 2.28 2.59 2.82 3.04 2.95 2.97 2.90 2.60 2.30 2.02 1.70 1.51 1.31 1.15 1.13 1.14 1.14 1.15 1.04 0.87 0.82 0.77 0.69 0.68 0.70 0.76 0.74 0.67
0.51 0.41 0.34 0.30 0.34 0.43 0.39 0.34 0.40 0.43 0.49 0.48 0.49 0.53 0.57 0.70 0.80 1.00 1.28 1.62 1.90 2.06 2.35 2.50 2.70 2.87 2.92 2.86 2.57 2.25 2.02 1.87 1.72 1.50 1.33 1.26 1.21 1.18 1.18 1.17 1.06 0.93 0.86 0.77 0.72 0.72 0.74 0.80 0.86
0.65 0.57 0.41 0.30 0.27 0.39 0.40 0.36 0.37 0.40 0.46 0.47 0.48 0.47 0.50 0.55 0.62 0.79 1.11 1.31 1.54 1.77 1.97 2.26 2.31 2.54 2.59 2.52 2.51 2.37 2.27 2.15 2.02 1.83 1.56 1.41 1.37 1.29 1.20 1.17 1.14 1.03 0.96 0.94 0.94 0.91 0.87 0.84 0.89
0.68 0.57 0.47 0.41 0.36 0.43 0.49 0.46 0.37 0.36 0.37 0.36 0.37 0.36 0.42 0.46 0.50 0.64 0.88 1.10 1.23 1.46 1.76 1.93 2.03 2.20 2.42 2.48 2.61 2.71 2.66 2.38 2.11 1.92 1.80 1.65 1.56 1.48 1.35 1.25 1.24 1.19 1.07 1.00 1.03 1.08 1.09 1.08 1.08
0.68 0.41 0.45 0.50 0.62 0.60 0.47 0.59 0.41 0.32 0.31 0.32 0.34 0.30 0.34 0.41 0.45 0.52 0.62 0.80 0.95 1.11 1.46 1.81 2.00 2.11 2.27 2.55 2.55 2.47 2.34 2.13 1.88 1.87 1.92 1.89 1.77 1.66 1.51 1.42 1.35 1.32 1.26 1.17 1.18 1.19 1.23 1.30 1.28
0.61 0.42 0.49 0.58 0.69 0.66 0.42 0.47 0.39 0.25 0.28 0.30 0.33 0.31 0.37 0.48 0.52 0.51 0.53 0.65 0.79 0.93 1.19 1.49 1.78 2.05 2.24 2.33 2.37 2.40 2.23 2.05 2.01 1.94 1.91 1.83 1.73 1.67 1.59 1.53 1.51 1.47 1.44 1.41 1.43 1.42 1.39 1.39 1.40
0.67 0.68 0.74 0.78 0.98 0.94 0.39 0.38 0.37 0.27 0.30 0.32 0.32 0.32 0.39 0.47 0.53 0.51 0.51 0.60 0.74 0.81 0.97 1.23 1.49 1.64 1.88 2.09 2.16 2.19 2.16 2.15 2.10 1.91 1.83 1.84 1.82 1.75 1.64 1.62 1.63 1.64 1.62 1.57 1.55 1.56 1.58 1.57 1.53
0.98 1.33 1.73 1.64 1.37 0.73 0.26 0.29 0.29 0.25 0.32 0.35 0.35 0.37 0.39 0.41 0.43 0.44 0.48 0.55 0.68 0.79 0.88 1.00 1.15 1.26 1.43 1.64 1.77 1.83 1.93 2.03 1.96 1.85 1.71 1.69 1.67 1.62 1.58 1.56 1.61 1.67 1.66 1.67 1.67 1.67 1.63 1.66 1.67
0.96 1.14 1.37 1.12 0.68 0.36 0.22 0.24 0.23 0.24 0.34 0.38 0.37 0.36 0.35 0.40 0.42 0.41 0.40 0.46 0.57 0.66 0.76 0.84 0.92 1.01 1.17 1.32 1.44 1.57 1.68 1.85 1.84 1.80 1.65 1.53 1.49 1.49 1.56 1.50 1.44 1.47 1.55 1.60 1.61 1.60 1.57 1.57 1.55
0.87 0.85 0.75 0.94 0.61 0.35 0.23 0.16 0.15 0.17 0.23 0.31 0.32 0.30 0.30 0.38 0.41 0.39 0.38 0.40 0.49 0.55 0.61 0.71 0.83 0.89 0.98 1.12 1.26 1.38 1.45 1.53 1.59 1.65 1.66 1.53 1.45 1.44 1.45 1.39 1.31 1.25 1.27 1.36 1.45 1.44 1.43 1.44 1.45
0.72 0.68 0.86 1.20 0.95 0.51 0.21 0.12 0.18 0.19 0.20 0.28 0.31 0.34 0.36 0.41 0.40 0.37 0.39 0.43 0.48 0.49 0.52 0.61 0.76 0.80 0.83 0.91 1.02 1.12 1.23 1.37 1.45 1.47 1.46 1.42 1.39 1.39 1.37 1.29 1.20 1.13 1.10 1.11 1.19 1.21 1.20 1.24 1.24
0.65 0.81 0.95 0.96 0.72 0.62 0.39 0.25 0.23 0.24 0.22 0.25 0.30 0.33 0.37 0.41 0.41 0.41 0.45 0.52 0.55 0.50 0.52 0.58 0.67 0.77 0.83 0.85 0.90 0.94 0.96 1.04 1.20 1.31 1.32 1.32 1.30 1.29 1.27 1.22 1.16 1.11 1.05 1.00 0.99 0.98 1.02 1.08 1.09
0.51 0.51 0.70 1.03 0.75 0.53 0.47 0.35 0.24 0.24 0.22 0.23 0.28 0.31 0.34 0.36 0.38 0.43 0.50 0.53 0.54 0.56 0.58 0.62 0.65 0.72 0.81 0.84 0.85 0.89 0.90 0.91 0.99 1.09 1.19 1.25 1.32 1.26 1.23 1.19 1.13 1.07 1.03 0.99 0.96 0.92 0.92 0.96 0.99

GEFSSGP_prec_meanprecacc_216.txt.gz
Total_Precipitation_Accumulation
0.18 0.20 0.29 0.42 0.40 0.27 0.11 0.03 0.02 0.02 0.03 0.04 0.06 0.07 0.06 0.07 0.10 0.21 0.18 0.13 0.11 0.14 0.23 0.42 0.62 0.76 0.75 0.68 0.58 0.49 0.44 0.40 0.40 0.41 0.42 0.42 0.37 0.36 0.37 0.39 0.42 0.44 0.44 0.45 0.52 0.50 0.48 0.43 0.34
0.21 0.31 0.50 0.59 0.44 0.27 0.11 0.03 0.02 0.02 0.04 0.04 0.06 0.08 0.08 0.09 0.09 0.14 0.20 0.19 0.16 0.19 0.28 0.43 0.63 0.81 0.83 0.77 0.68 0.63 0.63 0.55 0.50 0.50 0.51 0.52 0.46 0.44 0.46 0.45 0.45 0.45 0.43 0.43 0.42 0.36 0.33 0.25 0.21
0.35 0.50 0.69 0.66 0.48 0.26 0.11 0.04 0.04 0.04 0.05 0.07 0.08 0.09 0.10 0.13 0.14 0.17 0.24 0.30 0.30 0.31 0.39 0.56 0.71 0.86 0.91 0.83 0.80 0.76 0.78 0.74 0.67 0.61 0.62 0.63 0.59 0.51 0.50 0.47 0.46 0.41 0.39 0.36 0.34 0.27 0.20 0.17 0.14
0.58 0.75 0.78 0.66 0.47 0.23 0.10 0.06 0.06 0.07 0.07 0.08 0.10 0.16 0.17 0.16 0.19 0.22 0.32 0.40 0.43 0.45 0.52 0.70 0.83 0.94 0.98 0.89 0.85 0.86 0.87 0.86 0.81 0.70 0.68 0.70 0.71 0.64 0.52 0.48 0.43 0.37 0.34 0.32 0.28 0.23 0.18 0.15 0.14
0.84 0.96 0.81 0.62 0.41 0.21 0.10 0.09 0.10 0.11 0.10 0.11 0.14 0.20 0.24 0.21 0.24 0.35 0.50 0.58 0.60 0.66 0.73 0.85 1.02 1.16 1.20 1.11 1.02 0.96 0.92 0.90 0.90 0.80 0.74 0.74 0.77 0.76 0.60 0.48 0.40 0.33 0.30 0.27 0.24 0.20 0.19 0.16 0.15
1.09 1.10 0.86 0.55 0.33 0.20 0.10 0.10 0.11 0.13 0.13 0.15 0.21 0.27 0.35 0.31 0.35 0.46 0.67 0.77 0.79 0.86 0.92 1.06 1.23 1.30 1.38 1.30 1.18 1.13 1.06 0.97 0.94 0.91 0.87 0.81 0.81 0.83 0.68 0.50 0.41 0.36 0.30 0.26 0.25 0.23 0.20 0.18 0.17
1.10 1.11 0.82 0.43 0.28 0.24 0.13 0.12 0.15 0.16 0.16 0.18 0.24 0.34 0.45 0.49 0.59 0.65 0.82 1.00 1.07 1.13 1.22 1.26 1.34 1.39 1.52 1.38 1.21 1.19 1.18 1.12 1.04 1.00 0.95 0.84 0.80 0.77 0.67 0.50 0.43 0.39 0.34 0.29 0.27 0.27 0.24 0.21 0.20
1.09 1.20 0.82 0.42 0.26 0.27 0.18 0.16 0.18 0.20 0.20 0.20 0.29 0.41 0.51 0.59 0.75 0.91 1.06 1.18 1.36 1.42 1.51 1.48 1.46 1.49 1.60 1.54 1.33 1.18 1.10 1.10 1.12 1.06 0.91 0.71 0.65 0.69 0.64 0.47 0.42 0.39 0.35 0.31 0.29 0.28 0.27 0.25 0.20
1.10 1.19 0.79 0.44 0.32 0.29 0.24 0.26 0.24 0.23 0.30 0.33 0.38 0.45 0.57 0.72 0.95 1.19 1.36 1.44 1.61 1.73 1.75 1.74 1.64 1.55 1.60 1.62 1.41 1.31 1.21 1.16 1.15 1.12 0.87 0.71 0.69 0.65 0.59 0.41 0.33 0.36 0.34 0.30 0.30 0.32 0.31 0.27 0.21
1.12 0.97 0.59 0.39 0.36 0.35 0.30 0.32 0.33 0.38 0.43 0.49 0.56 0.63 0.77 1.00 1.30 1.45 1.56 1.61 1.69 1.83 1.88 1.91 1.78 1.72 1.69 1.67 1.58 1.52 1.39 1.29 1.23 1.14 0.98 0.84 0.76 0.72 0.62 0.49 0.34 0.33 0.33 0.33 0.33 0.33 0.36 0.31 0.24
0.81 0.70 0.50 0.40 0.38 0.38 0.39 0.37 0.38 0.47 0.51 0.49 0.57 0.75 1.02 1.30 1.62 1.67 1.82 1.95 1.91 2.03 2.07 2.10 1.96 1.92 1.83 1.74 1.61 1.54 1.42 1.36 1.33 1.30 1.10 0.97 0.90 0.78 0.76 0.68 0.54 0.45 0.34 0.36 0.33 0.35 0.33 0.29 0.26
0.59 0.49 0.46 0.45 0.40 0.43 0.45 0.45 0.48 0.48 0.49 0.49 0.57 0.75 1.09 1.44 1.67 1.74 1.93 2.11 2.21 2.26 2.33 2.28 2.19 2.12 2.00 1.88 1.68 1.47 1.36 1.29 1.26 1.26 1.21 1.07 0.98 0.85 0.75 0.70 0.60 0.52 0.41 0.38 0.36 0.33 0.30 0.28 0.31
0.49 0.41 0.41 0.47 0.48 0.45 0.44 0.44 0.53 0.46 0.46 0.53 0.63 0.86 1.14 1.50 1.83 1.96 2.16 2.29 2.40 2.52 2.52 2.51 2.40 2.22 2.05 1.98 1.86 1.54 1.31 1.17 1.17 1.19 1.16 1.08 0.93 0.79 0.74 0.73 0.70 0.61 0.50 0.45 0.42 0.38 0.33 0.31 0.32
0.40 0.38 0.46 0.53 0.58 0.49 0.48 0.48 0.53 0.51 0.49 0.60 0.73 0.90 1.12 1.48 1.94 2.13 2.37 2.55 2.50 2.70 2.77 2.77 2.59 2.38 2.08 1.92 1.88 1.70 1.43 1.24 1.18 1.14 1.09 1.08 0.96 0.79 0.73 0.70 0.72 0.69 0.64 0.58 0.55 0.49 0.46 0.42 0.39
0.43 0.52 0.57 0.62 0.65 0.53 0.55 0.64 0.57 0.53 0.50 0.58 0.71 0.88 1.08 1.39 1.80 2.09 2.31 2.46 2.63 2.79 2.96 2.96 2.84 2.64 2.25 1.97 1.86 1.76 1.56 1.40 1.31 1.12 1.03 1.01 0.99 0.90 0.81 0.75 0.72 0.72 0.73 0.74 0.72 0.68 0.64 0.56 0.48
0.67 0.80 0.75 0.55 0.60 0.58 0.65 0.70 0.51 0.49 0.53 0.54 0.61 0.78 0.95 1.16 1.53 1.86 2.20 2.39 2.56 2.83 2.97 3.01 2.96 2.83 2.52 2.15 1.98 1.86 1.66 1.50 1.41 1.31 1.17 1.05 1.02 1.01 0.95 0.82 0.74 0.71 0.76 0.79 0.76 0.72 0.68 0.59 0.53
0.92 0.76 0.60 0.46 0.47 0.60 0.60 0.63 0.52 0.49 0.54 0.50 0.51 0.63 0.86 1.03 1.25 1.51 1.88 2.21 2.34 2.64 2.87 3.10 3.00 2.87 2.74 2.47 2.27 2.13 1.90 1.68 1.50 1.36 1.23 1.20 1.15 1.12 1.09 0.89 0.75 0.73 0.73 0.73 0.77 0.75 0.71 0.62 0.55
0.69 0.44 0.40 0.43 0.44 0.50 0.47 0.42 0.47 0.53 0.55 0.50 0.52 0.57 0.73 0.92 1.00 1.21 1.52 1.95 2.14 2.40 2.69 2.89 3.12 3.02 3.05 2.96 2.67 2.42 2.21 1.92 1.66 1.43 1.27 1.22 1.20 1.18 1.20 1.07 0.89 0.85 0.79 0.71 0.70 0.72 0.77 0.75 0.68
0.52 0.42 0.35 0.31 0.35 0.44 0.40 0.35 0.40 0.44 0.51 0.51 0.51 0.54 0.59 0.72 0.83 1.05 1.35 1.71 2.00 2.16 2.44 2.57 2.78 2.96 3.01 2.93 2.63 2.33 2.14 2.06 1.89 1.61 1.43 1.34 1.28 1.22 1.21 1.19 1.07 0.95 0.88 0.79 0.74 0.74 0.75 0.81 0.88
0.66 0.59 0.43 0.32 0.28 0.40 0.41 0.37 0.37 0.40 0.47 0.49 0.50 0.49 0.51 0.56 0.64 0.82 1.17 1.40 1.63 1.86 2.04 2.31 2.38 2.65 2.70 2.62 2.58 2.43 2.35 2.27 2.17 1.95 1.65 1.49 1.44 1.34 1.23 1.18 1.15 1.04 0.97 0.96 0.95 0.92 0.88 0.85 0.90
0.70 0.58 0.48 0.42 0.36 0.44 0.49 0.47 0.37 0.37 0.38 0.37 0.38 0.37 0.43 0.47 0.51 0.66 0.92 1.17 1.31 1.54 1.83 1.97 2.08 2.30 2.55 2.60 2.70 2.79 2.74 2.47 2.21 2.03 1.89 1.71 1.62 1.54 1.39 1.26 1.25 1.21 1.09 1.02 1.05 1.09 1.10 1.09 1.09
0.70 0.42 0.47 0.51 0.63 0.62 0.48 0.60 0.41 0.32 0.31 0.32 0.34 0.31 0.35 0.42 0.45 0.54 0.64 0.85 1.02 1.18 1.53 1.86 2.05 2.18 2.39 2.69 2.66 2.55 2.41 2.21 1.96 1.95 1.98 1.95 1.81 1.71 1.56 1.45 1.38 1.35 1.29 1.20 1.20 1.20 1.25 1.30 1.29
0.63 0.43 0.49 0.58 0.70 0.68 0.43 0.48 0.40 0.26 0.28 0.31 0.33 0.32 0.38 0.49 0.52 0.51 0.54 0.67 0.84 0.97 1.24 1.54 1.82 2.11 2.33 2.46 2.50 2.52 2.31 2.11 2.06 2.00 1.97 1.87 1.77 1.71 1.63 1.56 1.54 1.50 1.46 1.43 1.47 1.44 1.41 1.41 1.41
0.70 0.71 0.76 0.80 1.01 0.98 0.40 0.39 0.37 0.28 0.30 0.32 0.32 0.33 0.39 0.47 0.53 0.51 0.52 0.61 0.76 0.85 1.00 1.27 1.52 1.68 1.93 2.19 2.26 2.29 2.25 2.21 2.16 1.97 1.87 1.87 1.86 1.78 1.67 1.65 1.65 1.65 1.63 1.59 1.57 1.59 1.61 1.59 1.54
1.01 1.38 1.79 1.69 1.41 0.75 0.26 0.30 0.30 0.25 0.32 0.35 0.35 0.37 0.40 0.41 0.43 0.44 0.48 0.56 0.69 0.81 0.91 1.02 1.17 1.29 1.45 1.68 1.83 1.90 2.01 2.10 2.02 1.91 1.74 1.72 1.70 1.65 1.61 1.59 1.64 1.69 1.67 1.67 1.68 1.69 1.66 1.68 1.69
0.98 1.17 1.40 1.14 0.69 0.36 0.22 0.25 0.23 0.24 0.34 0.38 0.37 0.36 0.35 0.40 0.42 0.41 0.40 0.46 0.58 0.69 0.80 0.88 0.95 1.03 1.19 1.34 1.47 1.61 1.74 1.91 1.90 1.86 1.69 1.56 1.51 1.51 1.58 1.52 1.46 1.49 1.57 1.61 1.62 1.62 1.59 1.59 1.58
0.89 0.87 0.76 0.96 0.62 0.36 0.23 0.16 0.15 0.17 0.23 0.31 0.32 0.30 0.30 0.39 0.42 0.39 0.38 0.40 0.50 0.56 0.64 0.73 0.84 0.91 0.99 1.14 1.28 1.40 1.49 1.58 1.64 1.70 1.70 1.56 1.48 1.46 1.47 1.41 1.33 1.27 1.29 1.38 1.47 1.46 1.46 1.46 1.47
0.74 0.70 0.88 1.24 0.98 0.52 0.21 0.12 0.18 0.19 0.20 0.28 0.31 0.34 0.36 0.41 0.40 0.37 0.39 0.43 0.49 0.50 0.53 0.62 0.77 0.81 0.84 0.93 1.04 1.14 1.25 1.40 1.48 1.50 1.49 1.44 1.41 1.41 1.39 1.31 1.22 1.16 1.13 1.14 1.21 1.24 1.23 1.27 1.27
0.68 0.84 0.98 0.99 0.74 0.64 0.40 0.25 0.23 0.24 0.22 0.25 0.30 0.33 0.37 0.41 0.41 0.41 0.45 0.52 0.55 0.51 0.53 0.60 0.68 0.78 0.84 0.86 0.91 0.95 0.97 1.06 1.22 1.33 1.33 1.34 1.32 1.31 1.29 1.24 1.18 1.13 1.07 1.02 1.02 1.01 1.05 1.13 1.14
0.53 0.54 0.73 1.06 0.77 0.54 0.48 0.36 0.24 0.24 0.22 0.23 0.28 0.31 0.34 0.36 0.38 0.43 0.51 0.53 0.55 0.56 0.59 0.63 0.66 0.72 0.82 0.85 0.86 0.90 0.91 0.92 1.01 1.10 1.20 1.27 1.33 1.27 1.23 1.20 1.14 1.09 1.04 1.01 0.98 0.94 0.94 0.99 1.03

GEFSSGP_prec_meanprecacc_222.txt.gz
Total_Precipitation_Accumulation
0.18 0.20 0.29 0.42 0.40 0.27 0.11 0.03 0.02 0.02 0.03 0.05 0.06 0.07 0.06 0.07 0.10 0.21 0.18 0.13 0.11 0.14 0.23 0.43 0.63 0.78 0.76 0.69 0.60 0.51 0.46 0.42 0.43 0.45 0.45 0.44 0.39 0.37 0.38 0.40 0.43 0.45 0.45 0.47 0.53 0.51 0.48 0.44 0.35
0.21 0.31 0.50 0.59 0.44 0.27 0.11 0.03 0.02 0.03 0.04 0.04 0.06 0.08 0.08 0.09 0.09 0.15 0.20 0.19 0.16 0.19 0.28 0.43 0.64 0.83 0.84 0.79 0.70 0.64 0.66 0.59 0.55 0.54 0.55 0.55 0.48 0.46 0.47 0.47 0.47 0.48 0.45 0.46 0.44 0.36 0.33 0.26 0.22
0.35 0.50 0.69 0.66 0.48 0.26 0.11 0.04 0.04 0.04 0.05 0.07 0.08 0.09 0.11 0.14 0.14 0.17 0.24 0.30 0.31 0.32 0.39 0.56 0.72 0.87 0.93 0.85 0.83 0.78 0.81 0.78 0.72 0.66 0.65 0.67 0.63 0.56 0.53 0.49 0.48 0.43 0.42 0.39 0.36 0.27 0.21 0.17 0.15
0.58 0.75 0.78 0.66 0.47 0.23 0.10 0.06 0.07 0.07 0.07 0.08 0.11 0.16 0.17 0.16 0.19 0.23 0.33 0.41 0.43 0.45 0.52 0.71 0.85 0.96 1.00 0.91 0.88 0.88 0.89 0.90 0.87 0.75 0.73 0.75 0.76 0.68 0.56 0.50 0.45 0.39 0.36 0.34 0.29 0.24 0.18 0.15 0.15
0.84 0.96 0.81 0.62 0.41 0.21 0.10 0.09 0.10 0.11 0.11 0.12 0.14 0.21 0.24 0.22 0.24 0.36 0.51 0.59 0.60 0.66 0.73 0.86 1.04 1.19 1.22 1.13 1.05 0.98 0.94 0.94 0.95 0.87 0.80 0.81 0.84 0.82 0.65 0.51 0.41 0.35 0.32 0.29 0.25 0.21 0.20 0.17 0.16
1.09 1.10 0.86 0.55 0.33 0.21 0.11 0.10 0.11 0.14 0.14 0.16 0.22 0.27 0.35 0.33 0.35 0.46 0.67 0.78 0.81 0.87 0.93 1.06 1.26 1.33 1.41 1.32 1.20 1.15 1.09 1.00 0.98 0.97 0.93 0.89 0.90 0.90 0.73 0.53 0.43 0.39 0.33 0.29 0.27 0.24 0.20 0.19 0.17
1.10 1.12 0.82 0.43 0.28 0.24 0.13 0.12 0.15 0.16 0.16 0.19 0.25 0.35 0.46 0.50 0.60 0.66 0.83 1.01 1.09 1.15 1.24 1.28 1.36 1.45 1.58 1.42 1.23 1.21 1.20 1.14 1.08 1.05 1.01 0.92 0.91 0.86 0.71 0.53 0.46 0.43 0.37 0.31 0.29 0.28 0.25 0.22 0.20
1.09 1.20 0.82 0.42 0.26 0.27 0.18 0.16 0.18 0.20 0.21 0.21 0.30 0.42 0.51 0.60 0.76 0.92 1.08 1.19 1.37 1.44 1.54 1.51 1.48 1.54 1.67 1.59 1.35 1.20 1.13 1.12 1.15 1.10 0.97 0.79 0.74 0.78 0.70 0.49 0.44 0.43 0.38 0.33 0.31 0.29 0.28 0.25 0.20
1.11 1.20 0.80 0.44 0.32 0.29 0.25 0.26 0.24 0.23 0.31 0.34 0.39 0.46 0.58 0.74 0.98 1.21 1.38 1.46 1.63 1.77 1.79 1.77 1.67 1.58 1.65 1.67 1.44 1.34 1.24 1.19 1.18 1.15 0.93 0.79 0.79 0.75 0.65 0.45 0.35 0.39 0.37 0.33 0.32 0.34 0.32 0.28 0.22
1.12 0.97 0.59 0.39 0.36 0.35 0.30 0.32 0.33 0.38 0.44 0.50 0.58 0.65 0.79 1.03 1.33 1.49 1.58 1.62 1.72 1.87 1.92 1.96 1.82 1.75 1.75 1.73 1.60 1.55 1.42 1.32 1.26 1.17 1.05 0.94 0.85 0.81 0.68 0.54 0.37 0.36 0.36 0.35 0.35 0.35 0.38 0.32 0.25
0.81 0.70 0.50 0.40 0.38 0.38 0.39 0.37 0.38 0.47 0.51 0.50 0.59 0.78 1.05 1.33 1.65 1.70 1.84 1.96 1.93 2.06 2.11 2.16 2.00 1.95 1.89 1.82 1.65 1.56 1.44 1.39 1.37 1.33 1.16 1.09 1.01 0.89 0.84 0.72 0.58 0.48 0.37 0.38 0.36 0.38 0.35 0.30 0.27
0.59 0.49 0.46 0.45 0.40 0.43 0.45 0.45 0.48 0.49 0.49 0.50 0.58 0.77 1.11 1.47 1.70 1.76 1.96 2.13 2.23 2.29 2.38 2.34 2.24 2.16 2.06 1.96 1.73 1.50 1.39 1.32 1.29 1.29 1.27 1.21 1.13 0.97 0.84 0.76 0.64 0.55 0.44 0.40 0.38 0.34 0.31 0.29 0.32
0.49 0.41 0.41 0.48 0.48 0.46 0.44 0.44 0.53 0.46 0.46 0.54 0.64 0.89 1.16 1.52 1.84 1.98 2.20 2.33 2.43 2.56 2.57 2.58 2.47 2.29 2.11 2.04 1.91 1.59 1.36 1.21 1.21 1.23 1.23 1.20 1.09 0.94 0.84 0.78 0.75 0.65 0.52 0.47 0.44 0.39 0.35 0.33 0.33
0.40 0.38 0.46 0.54 0.59 0.49 0.48 0.48 0.53 0.51 0.49 0.61 0.75 0.94 1.15 1.50 1.96 2.15 2.40 2.60 2.54 2.74 2.83 2.85 2.68 2.47 2.14 1.96 1.92 1.74 1.48 1.29 1.24 1.19 1.16 1.19 1.13 0.99 0.88 0.78 0.78 0.74 0.67 0.62 0.58 0.51 0.48 0.44 0.41
0.43 0.52 0.57 0.62 0.66 0.54 0.56 0.65 0.57 0.53 0.50 0.59 0.72 0.92 1.11 1.42 1.83 2.11 2.33 2.50 2.67 2.83 3.01 3.04 2.94 2.74 2.34 2.02 1.91 1.80 1.61 1.47 1.38 1.19 1.11 1.12 1.17 1.12 1.01 0.87 0.81 0.78 0.77 0.77 0.75 0.69 0.66 0.57 0.49
0.68 0.80 0.76 0.56 0.61 0.59 0.67 0.72 0.51 0.49 0.54 0.54 0.63 0.82 1.00 1.20 1.57 1.88 2.22 2.41 2.60 2.87 3.01 3.07 3.05 2.93 2.62 2.23 2.04 1.90 1.70 1.59 1.52 1.39 1.26 1.15 1.16 1.20 1.15 0.96 0.86 0.82 0.82 0.82 0.79 0.74 0.70 0.61 0.55
0.93 0.77 0.60 0.47 0.48 0.61 0.61 0.64 0.53 0.49 0.55 0.50 0.52 0.67 0.93 1.08 1.29 1.54 1.90 2.24 2.38 2.68 2.92 3.17 3.10 2.98 2.84 2.57 2.34 2.17 1.94 1.77 1.65 1.48 1.35 1.31 1.27 1.26 1.26 1.03 0.88 0.86 0.83 0.77 0.80 0.78 0.73 0.64 0.57
0.70 0.45 0.40 0.43 0.45 0.51 0.48 0.43 0.48 0.54 0.55 0.50 0.53 0.59 0.78 1.00 1.05 1.26 1.55 1.97 2.18 2.46 2.74 2.96 3.23 3.12 3.12 3.04 2.75 2.48 2.26 2.01 1.81 1.59 1.41 1.37 1.34 1.29 1.32 1.19 0.99 0.97 0.94 0.80 0.73 0.75 0.80 0.78 0.70
0.53 0.42 0.35 0.31 0.36 0.45 0.41 0.35 0.41 0.44 0.52 0.52 0.52 0.55 0.61 0.80 0.94 1.11 1.39 1.73 2.03 2.20 2.49 2.64 2.89 3.07 3.10 3.01 2.71 2.41 2.22 2.14 2.01 1.77 1.58 1.51 1.43 1.32 1.29 1.28 1.14 1.02 1.00 0.94 0.81 0.77 0.78 0.84 0.90
0.67 0.59 0.43 0.33 0.29 0.41 0.42 0.37 0.38 0.41 0.48 0.50 0.51 0.50 0.53 0.61 0.75 0.92 1.25 1.43 1.66 1.92 2.11 2.40 2.48 2.77 2.80 2.71 2.65 2.50 2.43 2.35 2.26 2.09 1.82 1.63 1.57 1.45 1.31 1.25 1.20 1.09 1.03 1.08 1.08 0.98 0.91 0.87 0.92
0.70 0.59 0.49 0.43 0.38 0.46 0.51 0.48 0.38 0.37 0.39 0.38 0.39 0.39 0.45 0.50 0.57 0.72 0.99 1.23 1.36 1.61 1.91 2.05 2.16 2.39 2.64 2.68 2.77 2.85 2.80 2.54 2.28 2.13 2.04 1.87 1.74 1.63 1.46 1.33 1.30 1.25 1.12 1.07 1.14 1.18 1.14 1.12 1.12
0.71 0.43 0.47 0.52 0.65 0.63 0.49 0.62 0.42 0.33 0.32 0.33 0.35 0.32 0.36 0.44 0.48 0.57 0.67 0.88 1.06 1.24 1.62 1.95 2.13 2.26 2.46 2.75 2.72 2.61 2.47 2.28 2.03 2.02 2.09 2.08 1.93 1.79 1.63 1.52 1.43 1.39 1.31 1.23 1.24 1.24 1.29 1.34 1.32
0.64 0.44 0.51 0.60 0.72 0.71 0.44 0.49 0.40 0.26 0.29 0.31 0.34 0.33 0.39 0.50 0.54 0.54 0.57 0.68 0.86 1.02 1.32 1.64 1.90 2.19 2.39 2.52 2.54 2.56 2.37 2.19 2.15 2.06 2.04 1.97 1.87 1.79 1.69 1.62 1.60 1.54 1.49 1.45 1.49 1.46 1.43 1.44 1.45
0.71 0.74 0.79 0.83 1.05 1.03 0.41 0.39 0.37 0.28 0.30 0.33 0.33 0.33 0.40 0.49 0.55 0.53 0.54 0.63 0.77 0.87 1.05 1.36 1.62 1.77 2.02 2.27 2.32 2.33 2.31 2.29 2.25 2.04 1.94 1.94 1.93 1.85 1.73 1.70 1.70 1.71 1.67 1.60 1.58 1.60 1.63 1.61 1.57
1.03 1.43 1.86 1.76 1.49 0.79 0.27 0.30 0.30 0.25 0.32 0.36 0.35 0.38 0.40 0.42 0.45 0.45 0.50 0.57 0.70 0.83 0.95 1.08 1.26 1.39 1.56 1.77 1.90 1.94 2.07 2.19 2.11 1.98 1.81 1.77 1.75 1.70 1.65 1.62 1.67 1.73 1.71 1.70 1.70 1.70 1.67 1.70 1.71
1.00 1.20 1.43 1.18 0.71 0.37 0.22 0.25 0.23 0.24 0.34 0.38 0.37 0.37 0.36 0.40 0.43 0.42 0.41 0.47 0.59 0.70 0.83 0.92 1.01 1.12 1.29 1.44 1.56 1.67 1.80 1.98 1.99 1.94 1.75 1.61 1.54 1.54 1.62 1.55 1.49 1.53 1.61 1.64 1.64 1.63 1.61 1.60 1.59
0.92 0.90 0.78 0.98 0.64 0.37 0.23 0.17 0.15 0.17 0.23 0.31 0.32 0.30 0.30 0.39 0.42 0.39 0.39 0.41 0.50 0.57 0.65 0.76 0.88 0.97 1.07 1.21 1.36 1.48 1.57 1.64 1.71 1.78 1.77 1.61 1.52 1.49 1.49 1.44 1.36 1.29 1.31 1.40 1.49 1.49 1.48 1.48 1.48
0.77 0.73 0.92 1.30 1.01 0.54 0.22 0.13 0.18 0.20 0.21 0.28 0.31 0.34 0.36 0.41 0.40 0.37 0.39 0.44 0.49 0.51 0.54 0.64 0.81 0.86 0.89 0.99 1.10 1.21 1.32 1.46 1.53 1.56 1.56 1.50 1.45 1.44 1.41 1.34 1.25 1.18 1.15 1.16 1.24 1.26 1.25 1.29 1.28
0.71 0.89 1.03 1.03 0.77 0.65 0.41 0.27 0.25 0.24 0.22 0.25 0.30 0.33 0.37 0.41 0.41 0.41 0.45 0.52 0.56 0.52 0.54 0.61 0.71 0.82 0.88 0.92 0.97 1.00 1.01 1.10 1.26 1.38 1.39 1.39 1.36 1.34 1.31 1.26 1.21 1.16 1.09 1.04 1.03 1.02 1.07 1.14 1.15
0.55 0.57 0.77 1.10 0.80 0.55 0.49 0.38 0.26 0.25 0.22 0.23 0.28 0.31 0.34 0.36 0.38 0.43 0.51 0.53 0.55 0.57 0.60 0.64 0.67 0.75 0.86 0.89 0.91 0.94 0.95 0.94 1.03 1.13 1.25 1.32 1.38 1.30 1.26 1.22 1.17 1.11 1.07 1.03 1.00 0.95 0.95 1.00 1.04

GEFSSGP_prec_meanprecacc_228.txt.gz
Total_Precipitation_Accumulation
0.18 0.20 0.29 0.42 0.40 0.27 0.11 0.03 0.02 0.02 0.03 0.05 0.06 0.08 0.07 0.07 0.10 0.21 0.18 0.13 0.11 0.14 0.24 0.44 0.66 0.80 0.78 0.71 0.61 0.53 0.48 0.44 0.45 0.47 0.47 0.46 0.41 0.38 0.40 0.42 0.44 0.47 0.48 0.49 0.55 0.52 0.50 0.45 0.36
0.21 0.31 0.50 0.59 0.44 0.27 0.11 0.03 0.02 0.03 0.04 0.05 0.07 0.08 0.08 0.09 0.10 0.15 0.21 0.20 0.17 0.20 0.29 0.44 0.67 0.85 0.85 0.80 0.72 0.66 0.68 0.61 0.56 0.56 0.57 0.56 0.52 0.49 0.49 0.48 0.49 0.49 0.47 0.47 0.46 0.38 0.35 0.27 0.23
0.35 0.50 0.69 0.66 0.48 0.26 0.11 0.04 0.04 0.04 0.05 0.07 0.08 0.09 0.11 0.14 0.14 0.17 0.24 0.30 0.31 0.32 0.40 0.57 0.75 0.91 0.95 0.87 0.84 0.80 0.83 0.80 0.74 0.67 0.67 0.68 0.66 0.61 0.56 0.50 0.50 0.46 0.44 0.40 0.37 0.28 0.21 0.18 0.15
0.58 0.75 0.78 0.66 0.47 0.23 0.10 0.06 0.07 0.07 0.07 0.08 0.11 0.17 0.17 0.16 0.19 0.23 0.33 0.41 0.44 0.46 0.53 0.72 0.87 0.99 1.03 0.93 0.89 0.90 0.91 0.92 0.89 0.77 0.75 0.77 0.78 0.71 0.59 0.52 0.47 0.42 0.38 0.36 0.31 0.25 0.19 0.16 0.16
0.84 0.96 0.81 0.62 0.41 0.21 0.10 0.09 0.10 0.11 0.11 0.12 0.15 0.21 0.25 0.22 0.24 0.36 0.51 0.59 0.61 0.68 0.75 0.88 1.07 1.22 1.25 1.15 1.07 1.01 0.97 0.97 0.98 0.89 0.82 0.83 0.87 0.86 0.68 0.53 0.44 0.38 0.34 0.30 0.27 0.23 0.20 0.17 0.16
1.09 1.10 0.86 0.55 0.33 0.21 0.11 0.10 0.11 0.14 0.14 0.16 0.22 0.27 0.36 0.33 0.36 0.46 0.68 0.78 0.81 0.88 0.95 1.10 1.31 1.38 1.44 1.35 1.23 1.18 1.12 1.03 1.01 1.01 0.96 0.92 0.95 0.96 0.77 0.55 0.45 0.41 0.35 0.30 0.29 0.25 0.21 0.19 0.18
1.10 1.12 0.82 0.43 0.28 0.24 0.13 0.12 0.15 0.16 0.16 0.19 0.25 0.35 0.46 0.50 0.60 0.66 0.83 1.01 1.09 1.16 1.26 1.31 1.41 1.50 1.64 1.47 1.27 1.23 1.23 1.17 1.11 1.08 1.05 0.97 0.96 0.93 0.77 0.56 0.48 0.45 0.39 0.33 0.31 0.30 0.26 0.22 0.21
1.09 1.20 0.82 0.42 0.26 0.27 0.18 0.16 0.18 0.20 0.21 0.21 0.30 0.42 0.52 0.61 0.77 0.93 1.08 1.20 1.38 1.45 1.56 1.54 1.52 1.58 1.72 1.65 1.40 1.23 1.15 1.14 1.17 1.13 0.99 0.81 0.78 0.84 0.75 0.53 0.46 0.44 0.39 0.34 0.33 0.31 0.29 0.26 0.21
1.11 1.20 0.80 0.44 0.32 0.29 0.25 0.26 0.24 0.23 0.31 0.34 0.40 0.47 0.58 0.74 0.99 1.23 1.39 1.47 1.64 1.77 1.80 1.79 1.70 1.62 1.70 1.72 1.48 1.36 1.26 1.21 1.20 1.17 0.94 0.81 0.82 0.80 0.71 0.49 0.38 0.41 0.38 0.34 0.34 0.36 0.34 0.29 0.22
1.13 0.97 0.59 0.39 0.36 0.35 0.30 0.32 0.33 0.38 0.44 0.50 0.59 0.66 0.79 1.03 1.35 1.51 1.60 1.64 1.73 1.87 1.93 1.97 1.84 1.79 1.80 1.78 1.64 1.57 1.44 1.34 1.28 1.18 1.06 0.95 0.88 0.87 0.73 0.59 0.40 0.38 0.38 0.36 0.37 0.37 0.40 0.33 0.25
0.81 0.70 0.50 0.40 0.38 0.38 0.39 0.37 0.38 0.47 0.51 0.50 0.59 0.78 1.05 1.35 1.67 1.73 1.86 1.98 1.94 2.07 2.12 2.17 2.03 1.99 1.94 1.87 1.69 1.60 1.47 1.41 1.39 1.35 1.17 1.10 1.04 0.95 0.93 0.79 0.64 0.53 0.40 0.40 0.37 0.39 0.36 0.31 0.28
0.59 0.49 0.46 0.45 0.40 0.43 0.45 0.45 0.48 0.49 0.49 0.50 0.58 0.77 1.12 1.48 1.72 1.78 1.98 2.15 2.24 2.31 2.40 2.37 2.28 2.21 2.12 2.02 1.80 1.55 1.42 1.35 1.31 1.30 1.29 1.23 1.16 1.05 0.94 0.84 0.69 0.61 0.48 0.42 0.39 0.35 0.32 0.30 0.32
0.49 0.41 0.41 0.48 0.48 0.46 0.44 0.44 0.53 0.46 0.46 0.54 0.65 0.89 1.17 1.53 1.85 1.99 2.21 2.34 2.44 2.57 2.59 2.62 2.52 2.36 2.18 2.11 1.98 1.64 1.40 1.25 1.24 1.24 1.24 1.22 1.13 1.03 0.97 0.88 0.81 0.71 0.57 0.50 0.46 0.40 0.36 0.33 0.34
0.40 0.38 0.46 0.54 0.59 0.49 0.48 0.48 0.53 0.51 0.49 0.61 0.75 0.94 1.15 1.51 1.96 2.15 2.41 2.61 2.55 2.76 2.84 2.90 2.75 2.55 2.24 2.06 2.02 1.80 1.53 1.35 1.29 1.22 1.18 1.22 1.17 1.10 1.07 0.90 0.87 0.81 0.73 0.66 0.61 0.54 0.50 0.45 0.41
0.43 0.52 0.57 0.62 0.66 0.54 0.56 0.65 0.57 0.53 0.50 0.59 0.72 0.93 1.12 1.43 1.84 2.12 2.34 2.51 2.69 2.84 3.03 3.08 3.03 2.83 2.44 2.14 2.04 1.88 1.67 1.53 1.43 1.22 1.13 1.15 1.21 1.25 1.25 1.02 0.93 0.87 0.84 0.83 0.79 0.72 0.69 0.60 0.50
0.68 0.81 0.76 0.56 0.61 0.59 0.67 0.72 0.51 0.49 0.54 0.55 0.63 0.82 1.01 1.21 1.58 1.90 2.24 2.44 2.63 2.90 3.03 3.09 3.09 3.01 2.72 2.35 2.18 2.02 1.79 1.66 1.58 1.43 1.28 1.18 1.21 1.35 1.41 1.15 1.02 0.95 0.92 0.89 0.83 0.77 0.74 0.64 0.58
0.93 0.77 0.60 0.47 0.48 0.61 0.61 0.64 0.53 0.49 0.55 0.51 0.52 0.68 0.94 1.09 1.30 1.57 1.94 2.28 2.42 2.73 2.95 3.18 3.12 3.04 2.94 2.68 2.47 2.31 2.06 1.87 1.72 1.52 1.37 1.35 1.33 1.39 1.50 1.24 1.06 1.04 0.99 0.88 0.87 0.83 0.78 0.69 0.62
0.70 0.45 0.40 0.43 0.45 0.51 0.48 0.43 0.48 0.54 0.55 0.51 0.53 0.60 0.79 1.01 1.07 1.29 1.59 2.03 2.23 2.51 2.79 2.99 3.26 3.19 3.22 3.14 2.86 2.61 2.40 2.12 1.90 1.64 1.44 1.42 1.42 1.41 1.52 1.40 1.17 1.15 1.11 0.93 0.82 0.83 0.88 0.86 0.77
0.53 0.43 0.35 0.32 0.36 0.45 0.41 0.35 0.41 0.44 0.52 0.52 0.53 0.56 0.62 0.81 0.95 1.13 1.43 1.78 2.08 2.25 2.54 2.68 2.92 3.12 3.17 3.09 2.79 2.49 2.31 2.25 2.10 1.84 1.62 1.58 1.54 1.44 1.47 1.49 1.32 1.18 1.15 1.06 0.91 0.86 0.86 0.92 0.98
0.68 0.60 0.43 0.33 0.30 0.41 0.42 0.37 0.38 0.41 0.48 0.50 0.52 0.51 0.54 0.62 0.77 0.95 1.30 1.50 1.72 1.97 2.16 2.45 2.53 2.82 2.86 2.77 2.73 2.57 2.49 2.43 2.33 2.15 1.87 1.72 1.68 1.58 1.49 1.44 1.38 1.24 1.17 1.18 1.16 1.07 1.00 0.95 0.98
0.71 0.59 0.49 0.43 0.38 0.46 0.51 0.48 0.38 0.37 0.39 0.38 0.40 0.39 0.46 0.51 0.58 0.74 1.05 1.34 1.44 1.68 1.97 2.11 2.22 2.45 2.70 2.74 2.85 2.93 2.87 2.62 2.36 2.20 2.10 1.93 1.82 1.75 1.63 1.51 1.46 1.39 1.25 1.16 1.20 1.25 1.23 1.21 1.19
0.73 0.44 0.48 0.52 0.66 0.64 0.50 0.63 0.42 0.33 0.32 0.33 0.35 0.32 0.37 0.45 0.50 0.59 0.70 0.96 1.18 1.35 1.71 2.02 2.19 2.32 2.52 2.82 2.81 2.70 2.56 2.35 2.09 2.09 2.15 2.13 2.01 1.90 1.76 1.68 1.60 1.52 1.43 1.32 1.30 1.31 1.37 1.43 1.40
0.65 0.45 0.52 0.62 0.74 0.73 0.46 0.50 0.40 0.26 0.29 0.32 0.34 0.33 0.40 0.51 0.55 0.55 0.58 0.72 0.92 1.11 1.44 1.75 2.00 2.27 2.46 2.60 2.64 2.67 2.46 2.26 2.21 2.13 2.11 2.03 1.94 1.88 1.80 1.74 1.74 1.66 1.58 1.53 1.55 1.51 1.49 1.52 1.53
0.72 0.75 0.81 0.87 1.11 1.08 0.43 0.40 0.37 0.28 0.30 0.33 0.33 0.34 0.41 0.49 0.55 0.53 0.55 0.64 0.81 0.93 1.14 1.46 1.71 1.85 2.09 2.35 2.40 2.42 2.40 2.37 2.32 2.10 2.00 2.01 1.99 1.91 1.79 1.79 1.80 1.81 1.76 1.68 1.64 1.66 1.68 1.67 1.65
1.05 1.46 1.91 1.82 1.54 0.81 0.27 0.31 0.30 0.25 0.32 0.36 0.36 0.38 0.41 0.43 0.45 0.46 0.51 0.59 0.73 0.87 0.99 1.14 1.33 1.46 1.62 1.84 1.98 2.02 2.14 2.26 2.19 2.05 1.87 1.83 1.81 1.76 1.70 1.68 1.76 1.83 1.80 1.79 1.77 1.76 1.73 1.75 1.77
1.04 1.23 1.47 1.20 0.73 0.37 0.23 0.26 0.24 0.25 0.34 0.39 0.38 0.37 0.36 0.41 0.44 0.42 0.42 0.49 0.61 0.72 0.86 0.96 1.06 1.18 1.34 1.49 1.62 1.75 1.87 2.05 2.07 2.04 1.82 1.67 1.60 1.59 1.67 1.61 1.55 1.59 1.68 1.71 1.71 1.69 1.66 1.66 1.65
0.97 0.93 0.80 1.01 0.66 0.37 0.24 0.17 0.15 0.18 0.24 0.31 0.33 0.31 0.32 0.40 0.42 0.40 0.40 0.42 0.52 0.58 0.68 0.80 0.92 1.01 1.11 1.26 1.42 1.56 1.63 1.71 1.79 1.87 1.84 1.67 1.57 1.53 1.53 1.48 1.41 1.34 1.36 1.45 1.54 1.53 1.51 1.53 1.53
0.80 0.76 0.95 1.34 1.05 0.56 0.23 0.14 0.19 0.21 0.21 0.28 0.31 0.34 0.37 0.42 0.41 0.38 0.40 0.44 0.50 0.52 0.55 0.66 0.83 0.88 0.92 1.02 1.15 1.28 1.39 1.53 1.61 1.65 1.63 1.55 1.50 1.48 1.44 1.36 1.27 1.21 1.19 1.19 1.27 1.29 1.28 1.32 1.32
0.74 0.93 1.08 1.07 0.80 0.68 0.43 0.28 0.26 0.25 0.23 0.26 0.31 0.34 0.37 0.41 0.42 0.42 0.45 0.53 0.57 0.53 0.55 0.63 0.73 0.84 0.90 0.93 1.00 1.07 1.09 1.18 1.33 1.45 1.47 1.46 1.42 1.38 1.35 1.29 1.23 1.18 1.11 1.07 1.06 1.05 1.09 1.16 1.17
0.58 0.60 0.81 1.16 0.84 0.57 0.51 0.40 0.28 0.25 0.23 0.24 0.28 0.32 0.34 0.36 0.38 0.43 0.51 0.53 0.56 0.58 0.61 0.65 0.69 0.77 0.88 0.91 0.94 1.00 1.01 1.01 1.09 1.19 1.31 1.39 1.46 1.36 1.31 1.26 1.20 1.13 1.09 1.05 1.02 0.99 0.97 1.01 1.06

GEFSSGP_prec_meanprecacc_234.txt.gz
Total_Precipitation_Accumulation
0.18 0.20 0.29 0.42 0.40 0.27 0.11 0.03 0.02 0.02 0.03 0.05 0.06 0.08 0.07 0.07 0.10 0.21 0.18 0.13 0.11 0.14 0.24 0.45 0.67 0.81 0.79 0.72 0.63 0.54 0.50 0.45 0.46 0.49 0.49 0.47 0.42 0.40 0.41 0.44 0.46 0.49 0.50 0.51 0.57 0.55 0.53 0.46 0.37
0.21 0.31 0.50 0.60 0.44 0.27 0.11 0.03 0.02 0.03 0.04 0.05 0.07 0.08 0.08 0.09 0.10 0.15 0.21 0.20 0.17 0.20 0.29 0.45 0.68 0.87 0.87 0.82 0.73 0.67 0.70 0.63 0.58 0.58 0.59 0.58 0.53 0.51 0.52 0.51 0.51 0.51 0.49 0.48 0.48 0.40 0.36 0.28 0.24
0.35 0.50 0.69 0.66 0.48 0.26 0.11 0.04 0.04 0.04 0.05 0.07 0.08 0.09 0.11 0.14 0.14 0.17 0.24 0.30 0.31 0.33 0.40 0.59 0.78 0.93 0.98 0.88 0.86 0.82 0.85 0.82 0.76 0.69 0.70 0.71 0.69 0.63 0.58 0.53 0.53 0.48 0.46 0.42 0.39 0.31 0.23 0.19 0.16
0.58 0.75 0.78 0.66 0.47 0.23 0.10 0.06 0.07 0.07 0.07 0.08 0.11 0.17 0.17 0.16 0.19 0.23 0.33 0.41 0.44 0.47 0.54 0.73 0.90 1.02 1.06 0.95 0.91 0.92 0.93 0.95 0.91 0.79 0.77 0.80 0.81 0.73 0.60 0.54 0.50 0.45 0.40 0.37 0.32 0.27 0.21 0.17 0.16
0.84 0.96 0.81 0.62 0.41 0.21 0.10 0.09 0.10 0.11 0.11 0.12 0.15 0.21 0.25 0.22 0.24 0.36 0.51 0.59 0.61 0.68 0.75 0.89 1.09 1.25 1.28 1.18 1.10 1.04 1.00 0.99 1.00 0.91 0.84 0.86 0.91 0.89 0.70 0.55 0.46 0.40 0.37 0.32 0.28 0.24 0.22 0.19 0.17
1.09 1.10 0.86 0.55 0.33 0.21 0.11 0.10 0.11 0.14 0.14 0.16 0.22 0.27 0.36 0.33 0.36 0.46 0.68 0.78 0.81 0.88 0.96 1.11 1.33 1.41 1.48 1.39 1.27 1.22 1.15 1.06 1.04 1.05 1.00 0.96 0.98 1.00 0.81 0.59 0.48 0.43 0.37 0.32 0.30 0.26 0.22 0.20 0.18
1.10 1.12 0.82 0.43 0.28 0.24 0.13 0.12 0.15 0.16 0.16 0.19 0.25 0.35 0.46 0.50 0.60 0.66 0.83 1.02 1.09 1.16 1.27 1.32 1.44 1.54 1.68 1.51 1.32 1.28 1.26 1.19 1.12 1.11 1.09 1.01 1.00 0.96 0.82 0.61 0.52 0.48 0.42 0.35 0.32 0.31 0.27 0.23 0.21
1.09 1.21 0.82 0.42 0.26 0.27 0.18 0.16 0.18 0.20 0.21 0.21 0.30 0.42 0.52 0.61 0.77 0.93 1.09 1.20 1.38 1.46 1.56 1.55 1.54 1.61 1.77 1.71 1.45 1.28 1.18 1.16 1.19 1.15 1.01 0.84 0.81 0.86 0.80 0.56 0.50 0.48 0.43 0.36 0.34 0.33 0.31 0.27 0.21
1.11 1.20 0.80 0.44 0.32 0.29 0.25 0.26 0.24 0.23 0.31 0.34 0.40 0.47 0.58 0.75 1.00 1.23 1.40 1.48 1.65 1.78 1.82 1.81 1.73 1.65 1.74 1.77 1.55 1.43 1.30 1.24 1.22 1.18 0.97 0.83 0.84 0.83 0.75 0.53 0.40 0.44 0.41 0.36 0.35 0.38 0.36 0.31 0.23
1.13 0.97 0.59 0.39 0.36 0.35 0.30 0.32 0.33 0.38 0.44 0.50 0.59 0.66 0.80 1.05 1.36 1.52 1.61 1.65 1.74 1.88 1.94 1.99 1.87 1.81 1.83 1.84 1.72 1.64 1.49 1.37 1.29 1.19 1.07 0.97 0.90 0.89 0.77 0.63 0.42 0.41 0.41 0.40 0.40 0.39 0.42 0.35 0.26
0.82 0.70 0.50 0.40 0.38 0.38 0.39 0.37 0.38 0.47 0.51 0.50 0.59 0.78 1.06 1.38 1.71 1.75 1.89 2.00 1.95 2.08 2.13 2.19 2.05 2.01 1.97 1.93 1.78 1.69 1.53 1.44 1.39 1.36 1.18 1.12 1.06 0.98 0.96 0.82 0.67 0.57 0.44 0.45 0.42 0.42 0.38 0.33 0.29
0.60 0.49 0.46 0.45 0.40 0.43 0.45 0.45 0.48 0.49 0.49 0.50 0.58 0.77 1.12 1.49 1.74 1.81 2.02 2.16 2.25 2.32 2.41 2.39 2.31 2.24 2.14 2.05 1.87 1.67 1.53 1.40 1.32 1.31 1.30 1.24 1.18 1.07 0.96 0.86 0.72 0.65 0.53 0.47 0.44 0.39 0.34 0.31 0.33
0.49 0.41 0.41 0.48 0.48 0.46 0.44 0.44 0.53 0.46 0.46 0.54 0.65 0.89 1.17 1.53 1.86 2.00 2.22 2.35 2.45 2.58 2.61 2.64 2.55 2.40 2.21 2.14 2.04 1.75 1.53 1.34 1.26 1.26 1.26 1.24 1.14 1.05 0.99 0.90 0.83 0.74 0.62 0.54 0.50 0.44 0.38 0.35 0.35
0.40 0.39 0.46 0.54 0.59 0.49 0.48 0.48 0.53 0.51 0.49 0.61 0.75 0.94 1.15 1.51 1.97 2.16 2.42 2.63 2.56 2.77 2.86 2.92 2.78 2.58 2.26 2.07 2.07 1.89 1.65 1.44 1.33 1.23 1.19 1.23 1.19 1.13 1.11 0.93 0.89 0.85 0.77 0.71 0.65 0.57 0.52 0.46 0.43
0.44 0.52 0.58 0.62 0.66 0.54 0.56 0.65 0.57 0.53 0.50 0.59 0.72 0.93 1.12 1.43 1.84 2.13 2.35 2.53 2.69 2.85 3.04 3.11 3.07 2.85 2.46 2.16 2.06 1.94 1.77 1.64 1.50 1.24 1.15 1.17 1.24 1.28 1.30 1.07 0.96 0.90 0.88 0.89 0.84 0.76 0.72 0.62 0.52
0.69 0.81 0.76 0.56 0.61 0.59 0.67 0.72 0.51 0.49 0.54 0.55 0.63 0.82 1.01 1.21 1.58 1.91 2.25 2.45 2.64 2.90 3.04 3.11 3.13 3.04 2.74 2.37 2.20 2.05 1.85 1.75 1.66 1.46 1.30 1.19 1.23 1.38 1.48 1.22 1.06 0.99 0.98 0.97 0.91 0.82 0.77 0.67 0.61
0.95 0.78 0.61 0.47 0.49 0.61 0.61 0.64 0.53 0.49 0.55 0.51 0.52 0.68 0.94 1.09 1.31 1.58 1.95 2.29 2.43 2.74 2.97 3.21 3.15 3.08 2.97 2.71 2.50 2.33 2.10 1.93 1.80 1.58 1.40 1.38 1.35 1.42 1.57 1.32 1.13 1.09 1.04 0.97 0.97 0.92 0.85 0.73 0.65
0.72 0.46 0.40 0.44 0.45 0.52 0.48 0.43 0.48 0.54 0.56 0.51 0.53 0.60 0.79 1.02 1.08 1.29 1.61 2.04 2.24 2.53 2.83 3.03 3.30 3.25 3.27 3.17 2.89 2.64 2.43 2.17 1.96 1.70 1.49 1.46 1.45 1.44 1.57 1.47 1.25 1.20 1.17 1.02 0.95 0.95 0.98 0.95 0.83
0.55 0.44 0.36 0.32 0.36 0.46 0.41 0.35 0.41 0.44 0.52 0.52 0.53 0.57 0.63 0.82 0.96 1.14 1.44 1.80 2.10 2.27 2.58 2.74 2.97 3.18 3.22 3.13 2.82 2.53 2.34 2.28 2.15 1.89 1.67 1.64 1.59 1.49 1.53 1.56 1.41 1.24 1.21 1.14 1.04 0.99 0.98 1.03 1.09
0.71 0.63 0.45 0.34 0.30 0.42 0.42 0.37 0.38 0.41 0.48 0.50 0.52 0.51 0.55 0.63 0.78 0.96 1.32 1.52 1.74 1.99 2.19 2.49 2.58 2.88 2.92 2.82 2.76 2.61 2.53 2.46 2.37 2.21 1.93 1.78 1.74 1.64 1.55 1.53 1.49 1.33 1.23 1.26 1.27 1.19 1.12 1.06 1.10
0.74 0.62 0.51 0.45 0.40 0.47 0.52 0.49 0.38 0.37 0.39 0.38 0.40 0.40 0.46 0.52 0.60 0.75 1.06 1.35 1.46 1.71 2.01 2.14 2.26 2.50 2.75 2.79 2.90 2.98 2.91 2.66 2.40 2.26 2.18 2.01 1.90 1.83 1.69 1.60 1.60 1.50 1.33 1.23 1.28 1.34 1.33 1.31 1.30
0.75 0.45 0.49 0.54 0.68 0.67 0.52 0.64 0.42 0.33 0.32 0.33 0.35 0.33 0.37 0.45 0.50 0.60 0.71 0.97 1.19 1.37 1.73 2.05 2.23 2.36 2.56 2.86 2.85 2.74 2.60 2.40 2.14 2.14 2.22 2.21 2.10 1.99 1.84 1.77 1.75 1.67 1.52 1.38 1.38 1.40 1.47 1.52 1.49
0.66 0.46 0.54 0.63 0.76 0.75 0.47 0.51 0.40 0.26 0.29 0.32 0.34 0.33 0.40 0.51 0.55 0.55 0.58 0.73 0.94 1.12 1.45 1.77 2.03 2.32 2.52 2.65 2.69 2.72 2.51 2.32 2.27 2.20 2.20 2.12 2.03 1.97 1.91 1.85 1.90 1.83 1.70 1.63 1.64 1.61 1.60 1.62 1.61
0.74 0.77 0.84 0.89 1.14 1.11 0.43 0.41 0.38 0.28 0.30 0.33 0.34 0.34 0.41 0.50 0.55 0.53 0.55 0.65 0.82 0.93 1.15 1.47 1.75 1.92 2.17 2.42 2.47 2.48 2.47 2.43 2.38 2.19 2.10 2.08 2.06 2.00 1.90 1.90 1.94 1.95 1.89 1.79 1.76 1.77 1.77 1.77 1.74
1.09 1.52 1.99 1.89 1.60 0.83 0.27 0.31 0.30 0.26 0.32 0.37 0.37 0.39 0.41 0.43 0.46 0.46 0.52 0.60 0.74 0.87 1.00 1.16 1.36 1.51 1.70 1.94 2.07 2.10 2.21 2.32 2.25 2.14 1.95 1.89 1.87 1.83 1.79 1.78 1.84 1.92 1.90 1.88 1.86 1.86 1.84 1.85 1.86
1.08 1.28 1.51 1.23 0.75 0.38 0.23 0.26 0.24 0.25 0.35 0.40 0.38 0.38 0.38 0.42 0.44 0.43 0.43 0.50 0.62 0.73 0.87 0.98 1.09 1.21 1.40 1.57 1.70 1.83 1.94 2.12 2.13 2.11 1.90 1.75 1.69 1.68 1.75 1.69 1.61 1.65 1.74 1.78 1.79 1.77 1.75 1.76 1.74
1.00 0.97 0.83 1.04 0.67 0.38 0.24 0.18 0.16 0.18 0.24 0.32 0.33 0.32 0.33 0.41 0.43 0.41 0.40 0.42 0.52 0.59 0.69 0.81 0.94 1.04 1.15 1.31 1.48 1.63 1.69 1.76 1.84 1.93 1.91 1.75 1.66 1.61 1.60 1.54 1.47 1.41 1.43 1.52 1.61 1.61 1.60 1.63 1.63
0.83 0.80 1.00 1.40 1.09 0.58 0.24 0.15 0.20 0.21 0.22 0.29 0.32 0.34 0.38 0.42 0.43 0.40 0.40 0.45 0.51 0.53 0.57 0.68 0.85 0.91 0.95 1.06 1.20 1.32 1.43 1.58 1.65 1.69 1.68 1.61 1.56 1.55 1.52 1.42 1.33 1.27 1.26 1.27 1.34 1.36 1.36 1.40 1.41
0.77 0.98 1.14 1.13 0.84 0.71 0.45 0.31 0.27 0.26 0.23 0.27 0.32 0.34 0.38 0.43 0.44 0.43 0.47 0.53 0.58 0.54 0.56 0.65 0.75 0.86 0.93 0.97 1.04 1.09 1.12 1.20 1.36 1.49 1.51 1.51 1.48 1.46 1.43 1.36 1.30 1.25 1.18 1.14 1.13 1.11 1.16 1.23 1.24
0.63 0.66 0.87 1.22 0.88 0.60 0.53 0.42 0.29 0.26 0.23 0.24 0.29 0.33 0.35 0.37 0.40 0.45 0.53 0.55 0.56 0.59 0.62 0.67 0.71 0.79 0.91 0.94 0.97 1.03 1.05 1.03 1.11 1.23 1.35 1.43 1.50 1.41 1.38 1.33 1.27 1.20 1.15 1.11 1.08 1.04 1.03 1.07 1.10

GEFSSGP_prec_meanprecacc_240.txt.gz
Total_Precipitation_Accumulation
0.18 0.20 0.29 0.42 0.40 0.27 0.11 0.03 0.02 0.02 0.03 0.05 0.06 0.08 0.07 0.07 0.10 0.22 0.18 0.13 0.11 0.14 0.24 0.45 0.67 0.82 0.80 0.73 0.64 0.56 0.52 0.47 0.47 0.50 0.49 0.48 0.44 0.42 0.45 0.48 0.48 0.51 0.52 0.53 0.59 0.58 0.56 0.49 0.39
0.21 0.32 0.50 0.60 0.44 0.27 0.11 0.03 0.02 0.03 0.04 0.05 0.07 0.08 0.08 0.09 0.10 0.15 0.21 0.20 0.17 0.20 0.29 0.45 0.68 0.87 0.88 0.83 0.75 0.68 0.71 0.65 0.60 0.60 0.62 0.59 0.56 0.54 0.55 0.55 0.54 0.54 0.51 0.50 0.50 0.43 0.40 0.31 0.26
0.36 0.50 0.69 0.66 0.48 0.26 0.11 0.04 0.04 0.04 0.05 0.07 0.08 0.09 0.11 0.14 0.14 0.17 0.24 0.30 0.31 0.33 0.41 0.59 0.78 0.94 0.98 0.89 0.88 0.83 0.86 0.84 0.77 0.71 0.72 0.74 0.72 0.66 0.61 0.56 0.56 0.52 0.49 0.44 0.40 0.32 0.25 0.22 0.19
0.58 0.75 0.79 0.66 0.47 0.23 0.10 0.06 0.07 0.07 0.07 0.08 0.11 0.17 0.17 0.16 0.19 0.23 0.33 0.41 0.44 0.47 0.54 0.73 0.91 1.03 1.07 0.97 0.93 0.93 0.95 0.97 0.93 0.82 0.79 0.83 0.83 0.75 0.62 0.57 0.53 0.47 0.43 0.40 0.34 0.28 0.22 0.19 0.19
0.85 0.97 0.81 0.62 0.41 0.21 0.10 0.09 0.10 0.11 0.11 0.12 0.15 0.21 0.25 0.22 0.24 0.36 0.51 0.59 0.61 0.68 0.75 0.89 1.10 1.26 1.30 1.20 1.11 1.06 1.03 1.03 1.03 0.94 0.85 0.87 0.92 0.91 0.72 0.59 0.49 0.42 0.39 0.35 0.31 0.25 0.23 0.20 0.19
1.10 1.11 0.86 0.55 0.33 0.21 0.11 0.10 0.11 0.14 0.14 0.16 0.22 0.27 0.36 0.33 0.36 0.46 0.68 0.78 0.81 0.89 0.96 1.11 1.34 1.42 1.50 1.41 1.30 1.25 1.18 1.10 1.07 1.06 1.01 0.97 0.99 1.02 0.84 0.62 0.51 0.45 0.39 0.34 0.33 0.29 0.23 0.21 0.20
1.10 1.12 0.82 0.43 0.28 0.24 0.13 0.12 0.15 0.16 0.16 0.19 0.25 0.35 0.46 0.50 0.60 0.66 0.83 1.02 1.09 1.17 1.27 1.33 1.45 1.56 1.70 1.53 1.33 1.30 1.28 1.22 1.16 1.13 1.09 1.01 1.00 0.97 0.83 0.63 0.54 0.51 0.45 0.38 0.35 0.34 0.29 0.24 0.23
1.10 1.21 0.82 0.42 0.26 0.27 0.18 0.16 0.18 0.20 0.21 0.21 0.30 0.42 0.52 0.61 0.77 0.93 1.09 1.21 1.39 1.46 1.57 1.56 1.56 1.62 1.79 1.73 1.47 1.30 1.21 1.19 1.22 1.16 1.02 0.84 0.82 0.87 0.80 0.58 0.52 0.51 0.46 0.39 0.37 0.36 0.34 0.28 0.23
1.12 1.20 0.80 0.44 0.32 0.29 0.25 0.26 0.24 0.23 0.31 0.34 0.40 0.47 0.58 0.75 1.00 1.24 1.41 1.49 1.66 1.79 1.83 1.83 1.75 1.66 1.75 1.79 1.57 1.45 1.33 1.27 1.25 1.21 0.99 0.83 0.85 0.84 0.76 0.54 0.41 0.46 0.44 0.40 0.39 0.41 0.39 0.32 0.24
1.14 0.97 0.59 0.39 0.36 0.35 0.30 0.32 0.33 0.38 0.44 0.50 0.59 0.66 0.80 1.05 1.37 1.53 1.62 1.65 1.74 1.89 1.95 2.01 1.90 1.83 1.85 1.86 1.74 1.68 1.53 1.41 1.33 1.21 1.09 0.98 0.91 0.90 0.78 0.65 0.44 0.42 0.43 0.44 0.44 0.43 0.45 0.37 0.27
0.82 0.70 0.50 0.40 0.38 0.38 0.39 0.37 0.38 0.47 0.51 0.50 0.59 0.79 1.06 1.38 1.71 1.75 1.89 2.00 1.96 2.09 2.14 2.21 2.08 2.05 2.00 1.96 1.81 1.72 1.58 1.50 1.45 1.40 1.21 1.13 1.07 0.99 0.97 0.84 0.70 0.60 0.48 0.49 0.46 0.47 0.42 0.35 0.30
0.60 0.49 0.46 0.45 0.40 0.43 0.45 0.45 0.48 0.49 0.49 0.50 0.58 0.78 1.12 1.50 1.75 1.82 2.03 2.17 2.26 2.33 2.43 2.42 2.34 2.29 2.19 2.08 1.90 1.70 1.55 1.45 1.40 1.39 1.36 1.27 1.19 1.08 0.97 0.87 0.74 0.68 0.55 0.50 0.48 0.43 0.37 0.34 0.35
0.49 0.41 0.41 0.48 0.48 0.46 0.44 0.44 0.53 0.46 0.46 0.54 0.65 0.89 1.17 1.53 1.86 2.01 2.23 2.36 2.46 2.59 2.62 2.67 2.60 2.46 2.26 2.17 2.07 1.77 1.55 1.37 1.35 1.38 1.36 1.29 1.16 1.06 1.00 0.92 0.86 0.77 0.64 0.57 0.53 0.47 0.42 0.38 0.38
0.40 0.39 0.46 0.54 0.59 0.50 0.48 0.48 0.53 0.51 0.49 0.61 0.75 0.94 1.16 1.51 1.97 2.18 2.45 2.65 2.57 2.78 2.88 2.95 2.83 2.64 2.32 2.11 2.09 1.91 1.66 1.46 1.38 1.32 1.30 1.33 1.23 1.14 1.12 0.95 0.92 0.88 0.80 0.73 0.67 0.59 0.56 0.50 0.47
0.44 0.53 0.58 0.63 0.66 0.54 0.56 0.65 0.57 0.53 0.50 0.59 0.72 0.93 1.12 1.43 1.85 2.15 2.40 2.56 2.71 2.86 3.06 3.13 3.11 2.92 2.53 2.22 2.10 1.96 1.79 1.66 1.52 1.29 1.22 1.25 1.29 1.31 1.32 1.10 0.99 0.94 0.91 0.91 0.86 0.79 0.76 0.66 0.56
0.70 0.83 0.77 0.56 0.62 0.59 0.68 0.72 0.51 0.49 0.54 0.55 0.63 0.82 1.01 1.21 1.59 1.92 2.27 2.48 2.65 2.92 3.07 3.13 3.15 3.09 2.81 2.43 2.26 2.09 1.88 1.77 1.68 1.50 1.34 1.24 1.27 1.41 1.52 1.27 1.10 1.04 1.03 1.00 0.93 0.85 0.81 0.72 0.64
0.97 0.79 0.61 0.47 0.49 0.61 0.62 0.64 0.53 0.49 0.55 0.51 0.52 0.68 0.94 1.09 1.31 1.58 1.96 2.30 2.45 2.76 2.99 3.23 3.18 3.11 3.02 2.77 2.56 2.39 2.15 1.97 1.82 1.61 1.44 1.41 1.39 1.45 1.60 1.37 1.18 1.13 1.11 1.02 1.01 0.95 0.88 0.77 0.69
0.74 0.47 0.41 0.44 0.45 0.52 0.49 0.43 0.48 0.54 0.56 0.51 0.53 0.60 0.79 1.02 1.08 1.30 1.62 2.06 2.26 2.55 2.85 3.05 3.32 3.28 3.33 3.24 2.96 2.69 2.49 2.22 1.99 1.73 1.52 1.49 1.48 1.46 1.61 1.52 1.30 1.24 1.22 1.09 1.00 0.99 1.02 0.99 0.88
0.58 0.47 0.37 0.32 0.37 0.47 0.42 0.36 0.41 0.44 0.52 0.52 0.54 0.57 0.63 0.82 0.96 1.15 1.45 1.81 2.11 2.29 2.60 2.76 2.99 3.21 3.28 3.21 2.89 2.59 2.39 2.32 2.19 1.92 1.70 1.67 1.61 1.51 1.55 1.60 1.46 1.29 1.25 1.20 1.10 1.04 1.02 1.07 1.13
0.73 0.66 0.47 0.34 0.30 0.43 0.43 0.38 0.38 0.41 0.49 0.50 0.52 0.52 0.55 0.63 0.78 0.97 1.33 1.53 1.75 2.01 2.21 2.52 2.61 2.91 2.97 2.89 2.85 2.68 2.59 2.50 2.41 2.24 1.95 1.82 1.77 1.66 1.57 1.55 1.54 1.39 1.28 1.31 1.33 1.24 1.16 1.10 1.13
0.76 0.64 0.52 0.47 0.41 0.49 0.54 0.50 0.38 0.38 0.39 0.38 0.40 0.40 0.47 0.52 0.60 0.75 1.07 1.36 1.48 1.73 2.03 2.17 2.31 2.55 2.80 2.86 2.99 3.07 2.99 2.72 2.44 2.29 2.20 2.03 1.93 1.85 1.71 1.62 1.62 1.55 1.39 1.29 1.35 1.39 1.35 1.34 1.33
0.77 0.47 0.51 0.56 0.71 0.70 0.54 0.67 0.43 0.33 0.32 0.33 0.36 0.33 0.37 0.45 0.50 0.60 0.71 0.98 1.20 1.38 1.75 2.07 2.28 2.43 2.61 2.93 2.92 2.81 2.67 2.47 2.19 2.16 2.24 2.22 2.12 2.01 1.86 1.79 1.78 1.69 1.56 1.43 1.42 1.44 1.49 1.54 1.52
0.68 0.47 0.55 0.65 0.79 0.79 0.49 0.54 0.41 0.26 0.29 0.32 0.34 0.33 0.40 0.51 0.55 0.55 0.58 0.73 0.94 1.13 1.46 1.79 2.06 2.38 2.61 2.73 2.74 2.76 2.56 2.37 2.32 2.23 2.23 2.14 2.04 1.99 1.94 1.88 1.93 1.86 1.74 1.67 1.68 1.64 1.64 1.65 1.64
0.76 0.80 0.86 0.91 1.19 1.17 0.45 0.43 0.39 0.28 0.31 0.33 0.34 0.34 0.41 0.50 0.55 0.54 0.55 0.65 0.82 0.94 1.16 1.49 1.77 1.94 2.23 2.52 2.53 2.52 2.51 2.46 2.42 2.23 2.14 2.12 2.08 2.01 1.93 1.94 1.98 1.99 1.93 1.84 1.80 1.81 1.82 1.81 1.77
1.13 1.59 2.08 1.97 1.67 0.87 0.28 0.33 0.32 0.26 0.33 0.37 0.38 0.39 0.41 0.43 0.46 0.47 0.52 0.60 0.74 0.88 1.01 1.18 1.38 1.52 1.73 2.00 2.15 2.16 2.25 2.35 2.28 2.18 1.99 1.94 1.90 1.85 1.82 1.82 1.90 1.98 1.96 1.94 1.92 1.92 1.89 1.90 1.91
1.13 1.34 1.59 1.29 0.78 0.40 0.24 0.28 0.26 0.26 0.36 0.40 0.39 0.39 0.38 0.42 0.45 0.43 0.43 0.50 0.62 0.73 0.88 0.99 1.10 1.23 1.41 1.60 1.76 1.91 2.01 2.17 2.19 2.16 1.94 1.80 1.73 1.71 1.80 1.75 1.68 1.73 1.82 1.86 1.87 1.85 1.81 1.81 1.80
1.04 1.02 0.88 1.10 0.70 0.41 0.27 0.21 0.18 0.19 0.24 0.32 0.34 0.33 0.33 0.41 0.43 0.41 0.41 0.42 0.52 0.60 0.70 0.82 0.95 1.05 1.16 1.33 1.51 1.67 1.76 1.83 1.90 1.99 1.97 1.81 1.72 1.67 1.67 1.60 1.52 1.47 1.50 1.61 1.71 1.71 1.69 1.70 1.70
0.86 0.84 1.05 1.49 1.15 0.63 0.29 0.18 0.23 0.22 0.22 0.29 0.32 0.35 0.38 0.43 0.43 0.40 0.41 0.45 0.52 0.54 0.58 0.69 0.85 0.91 0.97 1.07 1.22 1.34 1.48 1.63 1.71 1.75 1.75 1.68 1.64 1.62 1.58 1.48 1.38 1.32 1.31 1.35 1.44 1.47 1.47 1.50 1.49
0.82 1.03 1.20 1.19 0.90 0.76 0.51 0.36 0.30 0.27 0.24 0.28 0.32 0.35 0.38 0.43 0.45 0.45 0.47 0.54 0.59 0.56 0.58 0.66 0.76 0.87 0.94 0.98 1.06 1.12 1.14 1.24 1.41 1.54 1.58 1.57 1.54 1.52 1.49 1.42 1.35 1.29 1.23 1.20 1.21 1.20 1.24 1.31 1.31
0.68 0.73 0.94 1.28 0.93 0.64 0.58 0.47 0.31 0.27 0.24 0.25 0.30 0.33 0.35 0.38 0.41 0.47 0.54 0.55 0.57 0.60 0.63 0.68 0.72 0.81 0.92 0.96 0.99 1.05 1.07 1.06 1.14 1.26 1.38 1.47 1.54 1.45 1.42 1.39 1.31 1.24 1.20 1.15 1.13 1.10 1.09 1.13 1.16

GEFSSGP_prec_meanprecacc_246.txt.gz
Total_Precipitation_Accumulation
0.18 0.20 0.29 0.42 0.40 0.27 0.11 0.03 0.02 0.02 0.03 0.05 0.06 0.08 0.07 0.07 0.10 0.22 0.18 0.13 0.11 0.14 0.24 0.45 0.68 0.82 0.80 0.74 0.64 0.56 0.52 0.47 0.47 0.51 0.50 0.49 0.45 0.44 0.46 0.49 0.50 0.53 0.54 0.55 0.61 0.60 0.58 0.51 0.40
0.21 0.32 0.50 0.60 0.44 0.27 0.11 0.03 0.02 0.03 0.04 0.05 0.07 0.08 0.08 0.09 0.10 0.15 0.21 0.20 0.17 0.20 0.29 0.46 0.69 0.88 0.88 0.83 0.75 0.69 0.71 0.65 0.60 0.61 0.62 0.60 0.58 0.56 0.57 0.57 0.56 0.55 0.53 0.52 0.53 0.45 0.42 0.32 0.27
0.36 0.50 0.70 0.66 0.48 0.26 0.11 0.04 0.04 0.04 0.05 0.07 0.08 0.09 0.11 0.14 0.14 0.17 0.24 0.30 0.31 0.33 0.41 0.59 0.78 0.94 0.98 0.89 0.88 0.84 0.87 0.85 0.79 0.73 0.73 0.76 0.74 0.68 0.62 0.58 0.58 0.53 0.51 0.46 0.42 0.34 0.26 0.22 0.20
0.58 0.75 0.79 0.66 0.47 0.23 0.10 0.06 0.07 0.07 0.07 0.08 0.11 0.17 0.17 0.16 0.19 0.23 0.33 0.41 0.44 0.47 0.54 0.74 0.91 1.04 1.07 0.97 0.94 0.94 0.96 0.98 0.95 0.85 0.82 0.84 0.84 0.76 0.63 0.58 0.54 0.48 0.44 0.42 0.36 0.29 0.23 0.20 0.19
0.85 0.97 0.81 0.62 0.41 0.21 0.10 0.09 0.10 0.11 0.11 0.12 0.15 0.21 0.25 0.22 0.24 0.36 0.51 0.59 0.61 0.68 0.76 0.89 1.11 1.27 1.31 1.21 1.12 1.07 1.04 1.05 1.06 0.97 0.87 0.89 0.94 0.92 0.73 0.59 0.50 0.43 0.40 0.36 0.33 0.27 0.23 0.20 0.19
1.10 1.11 0.86 0.55 0.33 0.21 0.11 0.10 0.11 0.14 0.14 0.16 0.22 0.27 0.36 0.33 0.36 0.46 0.68 0.78 0.81 0.89 0.96 1.12 1.35 1.43 1.51 1.42 1.31 1.27 1.20 1.11 1.08 1.08 1.03 0.98 1.00 1.02 0.84 0.62 0.52 0.46 0.40 0.35 0.34 0.31 0.24 0.21 0.21
1.11 1.12 0.83 0.43 0.28 0.24 0.13 0.12 0.15 0.16 0.16 0.19 0.25 0.35 0.47 0.50 0.60 0.66 0.84 1.02 1.09 1.17 1.27 1.34 1.46 1.57 1.71 1.55 1.35 1.32 1.31 1.24 1.18 1.15 1.11 1.02 1.01 0.97 0.84 0.64 0.55 0.52 0.45 0.38 0.36 0.36 0.31 0.25 0.24
1.10 1.21 0.82 0.42 0.26 0.27 0.19 0.16 0.18 0.20 0.21 0.21 0.30 0.42 0.52 0.61 0.77 0.93 1.10 1.21 1.39 1.46 1.57 1.57 1.56 1.63 1.80 1.74 1.48 1.32 1.22 1.21 1.25 1.19 1.03 0.85 0.83 0.87 0.81 0.58 0.52 0.52 0.47 0.40 0.38 0.38 0.37 0.31 0.24
1.12 1.21 0.80 0.44 0.32 0.29 0.25 0.26 0.24 0.23 0.31 0.34 0.40 0.47 0.58 0.75 1.00 1.24 1.41 1.50 1.67 1.80 1.84 1.84 1.76 1.67 1.75 1.80 1.58 1.47 1.34 1.28 1.27 1.23 1.00 0.84 0.85 0.84 0.76 0.55 0.41 0.46 0.45 0.41 0.40 0.43 0.41 0.34 0.25
1.15 0.98 0.59 0.39 0.36 0.35 0.30 0.32 0.33 0.38 0.44 0.50 0.59 0.67 0.80 1.05 1.37 1.53 1.62 1.66 1.75 1.90 1.96 2.02 1.91 1.85 1.86 1.87 1.75 1.69 1.54 1.42 1.34 1.22 1.10 0.99 0.91 0.90 0.79 0.65 0.45 0.43 0.44 0.44 0.45 0.45 0.48 0.39 0.28
0.83 0.71 0.50 0.40 0.38 0.39 0.39 0.37 0.38 0.47 0.51 0.50 0.59 0.79 1.06 1.38 1.72 1.75 1.89 2.00 1.96 2.10 2.15 2.22 2.09 2.06 2.02 1.97 1.82 1.73 1.59 1.52 1.47 1.41 1.22 1.15 1.09 0.99 0.97 0.84 0.70 0.60 0.48 0.49 0.47 0.49 0.44 0.37 0.30
0.60 0.49 0.47 0.45 0.40 0.43 0.45 0.45 0.48 0.49 0.49 0.50 0.58 0.78 1.12 1.50 1.75 1.82 2.03 2.17 2.27 2.34 2.45 2.43 2.36 2.31 2.20 2.10 1.92 1.72 1.57 1.47 1.42 1.40 1.37 1.28 1.21 1.09 0.98 0.87 0.74 0.68 0.56 0.51 0.48 0.44 0.39 0.35 0.35
0.49 0.41 0.41 0.48 0.48 0.46 0.44 0.44 0.53 0.46 0.46 0.54 0.65 0.89 1.17 1.53 1.87 2.01 2.23 2.37 2.47 2.60 2.64 2.68 2.61 2.47 2.28 2.19 2.09 1.78 1.57 1.39 1.36 1.40 1.38 1.32 1.19 1.09 1.02 0.92 0.87 0.77 0.64 0.57 0.54 0.48 0.43 0.39 0.38
0.41 0.39 0.46 0.54 0.59 0.50 0.48 0.49 0.53 0.51 0.49 0.61 0.75 0.94 1.16 1.51 1.98 2.18 2.45 2.66 2.58 2.79 2.90 2.97 2.86 2.67 2.35 2.13 2.11 1.92 1.68 1.48 1.39 1.34 1.33 1.38 1.31 1.19 1.15 0.96 0.93 0.88 0.80 0.73 0.67 0.60 0.57 0.51 0.48
0.44 0.53 0.58 0.63 0.66 0.54 0.56 0.65 0.57 0.53 0.50 0.59 0.72 0.93 1.12 1.44 1.85 2.15 2.41 2.57 2.72 2.87 3.07 3.14 3.13 2.95 2.57 2.25 2.12 1.98 1.82 1.67 1.53 1.29 1.23 1.27 1.35 1.39 1.38 1.13 1.00 0.95 0.92 0.92 0.87 0.80 0.77 0.67 0.57
0.71 0.84 0.78 0.56 0.62 0.60 0.69 0.73 0.51 0.50 0.54 0.55 0.63 0.82 1.01 1.21 1.59 1.93 2.29 2.49 2.67 2.94 3.08 3.15 3.18 3.13 2.86 2.48 2.30 2.12 1.91 1.80 1.70 1.50 1.35 1.26 1.30 1.45 1.56 1.32 1.13 1.05 1.03 1.01 0.94 0.86 0.82 0.73 0.66
0.98 0.80 0.62 0.47 0.49 0.61 0.63 0.65 0.53 0.49 0.55 0.51 0.52 0.68 0.94 1.09 1.31 1.59 1.97 2.32 2.46 2.77 3.01 3.25 3.21 3.15 3.06 2.82 2.62 2.44 2.19 2.00 1.85 1.63 1.46 1.43 1.42 1.48 1.62 1.40 1.20 1.15 1.12 1.03 1.03 0.97 0.89 0.79 0.71
0.75 0.48 0.42 0.44 0.45 0.53 0.49 0.44 0.48 0.54 0.56 0.51 0.53 0.60 0.79 1.02 1.08 1.30 1.63 2.08 2.27 2.56 2.87 3.07 3.36 3.31 3.37 3.28 3.01 2.78 2.58 2.29 2.04 1.77 1.55 1.52 1.51 1.49 1.62 1.53 1.31 1.26 1.24 1.11 1.02 1.02 1.04 1.01 0.91
0.60 0.48 0.38 0.33 0.37 0.47 0.43 0.36 0.41 0.45 0.52 0.53 0.54 0.57 0.63 0.82 0.96 1.15 1.46 1.83 2.13 2.30 2.62 2.78 3.02 3.25 3.33 3.26 2.94 2.65 2.48 2.43 2.27 1.97 1.74 1.71 1.66 1.55 1.58 1.61 1.47 1.30 1.27 1.22 1.12 1.08 1.06 1.11 1.17
0.75 0.68 0.48 0.35 0.31 0.44 0.44 0.39 0.38 0.42 0.49 0.51 0.52 0.52 0.55 0.63 0.78 0.97 1.33 1.54 1.77 2.02 2.22 2.53 2.64 2.95 3.01 2.93 2.89 2.74 2.66 2.60 2.49 2.32 2.01 1.86 1.81 1.70 1.60 1.57 1.55 1.40 1.29 1.33 1.36 1.28 1.20 1.15 1.17
0.78 0.66 0.54 0.48 0.41 0.50 0.56 0.51 0.39 0.38 0.40 0.39 0.40 0.40 0.47 0.52 0.60 0.75 1.07 1.36 1.49 1.74 2.04 2.18 2.33 2.58 2.84 2.90 3.05 3.13 3.07 2.81 2.54 2.39 2.29 2.09 1.97 1.90 1.75 1.65 1.64 1.57 1.42 1.30 1.37 1.42 1.40 1.39 1.39
0.80 0.48 0.52 0.57 0.73 0.71 0.56 0.69 0.44 0.33 0.33 0.34 0.36 0.33 0.37 0.45 0.50 0.60 0.71 0.98 1.21 1.39 1.78 2.11 2.30 2.47 2.66 2.98 2.97 2.85 2.71 2.53 2.25 2.25 2.32 2.31 2.19 2.07 1.91 1.83 1.80 1.71 1.60 1.47 1.45 1.49 1.55 1.59 1.58
0.70 0.48 0.57 0.67 0.82 0.82 0.52 0.57 0.43 0.27 0.30 0.32 0.35 0.33 0.40 0.51 0.55 0.55 0.58 0.74 0.95 1.14 1.48 1.83 2.10 2.41 2.65 2.77 2.79 2.81 2.60 2.42 2.37 2.30 2.30 2.21 2.12 2.08 2.02 1.94 1.97 1.89 1.76 1.71 1.72 1.69 1.71 1.72 1.69
0.78 0.82 0.89 0.95 1.24 1.23 0.48 0.46 0.41 0.30 0.33 0.35 0.35 0.35 0.41 0.50 0.55 0.54 0.56 0.66 0.83 0.95 1.18 1.53 1.80 1.97 2.27 2.57 2.59 2.58 2.55 2.50 2.47 2.27 2.19 2.17 2.12 2.07 2.01 2.01 2.03 2.03 1.96 1.86 1.84 1.84 1.87 1.87 1.82
1.17 1.65 2.16 2.07 1.77 0.93 0.31 0.36 0.37 0.31 0.37 0.40 0.40 0.40 0.42 0.44 0.46 0.47 0.52 0.61 0.75 0.89 1.02 1.20 1.40 1.55 1.76 2.03 2.21 2.23 2.31 2.39 2.31 2.21 2.03 1.97 1.93 1.89 1.85 1.87 1.96 2.03 2.00 1.97 1.95 1.95 1.92 1.94 1.94
1.17 1.41 1.67 1.36 0.82 0.44 0.28 0.33 0.33 0.31 0.39 0.42 0.42 0.40 0.38 0.43 0.45 0.44 0.44 0.51 0.62 0.74 0.89 1.00 1.12 1.25 1.44 1.63 1.80 1.96 2.07 2.23 2.24 2.20 1.98 1.83 1.76 1.74 1.83 1.78 1.72 1.78 1.88 1.92 1.90 1.88 1.84 1.85 1.84
1.08 1.06 0.93 1.17 0.74 0.45 0.33 0.27 0.22 0.21 0.25 0.33 0.36 0.34 0.34 0.42 0.44 0.42 0.41 0.43 0.53 0.60 0.71 0.83 0.96 1.07 1.18 1.35 1.53 1.71 1.81 1.89 1.97 2.05 2.00 1.84 1.75 1.70 1.70 1.63 1.56 1.50 1.55 1.69 1.79 1.75 1.72 1.72 1.73
0.89 0.87 1.09 1.54 1.22 0.68 0.34 0.23 0.29 0.26 0.25 0.31 0.35 0.37 0.39 0.43 0.44 0.41 0.42 0.46 0.53 0.54 0.59 0.70 0.87 0.93 0.99 1.10 1.24 1.37 1.51 1.67 1.76 1.81 1.80 1.73 1.68 1.66 1.61 1.51 1.41 1.35 1.35 1.39 1.52 1.55 1.53 1.55 1.53
0.86 1.08 1.25 1.25 0.96 0.82 0.57 0.42 0.36 0.32 0.27 0.30 0.34 0.37 0.40 0.44 0.45 0.45 0.48 0.55 0.60 0.57 0.59 0.67 0.77 0.89 0.96 1.01 1.09 1.14 1.16 1.26 1.44 1.59 1.63 1.63 1.60 1.57 1.53 1.45 1.38 1.33 1.27 1.24 1.26 1.26 1.34 1.40 1.40
0.72 0.78 1.00 1.35 0.98 0.69 0.65 0.57 0.38 0.32 0.27 0.27 0.32 0.35 0.37 0.39 0.41 0.48 0.54 0.56 0.58 0.61 0.65 0.70 0.74 0.82 0.94 0.99 1.02 1.08 1.09 1.08 1.16 1.29 1.42 1.51 1.58 1.49 1.47 1.43 1.36 1.29 1.24 1.20 1.18 1.15 1.17 1.21 1.26

GEFSSGP_prec_meanprecacc_252.txt.gz
Total_Precipitation_Accumulation
0.18 0.20 0.29 0.42 0.40 0.27 0.11 0.03 0.02 0.02 0.03 0.05 0.06 0.08 0.07 0.07 0.11 0.22 0.18 0.13 0.11 0.14 0.24 0.46 0.69 0.83 0.81 0.74 0.65 0.56 0.53 0.48 0.48 0.52 0.51 0.50 0.45 0.45 0.47 0.50 0.51 0.55 0.56 0.57 0.65 0.62 0.60 0.52 0.41
0.21 0.32 0.51 0.60 0.44 0.27 0.11 0.03 0.02 0.03 0.04 0.05 0.07 0.08 0.08 0.09 0.10 0.15 0.21 0.20 0.17 0.20 0.30 0.46 0.69 0.88 0.89 0.83 0.76 0.69 0.72 0.66 0.61 0.62 0.64 0.61 0.59 0.57 0.58 0.58 0.57 0.57 0.55 0.54 0.55 0.47 0.43 0.34 0.28
0.36 0.51 0.70 0.66 0.48 0.26 0.11 0.04 0.04 0.04 0.05 0.07 0.08 0.09 0.11 0.14 0.14 0.17 0.25 0.30 0.32 0.33 0.41 0.60 0.79 0.95 0.99 0.90 0.89 0.85 0.88 0.86 0.80 0.74 0.75 0.77 0.75 0.68 0.64 0.59 0.60 0.55 0.52 0.47 0.44 0.35 0.27 0.23 0.20
0.59 0.76 0.79 0.66 0.47 0.23 0.10 0.06 0.07 0.07 0.07 0.08 0.11 0.17 0.17 0.16 0.19 0.23 0.33 0.41 0.44 0.47 0.54 0.74 0.92 1.05 1.08 0.97 0.94 0.95 0.97 1.00 0.97 0.86 0.83 0.86 0.86 0.77 0.63 0.59 0.55 0.49 0.45 0.43 0.37 0.30 0.24 0.20 0.20
0.85 0.97 0.81 0.62 0.41 0.21 0.10 0.09 0.10 0.11 0.11 0.12 0.15 0.21 0.25 0.22 0.24 0.36 0.51 0.59 0.61 0.69 0.76 0.90 1.12 1.29 1.32 1.21 1.13 1.09 1.06 1.06 1.08 0.99 0.90 0.92 0.96 0.94 0.74 0.60 0.51 0.44 0.41 0.37 0.34 0.28 0.24 0.21 0.20
1.11 1.11 0.86 0.55 0.33 0.21 0.11 0.10 0.11 0.14 0.14 0.16 0.22 0.27 0.36 0.33 0.36 0.46 0.68 0.79 0.82 0.89 0.96 1.12 1.36 1.44 1.53 1.44 1.33 1.29 1.22 1.13 1.11 1.11 1.05 1.01 1.03 1.04 0.85 0.63 0.52 0.47 0.41 0.37 0.35 0.32 0.25 0.22 0.22
1.11 1.12 0.83 0.43 0.28 0.24 0.13 0.12 0.15 0.16 0.16 0.19 0.25 0.35 0.47 0.51 0.60 0.66 0.84 1.02 1.10 1.17 1.28 1.34 1.47 1.58 1.73 1.57 1.38 1.35 1.34 1.28 1.20 1.17 1.13 1.05 1.03 0.99 0.85 0.64 0.56 0.53 0.46 0.39 0.37 0.37 0.32 0.27 0.24
1.11 1.21 0.82 0.42 0.26 0.27 0.19 0.16 0.18 0.20 0.21 0.21 0.30 0.42 0.52 0.61 0.78 0.94 1.10 1.22 1.39 1.47 1.58 1.57 1.57 1.63 1.81 1.76 1.50 1.33 1.24 1.24 1.27 1.21 1.05 0.86 0.85 0.89 0.81 0.59 0.53 0.53 0.48 0.41 0.39 0.39 0.38 0.32 0.24
1.13 1.21 0.80 0.44 0.32 0.29 0.25 0.26 0.24 0.23 0.31 0.34 0.40 0.47 0.58 0.75 1.01 1.26 1.43 1.51 1.68 1.81 1.85 1.85 1.77 1.68 1.76 1.81 1.60 1.49 1.36 1.30 1.28 1.24 1.01 0.85 0.86 0.85 0.76 0.55 0.42 0.47 0.45 0.42 0.41 0.44 0.42 0.34 0.25
1.15 0.98 0.59 0.39 0.36 0.35 0.30 0.32 0.33 0.38 0.44 0.50 0.59 0.67 0.80 1.06 1.38 1.54 1.63 1.67 1.76 1.91 1.97 2.03 1.92 1.86 1.87 1.88 1.77 1.71 1.57 1.44 1.36 1.23 1.11 1.00 0.92 0.90 0.79 0.65 0.45 0.43 0.44 0.45 0.46 0.46 0.49 0.39 0.28
0.83 0.71 0.51 0.40 0.38 0.39 0.39 0.37 0.38 0.47 0.51 0.50 0.59 0.79 1.06 1.39 1.73 1.76 1.90 2.01 1.97 2.10 2.17 2.23 2.11 2.08 2.03 1.98 1.84 1.75 1.62 1.54 1.49 1.43 1.23 1.15 1.09 1.00 0.98 0.85 0.70 0.60 0.49 0.49 0.47 0.49 0.44 0.37 0.30
0.60 0.49 0.47 0.45 0.40 0.43 0.45 0.45 0.48 0.49 0.49 0.50 0.58 0.78 1.13 1.50 1.76 1.83 2.03 2.18 2.27 2.35 2.46 2.44 2.37 2.32 2.22 2.11 1.93 1.73 1.58 1.48 1.44 1.42 1.39 1.30 1.22 1.11 0.99 0.88 0.75 0.68 0.56 0.51 0.48 0.44 0.39 0.35 0.35
0.50 0.41 0.41 0.48 0.49 0.46 0.45 0.45 0.53 0.47 0.46 0.54 0.65 0.90 1.17 1.54 1.87 2.02 2.24 2.37 2.48 2.61 2.65 2.70 2.62 2.49 2.29 2.21 2.10 1.79 1.58 1.40 1.37 1.41 1.40 1.34 1.22 1.11 1.03 0.93 0.87 0.78 0.65 0.57 0.54 0.49 0.43 0.39 0.39
0.41 0.39 0.46 0.54 0.60 0.51 0.49 0.49 0.54 0.51 0.50 0.61 0.75 0.95 1.16 1.52 1.99 2.19 2.46 2.67 2.59 2.80 2.91 2.99 2.87 2.69 2.37 2.15 2.12 1.93 1.69 1.49 1.40 1.35 1.34 1.39 1.33 1.22 1.17 0.98 0.93 0.89 0.80 0.73 0.67 0.61 0.57 0.52 0.48
0.45 0.54 0.59 0.63 0.66 0.55 0.57 0.66 0.57 0.53 0.50 0.59 0.73 0.93 1.13 1.45 1.87 2.16 2.41 2.57 2.72 2.88 3.09 3.16 3.16 2.98 2.59 2.27 2.14 2.00 1.83 1.69 1.54 1.30 1.23 1.28 1.37 1.42 1.41 1.16 1.02 0.95 0.92 0.92 0.87 0.80 0.77 0.68 0.58
0.71 0.85 0.79 0.56 0.62 0.60 0.70 0.74 0.51 0.50 0.54 0.55 0.63 0.83 1.02 1.23 1.60 1.94 2.30 2.50 2.67 2.95 3.11 3.19 3.22 3.16 2.89 2.51 2.32 2.13 1.92 1.81 1.71 1.51 1.36 1.27 1.32 1.48 1.59 1.34 1.14 1.06 1.04 1.01 0.94 0.86 0.82 0.73 0.66
0.99 0.82 0.63 0.48 0.49 0.62 0.63 0.65 0.53 0.49 0.56 0.51 0.53 0.68 0.94 1.10 1.32 1.60 1.99 2.33 2.47 2.79 3.03 3.28 3.26 3.18 3.09 2.85 2.64 2.46 2.20 2.02 1.87 1.64 1.47 1.45 1.43 1.50 1.66 1.43 1.22 1.16 1.13 1.04 1.03 0.97 0.90 0.79 0.72
0.77 0.49 0.43 0.45 0.45 0.53 0.50 0.44 0.48 0.54 0.56 0.52 0.53 0.60 0.79 1.02 1.09 1.31 1.64 2.10 2.29 2.58 2.89 3.09 3.38 3.35 3.40 3.32 3.05 2.82 2.61 2.31 2.06 1.79 1.56 1.53 1.52 1.52 1.66 1.57 1.34 1.27 1.25 1.12 1.02 1.02 1.05 1.02 0.92
0.61 0.50 0.39 0.33 0.37 0.48 0.43 0.37 0.41 0.45 0.53 0.54 0.54 0.57 0.63 0.82 0.96 1.16 1.47 1.85 2.15 2.32 2.63 2.80 3.04 3.27 3.36 3.29 2.97 2.69 2.52 2.46 2.29 1.99 1.76 1.73 1.67 1.58 1.62 1.66 1.51 1.32 1.28 1.23 1.12 1.08 1.06 1.12 1.18
0.76 0.69 0.48 0.35 0.31 0.45 0.45 0.39 0.39 0.42 0.49 0.51 0.53 0.52 0.55 0.64 0.79 0.98 1.34 1.56 1.79 2.04 2.23 2.55 2.66 2.97 3.03 2.95 2.91 2.76 2.69 2.63 2.52 2.34 2.03 1.88 1.84 1.74 1.65 1.60 1.58 1.42 1.30 1.34 1.36 1.29 1.21 1.15 1.18
0.80 0.67 0.55 0.48 0.42 0.51 0.57 0.53 0.40 0.39 0.40 0.39 0.41 0.41 0.47 0.52 0.60 0.76 1.07 1.37 1.51 1.77 2.06 2.20 2.35 2.60 2.87 2.93 3.08 3.17 3.11 2.85 2.58 2.42 2.32 2.12 2.00 1.93 1.78 1.67 1.66 1.59 1.43 1.31 1.38 1.44 1.41 1.40 1.39
0.83 0.49 0.53 0.58 0.75 0.74 0.58 0.71 0.46 0.35 0.34 0.34 0.37 0.34 0.38 0.46 0.51 0.60 0.71 0.98 1.22 1.42 1.80 2.12 2.32 2.49 2.68 3.00 3.00 2.89 2.75 2.57 2.29 2.28 2.36 2.35 2.23 2.11 1.93 1.85 1.83 1.74 1.62 1.48 1.46 1.50 1.57 1.61 1.59
0.74 0.49 0.58 0.68 0.84 0.85 0.55 0.62 0.46 0.29 0.32 0.34 0.36 0.35 0.42 0.52 0.55 0.55 0.58 0.74 0.95 1.15 1.51 1.86 2.13 2.44 2.67 2.80 2.82 2.84 2.64 2.46 2.41 2.35 2.36 2.27 2.16 2.13 2.07 1.98 2.01 1.92 1.79 1.73 1.73 1.70 1.73 1.74 1.71
0.81 0.84 0.91 0.97 1.29 1.29 0.52 0.50 0.45 0.34 0.37 0.39 0.38 0.38 0.44 0.52 0.56 0.54 0.56 0.66 0.83 0.96 1.19 1.55 1.83 2.00 2.29 2.60 2.63 2.61 2.59 2.54 2.51 2.31 2.23 2.25 2.20 2.12 2.06 2.10 2.12 2.09 2.01 1.89 1.86 1.86 1.89 1.90 1.86
1.21 1.70 2.24 2.16 1.86 1.00 0.34 0.39 0.42 0.35 0.40 0.44 0.44 0.45 0.46 0.46 0.48 0.49 0.54 0.62 0.76 0.90 1.03 1.21 1.43 1.58 1.78 2.06 2.25 2.27 2.34 2.43 2.36 2.26 2.06 2.02 2.01 1.99 1.92 1.92 2.04 2.11 2.08 2.05 2.02 1.99 1.95 1.97 1.98
1.22 1.45 1.72 1.41 0.87 0.49 0.32 0.37 0.38 0.34 0.41 0.45 0.45 0.44 0.42 0.46 0.48 0.46 0.46 0.53 0.64 0.75 0.90 1.02 1.14 1.27 1.46 1.66 1.83 2.01 2.13 2.27 2.28 2.25 2.04 1.87 1.80 1.81 1.93 1.86 1.78 1.86 1.96 2.00 2.00 1.97 1.91 1.90 1.88
1.12 1.11 0.96 1.21 0.77 0.49 0.38 0.31 0.26 0.23 0.27 0.36 0.39 0.37 0.38 0.45 0.48 0.45 0.44 0.45 0.55 0.62 0.72 0.84 0.97 1.08 1.20 1.37 1.56 1.74 1.86 1.94 2.01 2.09 2.08 1.93 1.80 1.75 1.76 1.70 1.64 1.60 1.64 1.78 1.88 1.84 1.80 1.80 1.80
0.93 0.91 1.14 1.60 1.27 0.74 0.39 0.26 0.33 0.30 0.28 0.34 0.38 0.42 0.46 0.48 0.48 0.44 0.44 0.47 0.54 0.56 0.60 0.72 0.88 0.94 1.00 1.11 1.26 1.40 1.55 1.73 1.82 1.87 1.86 1.83 1.79 1.72 1.67 1.56 1.46 1.42 1.43 1.48 1.59 1.63 1.61 1.62 1.60
0.92 1.13 1.31 1.30 1.00 0.87 0.61 0.47 0.43 0.38 0.34 0.36 0.39 0.43 0.47 0.49 0.48 0.48 0.50 0.56 0.62 0.58 0.60 0.68 0.78 0.90 0.97 1.03 1.11 1.17 1.20 1.31 1.49 1.65 1.69 1.70 1.72 1.68 1.61 1.52 1.43 1.37 1.31 1.30 1.31 1.32 1.41 1.48 1.47
0.78 0.84 1.06 1.41 1.03 0.73 0.69 0.62 0.45 0.38 0.34 0.33 0.36 0.39 0.40 0.42 0.44 0.50 0.56 0.56 0.59 0.62 0.65 0.71 0.75 0.83 0.95 1.00 1.05 1.11 1.13 1.12 1.21 1.34 1.47 1.57 1.66 1.60 1.57 1.52 1.43 1.34 1.28 1.24 1.22 1.19 1.22 1.27 1.31